<?xml version='1.0' encoding='UTF-8'?><gpx version="1.1" creator="JPX - https://github.com/jenetics/jpx" xmlns="http://www.topografix.com/GPX/1/1"><trk><trkseg><trkpt lat="39.2235637" lon="8.5006167"><ele>103.0</ele><time>2026-04-11T13:11:42.155Z</time></trkpt><trkpt lat="39.2235399" lon="8.5006968"><ele>103.0</ele><time>2026-04-11T13:11:43.145Z</time></trkpt><trkpt lat="39.2235101" lon="8.5007979"><ele>103.0</ele><time>2026-04-11T13:11:44.143Z</time></trkpt><trkpt lat="39.22347" lon="8.5008907"><ele>103.0</ele><time>2026-04-11T13:11:45.157Z</time></trkpt><trkpt lat="39.2234135" lon="8.5009934"><ele>103.0</ele><time>2026-04-11T13:11:46.161Z</time></trkpt><trkpt lat="39.2233396" lon="8.5011231"><ele>103.33333333333334</ele><time>2026-04-11T13:11:47.16Z</time></trkpt><trkpt lat="39.223238" lon="8.5012607"><ele>103.66666666666666</ele><time>2026-04-11T13:11:48.139Z</time></trkpt><trkpt lat="39.2231148" lon="8.5014123"><ele>104.0</ele><time>2026-04-11T13:11:49.152Z</time></trkpt><trkpt lat="39.2229931" lon="8.5015819"><ele>104.0</ele><time>2026-04-11T13:11:50.152Z</time></trkpt><trkpt lat="39.222859" lon="8.5017835"><ele>104.0</ele><time>2026-04-11T13:11:51.106Z</time></trkpt><trkpt lat="39.2227161" lon="8.5019861"><ele>104.0</ele><time>2026-04-11T13:11:52.163Z</time></trkpt><trkpt lat="39.2225921" lon="8.5021681"><ele>104.0</ele><time>2026-04-11T13:11:53.147Z</time></trkpt><trkpt lat="39.2224966" lon="8.5023236"><ele>104.0</ele><time>2026-04-11T13:11:54.166Z</time></trkpt><trkpt lat="39.2224037" lon="8.5024429"><ele>104.0</ele><time>2026-04-11T13:11:55.131Z</time></trkpt><trkpt lat="39.2223171" lon="8.5025636"><ele>104.0</ele><time>2026-04-11T13:11:56.165Z</time></trkpt><trkpt lat="39.2222349" lon="8.5026805"><ele>104.0</ele><time>2026-04-11T13:11:57.18Z</time></trkpt><trkpt lat="39.222141" lon="8.5027853"><ele>104.0</ele><time>2026-04-11T13:11:58.139Z</time></trkpt><trkpt lat="39.2220519" lon="8.5029181"><ele>104.0</ele><time>2026-04-11T13:11:59.111Z</time></trkpt><trkpt lat="39.2219465" lon="8.5030481"><ele>104.0</ele><time>2026-04-11T13:12:00.152Z</time></trkpt><trkpt lat="39.221847" lon="8.5031713"><ele>102.5</ele><time>2026-04-11T13:12:01.127Z</time></trkpt><trkpt lat="39.2217519" lon="8.5032989"><ele>101.0</ele><time>2026-04-11T13:12:02.129Z</time></trkpt><trkpt lat="39.2216623" lon="8.5034242"><ele>99.5</ele><time>2026-04-11T13:12:03.143Z</time></trkpt><trkpt lat="39.2215737" lon="8.5035382"><ele>98.0</ele><time>2026-04-11T13:12:04.16Z</time></trkpt><trkpt lat="39.2214758" lon="8.5036488"><ele>96.2</ele><time>2026-04-11T13:12:05.141Z</time></trkpt><trkpt lat="39.2213816" lon="8.503758"><ele>94.4</ele><time>2026-04-11T13:12:06.154Z</time></trkpt><trkpt lat="39.2213088" lon="8.503859"><ele>92.60000000000001</ele><time>2026-04-11T13:12:07.155Z</time></trkpt><trkpt lat="39.2212489" lon="8.5039419"><ele>90.80000000000001</ele><time>2026-04-11T13:12:08.155Z</time></trkpt><trkpt lat="39.2211933" lon="8.5040258"><ele>89.0</ele><time>2026-04-11T13:12:09.152Z</time></trkpt><trkpt lat="39.2211622" lon="8.5041158"><ele>89.0</ele><time>2026-04-11T13:12:10.129Z</time></trkpt><trkpt lat="39.2211653" lon="8.5042026"><ele>89.0</ele><time>2026-04-11T13:12:11.155Z</time></trkpt><trkpt lat="39.2211935" lon="8.5042948"><ele>89.0</ele><time>2026-04-11T13:12:12.16Z</time></trkpt><trkpt lat="39.2212122" lon="8.504382"><ele>89.0</ele><time>2026-04-11T13:12:13.149Z</time></trkpt><trkpt lat="39.2212342" lon="8.5044634"><ele>89.0</ele><time>2026-04-11T13:12:14.153Z</time></trkpt><trkpt lat="39.2212493" lon="8.5046197"><ele>89.0</ele><time>2026-04-11T13:12:16.151Z</time></trkpt><trkpt lat="39.2212324" lon="8.5047067"><ele>88.5</ele><time>2026-04-11T13:12:17.114Z</time></trkpt><trkpt lat="39.2211886" lon="8.5048033"><ele>88.0</ele><time>2026-04-11T13:12:18.153Z</time></trkpt><trkpt lat="39.2211396" lon="8.5048839"><ele>87.5</ele><time>2026-04-11T13:12:19.146Z</time></trkpt><trkpt lat="39.2210952" lon="8.5049543"><ele>87.0</ele><time>2026-04-11T13:12:20.16Z</time></trkpt><trkpt lat="39.2210296" lon="8.5050406"><ele>86.5</ele><time>2026-04-11T13:12:22.164Z</time></trkpt><trkpt lat="39.2209956" lon="8.5051337"><ele>86.0</ele><time>2026-04-11T13:12:25.152Z</time></trkpt><trkpt lat="39.2210328" lon="8.5052195"><ele>86.0</ele><time>2026-04-11T13:12:29.133Z</time></trkpt><trkpt lat="39.2211034" lon="8.505274"><ele>86.0</ele><time>2026-04-11T13:17:02.124Z</time></trkpt><trkpt lat="39.2211908" lon="8.5053912"><ele>86.0</ele><time>2026-04-11T13:17:04.18Z</time></trkpt><trkpt lat="39.2212505" lon="8.5054538"><ele>86.0</ele><time>2026-04-11T13:17:05.171Z</time></trkpt><trkpt lat="39.2213092" lon="8.5055139"><ele>86.0</ele><time>2026-04-11T13:17:06.138Z</time></trkpt><trkpt lat="39.2213586" lon="8.5055745"><ele>86.0</ele><time>2026-04-11T13:17:07.171Z</time></trkpt><trkpt lat="39.2214046" lon="8.5056317"><ele>85.42857142857143</ele><time>2026-04-11T13:17:08.168Z</time></trkpt><trkpt lat="39.2214598" lon="8.505684"><ele>84.85714285714286</ele><time>2026-04-11T13:17:09.175Z</time></trkpt><trkpt lat="39.2215189" lon="8.5057527"><ele>84.28571428571428</ele><time>2026-04-11T13:17:10.163Z</time></trkpt><trkpt lat="39.2215831" lon="8.5058278"><ele>83.71428571428572</ele><time>2026-04-11T13:17:11.165Z</time></trkpt><trkpt lat="39.2216341" lon="8.5058942"><ele>83.14285714285714</ele><time>2026-04-11T13:17:12.174Z</time></trkpt><trkpt lat="39.2216903" lon="8.5059381"><ele>82.57142857142857</ele><time>2026-04-11T13:17:13.189Z</time></trkpt><trkpt lat="39.2217523" lon="8.5059673"><ele>82.0</ele><time>2026-04-11T13:17:14.161Z</time></trkpt><trkpt lat="39.2218461" lon="8.5059652"><ele>81.8</ele><time>2026-04-11T13:17:15.146Z</time></trkpt><trkpt lat="39.2219426" lon="8.505952"><ele>81.6</ele><time>2026-04-11T13:17:16.153Z</time></trkpt><trkpt lat="39.2220504" lon="8.5059419"><ele>81.39999999999999</ele><time>2026-04-11T13:17:17.193Z</time></trkpt><trkpt lat="39.2221648" lon="8.5059491"><ele>81.19999999999999</ele><time>2026-04-11T13:17:18.178Z</time></trkpt><trkpt lat="39.2222661" lon="8.5059646"><ele>81.0</ele><time>2026-04-11T13:17:19.137Z</time></trkpt><trkpt lat="39.2223471" lon="8.5059914"><ele>81.33333333333333</ele><time>2026-04-11T13:17:20.185Z</time></trkpt><trkpt lat="39.2224102" lon="8.506048"><ele>81.66666666666667</ele><time>2026-04-11T13:17:21.176Z</time></trkpt><trkpt lat="39.2224689" lon="8.506107"><ele>82.0</ele><time>2026-04-11T13:17:22.098Z</time></trkpt><trkpt lat="39.2225416" lon="8.5061329"><ele>82.33333333333334</ele><time>2026-04-11T13:17:23.099Z</time></trkpt><trkpt lat="39.2226134" lon="8.5061242"><ele>82.66666666666667</ele><time>2026-04-11T13:17:24.167Z</time></trkpt><trkpt lat="39.2227017" lon="8.506108"><ele>83.0</ele><time>2026-04-11T13:17:25.165Z</time></trkpt><trkpt lat="39.2227906" lon="8.5060898"><ele>83.0</ele><time>2026-04-11T13:17:26.174Z</time></trkpt><trkpt lat="39.2228661" lon="8.5060572"><ele>83.0</ele><time>2026-04-11T13:17:27.152Z</time></trkpt><trkpt lat="39.2229594" lon="8.5059635"><ele>83.0</ele><time>2026-04-11T13:17:29.141Z</time></trkpt><trkpt lat="39.2229785" lon="8.5058805"><ele>83.0</ele><time>2026-04-11T13:17:30.166Z</time></trkpt><trkpt lat="39.2229949" lon="8.5057714"><ele>83.0</ele><time>2026-04-11T13:17:31.171Z</time></trkpt><trkpt lat="39.2230114" lon="8.5056447"><ele>83.0</ele><time>2026-04-11T13:17:32.16Z</time></trkpt><trkpt lat="39.2230387" lon="8.5055213"><ele>83.0</ele><time>2026-04-11T13:17:33.128Z</time></trkpt><trkpt lat="39.2230697" lon="8.5053931"><ele>83.0</ele><time>2026-04-11T13:17:34.148Z</time></trkpt><trkpt lat="39.2231024" lon="8.5052772"><ele>83.0</ele><time>2026-04-11T13:17:35.146Z</time></trkpt><trkpt lat="39.2231362" lon="8.5051825"><ele>83.0</ele><time>2026-04-11T13:17:36.183Z</time></trkpt><trkpt lat="39.2231726" lon="8.5050841"><ele>83.33333333333334</ele><time>2026-04-11T13:17:37.185Z</time></trkpt><trkpt lat="39.2231903" lon="8.5049609"><ele>83.66666666666667</ele><time>2026-04-11T13:17:38.146Z</time></trkpt><trkpt lat="39.2231978" lon="8.5048531"><ele>84.0</ele><time>2026-04-11T13:17:39.162Z</time></trkpt><trkpt lat="39.2232381" lon="8.5047587"><ele>84.33333333333333</ele><time>2026-04-11T13:17:40.163Z</time></trkpt><trkpt lat="39.2233033" lon="8.5046932"><ele>84.66666666666666</ele><time>2026-04-11T13:17:41.165Z</time></trkpt><trkpt lat="39.2233799" lon="8.5046275"><ele>85.0</ele><time>2026-04-11T13:17:42.178Z</time></trkpt><trkpt lat="39.2234602" lon="8.504542"><ele>85.83333333333333</ele><time>2026-04-11T13:17:43.153Z</time></trkpt><trkpt lat="39.2235145" lon="8.5044534"><ele>86.66666666666666</ele><time>2026-04-11T13:17:44.172Z</time></trkpt><trkpt lat="39.2235459" lon="8.5043633"><ele>87.5</ele><time>2026-04-11T13:17:45.187Z</time></trkpt><trkpt lat="39.2235565" lon="8.5042678"><ele>88.33333333333333</ele><time>2026-04-11T13:17:46.169Z</time></trkpt><trkpt lat="39.2235671" lon="8.5041478"><ele>89.16666666666667</ele><time>2026-04-11T13:17:47.173Z</time></trkpt><trkpt lat="39.2236033" lon="8.5040392"><ele>90.0</ele><time>2026-04-11T13:17:48.186Z</time></trkpt><trkpt lat="39.2236536" lon="8.5039703"><ele>90.0</ele><time>2026-04-11T13:17:49.174Z</time></trkpt><trkpt lat="39.2237244" lon="8.5039179"><ele>90.0</ele><time>2026-04-11T13:17:50.177Z</time></trkpt><trkpt lat="39.2238078" lon="8.5038889"><ele>90.0</ele><time>2026-04-11T13:17:51.166Z</time></trkpt><trkpt lat="39.2238782" lon="8.5038641"><ele>90.0</ele><time>2026-04-11T13:17:52.169Z</time></trkpt><trkpt lat="39.2239971" lon="8.5038252"><ele>90.0</ele><time>2026-04-11T13:17:54.18Z</time></trkpt><trkpt lat="39.2241022" lon="8.5037927"><ele>90.0</ele><time>2026-04-11T13:17:56.161Z</time></trkpt><trkpt lat="39.2241602" lon="8.5037493"><ele>90.0</ele><time>2026-04-11T13:18:26.159Z</time></trkpt><trkpt lat="39.2242352" lon="8.5037526"><ele>90.0</ele><time>2026-04-11T13:18:31.18Z</time></trkpt><trkpt lat="39.2243016" lon="8.503744"><ele>90.0</ele><time>2026-04-11T13:19:13.105Z</time></trkpt><trkpt lat="39.2243873" lon="8.5037514"><ele>90.0</ele><time>2026-04-11T13:19:15.157Z</time></trkpt><trkpt lat="39.2244513" lon="8.5037605"><ele>90.0</ele><time>2026-04-11T13:19:16.143Z</time></trkpt><trkpt lat="39.2245278" lon="8.5037655"><ele>90.0</ele><time>2026-04-11T13:19:17.139Z</time></trkpt><trkpt lat="39.2246016" lon="8.5037672"><ele>90.0</ele><time>2026-04-11T13:19:18.104Z</time></trkpt><trkpt lat="39.2246746" lon="8.5037633"><ele>90.0</ele><time>2026-04-11T13:19:19.144Z</time></trkpt><trkpt lat="39.2247819" lon="8.5037663"><ele>90.0</ele><time>2026-04-11T13:19:21.1Z</time></trkpt><trkpt lat="39.2248664" lon="8.5037659"><ele>90.0</ele><time>2026-04-11T13:19:23.155Z</time></trkpt><trkpt lat="39.2249413" lon="8.5037741"><ele>90.0</ele><time>2026-04-11T13:19:25.172Z</time></trkpt><trkpt lat="39.2250076" lon="8.5037706"><ele>90.0</ele><time>2026-04-11T13:19:27.169Z</time></trkpt><trkpt lat="39.2250773" lon="8.5037679"><ele>89.83333333333333</ele><time>2026-04-11T13:19:30.168Z</time></trkpt><trkpt lat="39.2251501" lon="8.5037505"><ele>89.66666666666667</ele><time>2026-04-11T13:19:32.154Z</time></trkpt><trkpt lat="39.2252177" lon="8.5037456"><ele>89.5</ele><time>2026-04-11T13:19:34.168Z</time></trkpt><trkpt lat="39.2253052" lon="8.5037426"><ele>89.33333333333334</ele><time>2026-04-11T13:19:36.129Z</time></trkpt><trkpt lat="39.2253773" lon="8.5037525"><ele>89.16666666666667</ele><time>2026-04-11T13:19:38.168Z</time></trkpt><trkpt lat="39.2254413" lon="8.5037998"><ele>89.0</ele><time>2026-04-11T13:19:40.141Z</time></trkpt><trkpt lat="39.2255624" lon="8.5038685"><ele>89.0</ele><time>2026-04-11T13:19:43.157Z</time></trkpt><trkpt lat="39.225638" lon="8.5038953"><ele>89.0</ele><time>2026-04-11T13:19:44.151Z</time></trkpt><trkpt lat="39.2257359" lon="8.5039414"><ele>89.0</ele><time>2026-04-11T13:19:46.105Z</time></trkpt><trkpt lat="39.2257505" lon="8.5040676"><ele>89.0</ele><time>2026-04-11T13:19:48.156Z</time></trkpt><trkpt lat="39.2257064" lon="8.5042262"><ele>89.0</ele><time>2026-04-11T13:19:50.148Z</time></trkpt><trkpt lat="39.2256515" lon="8.5043221"><ele>89.0</ele><time>2026-04-11T13:19:51.134Z</time></trkpt><trkpt lat="39.2256032" lon="8.5044106"><ele>89.0</ele><time>2026-04-11T13:19:52.163Z</time></trkpt><trkpt lat="39.2255653" lon="8.5044874"><ele>89.0</ele><time>2026-04-11T13:19:53.145Z</time></trkpt><trkpt lat="39.2255024" lon="8.504567"><ele>89.0</ele><time>2026-04-11T13:19:55.165Z</time></trkpt><trkpt lat="39.2254575" lon="8.5046321"><ele>89.0</ele><time>2026-04-11T13:19:58.153Z</time></trkpt><trkpt lat="39.2254463" lon="8.5047162"><ele>89.0</ele><time>2026-04-11T13:20:03.159Z</time></trkpt><trkpt lat="39.2254908" lon="8.504809"><ele>88.83333333333334</ele><time>2026-04-11T13:20:07.157Z</time></trkpt><trkpt lat="39.2255048" lon="8.5048976"><ele>88.66666666666667</ele><time>2026-04-11T13:20:09.145Z</time></trkpt><trkpt lat="39.2255919" lon="8.5049092"><ele>88.5</ele><time>2026-04-11T13:20:12.166Z</time></trkpt><trkpt lat="39.225646" lon="8.5048653"><ele>88.33333333333333</ele><time>2026-04-11T13:20:13.166Z</time></trkpt><trkpt lat="39.2257163" lon="8.5047648"><ele>88.16666666666666</ele><time>2026-04-11T13:20:14.11Z</time></trkpt><trkpt lat="39.2257969" lon="8.5046459"><ele>88.0</ele><time>2026-04-11T13:20:15.147Z</time></trkpt><trkpt lat="39.2258797" lon="8.5045352"><ele>88.0</ele><time>2026-04-11T13:20:16.166Z</time></trkpt><trkpt lat="39.225959" lon="8.5044413"><ele>88.0</ele><time>2026-04-11T13:20:17.166Z</time></trkpt><trkpt lat="39.2260538" lon="8.5043594"><ele>88.0</ele><time>2026-04-11T13:20:18.137Z</time></trkpt><trkpt lat="39.2261452" lon="8.5042808"><ele>88.0</ele><time>2026-04-11T13:20:19.171Z</time></trkpt><trkpt lat="39.226234" lon="8.5042024"><ele>88.0</ele><time>2026-04-11T13:20:20.159Z</time></trkpt><trkpt lat="39.2263003" lon="8.5041283"><ele>88.0</ele><time>2026-04-11T13:20:21.095Z</time></trkpt><trkpt lat="39.2263965" lon="8.5040616"><ele>88.0</ele><time>2026-04-11T13:20:23.138Z</time></trkpt><trkpt lat="39.2264723" lon="8.5040475"><ele>88.0</ele><time>2026-04-11T13:20:25.129Z</time></trkpt><trkpt lat="39.2265377" lon="8.5040449"><ele>88.0</ele><time>2026-04-11T13:20:50.159Z</time></trkpt><trkpt lat="39.2266293" lon="8.5040741"><ele>88.0</ele><time>2026-04-11T13:20:54.164Z</time></trkpt><trkpt lat="39.2267135" lon="8.5040962"><ele>88.0</ele><time>2026-04-11T13:20:56.169Z</time></trkpt><trkpt lat="39.2268085" lon="8.5041246"><ele>88.75</ele><time>2026-04-11T13:21:14.189Z</time></trkpt><trkpt lat="39.2268806" lon="8.5041298"><ele>89.5</ele><time>2026-04-11T13:21:15.159Z</time></trkpt><trkpt lat="39.2270028" lon="8.5041604"><ele>90.25</ele><time>2026-04-11T13:21:16.158Z</time></trkpt><trkpt lat="39.2271384" lon="8.504207"><ele>91.0</ele><time>2026-04-11T13:21:17.136Z</time></trkpt><trkpt lat="39.2272794" lon="8.504257"><ele>90.66666666666666</ele><time>2026-04-11T13:21:18.168Z</time></trkpt><trkpt lat="39.2274248" lon="8.5043173"><ele>90.33333333333333</ele><time>2026-04-11T13:21:19.164Z</time></trkpt><trkpt lat="39.2275764" lon="8.5043799"><ele>90.0</ele><time>2026-04-11T13:21:20.172Z</time></trkpt><trkpt lat="39.2277152" lon="8.5044357"><ele>90.0</ele><time>2026-04-11T13:21:21.156Z</time></trkpt><trkpt lat="39.2278399" lon="8.5044877"><ele>90.0</ele><time>2026-04-11T13:21:22.126Z</time></trkpt><trkpt lat="39.2279598" lon="8.5045339"><ele>90.0</ele><time>2026-04-11T13:21:23.115Z</time></trkpt><trkpt lat="39.2280828" lon="8.5045863"><ele>90.0</ele><time>2026-04-11T13:21:24.157Z</time></trkpt><trkpt lat="39.2281907" lon="8.5046283"><ele>89.4</ele><time>2026-04-11T13:21:25.174Z</time></trkpt><trkpt lat="39.2283063" lon="8.5046768"><ele>88.8</ele><time>2026-04-11T13:21:26.136Z</time></trkpt><trkpt lat="39.228406" lon="8.5047243"><ele>88.19999999999999</ele><time>2026-04-11T13:21:27.115Z</time></trkpt><trkpt lat="39.2284919" lon="8.5047785"><ele>87.6</ele><time>2026-04-11T13:21:28.176Z</time></trkpt><trkpt lat="39.2285735" lon="8.5048525"><ele>87.0</ele><time>2026-04-11T13:21:29.136Z</time></trkpt><trkpt lat="39.2286513" lon="8.5049006"><ele>87.0</ele><time>2026-04-11T13:21:30.156Z</time></trkpt><trkpt lat="39.2287228" lon="8.5049471"><ele>87.0</ele><time>2026-04-11T13:21:31.142Z</time></trkpt><trkpt lat="39.2287804" lon="8.5049861"><ele>87.0</ele><time>2026-04-11T13:21:32.119Z</time></trkpt><trkpt lat="39.2288349" lon="8.5050291"><ele>87.0</ele><time>2026-04-11T13:21:33.154Z</time></trkpt><trkpt lat="39.2289122" lon="8.5050677"><ele>87.0</ele><time>2026-04-11T13:21:34.152Z</time></trkpt><trkpt lat="39.2290291" lon="8.5051076"><ele>87.0</ele><time>2026-04-11T13:21:35.09Z</time></trkpt><trkpt lat="39.2291379" lon="8.5051375"><ele>87.0</ele><time>2026-04-11T13:21:36.137Z</time></trkpt><trkpt lat="39.2292376" lon="8.5051694"><ele>87.0</ele><time>2026-04-11T13:21:37.162Z</time></trkpt><trkpt lat="39.2293274" lon="8.5052116"><ele>87.0</ele><time>2026-04-11T13:21:38.15Z</time></trkpt><trkpt lat="39.2294178" lon="8.5052602"><ele>87.0</ele><time>2026-04-11T13:21:39.139Z</time></trkpt><trkpt lat="39.229502" lon="8.5053031"><ele>87.0</ele><time>2026-04-11T13:21:40.146Z</time></trkpt><trkpt lat="39.2295612" lon="8.5053455"><ele>87.0</ele><time>2026-04-11T13:21:41.148Z</time></trkpt><trkpt lat="39.2296449" lon="8.5053938"><ele>87.0</ele><time>2026-04-11T13:21:43.151Z</time></trkpt><trkpt lat="39.2297067" lon="8.5054096"><ele>87.0</ele><time>2026-04-11T13:22:17.134Z</time></trkpt><trkpt lat="39.2297707" lon="8.5054529"><ele>87.0</ele><time>2026-04-11T13:22:22.149Z</time></trkpt><trkpt lat="39.2297857" lon="8.505537"><ele>87.0</ele><time>2026-04-11T13:22:30.16Z</time></trkpt><trkpt lat="39.2297995" lon="8.5056778"><ele>87.0</ele><time>2026-04-11T13:22:32.148Z</time></trkpt><trkpt lat="39.2298162" lon="8.5057598"><ele>87.6</ele><time>2026-04-11T13:22:33.177Z</time></trkpt><trkpt lat="39.2298272" lon="8.5059144"><ele>88.19999999999999</ele><time>2026-04-11T13:22:35.121Z</time></trkpt><trkpt lat="39.2298336" lon="8.5060074"><ele>88.8</ele><time>2026-04-11T13:22:36.138Z</time></trkpt><trkpt lat="39.2298546" lon="8.506106"><ele>89.4</ele><time>2026-04-11T13:22:37.155Z</time></trkpt><trkpt lat="39.2298668" lon="8.5062008"><ele>90.0</ele><time>2026-04-11T13:22:38.151Z</time></trkpt><trkpt lat="39.2298904" lon="8.5063337"><ele>90.2</ele><time>2026-04-11T13:22:40.145Z</time></trkpt><trkpt lat="39.2299331" lon="8.506454"><ele>90.4</ele><time>2026-04-11T13:22:42.17Z</time></trkpt><trkpt lat="39.2299791" lon="8.5065654"><ele>90.6</ele><time>2026-04-11T13:22:44.156Z</time></trkpt><trkpt lat="39.2300179" lon="8.5066586"><ele>90.8</ele><time>2026-04-11T13:22:46.18Z</time></trkpt><trkpt lat="39.2300941" lon="8.5067635"><ele>91.0</ele><time>2026-04-11T13:22:48.162Z</time></trkpt><trkpt lat="39.2301978" lon="8.5068478"><ele>91.0</ele><time>2026-04-11T13:22:50.168Z</time></trkpt><trkpt lat="39.2302949" lon="8.5069049"><ele>91.0</ele><time>2026-04-11T13:22:52.172Z</time></trkpt><trkpt lat="39.2303857" lon="8.5069076"><ele>91.0</ele><time>2026-04-11T13:22:54.163Z</time></trkpt><trkpt lat="39.2304525" lon="8.506886"><ele>91.0</ele><time>2026-04-11T13:22:55.162Z</time></trkpt><trkpt lat="39.2305312" lon="8.506847"><ele>91.0</ele><time>2026-04-11T13:22:57.158Z</time></trkpt><trkpt lat="39.2305666" lon="8.5067302"><ele>91.0</ele><time>2026-04-11T13:22:59.174Z</time></trkpt><trkpt lat="39.2306029" lon="8.506654"><ele>92.66666666666666</ele><time>2026-04-11T13:23:00.112Z</time></trkpt><trkpt lat="39.230653" lon="8.5065928"><ele>94.33333333333333</ele><time>2026-04-11T13:23:01.173Z</time></trkpt><trkpt lat="39.2306943" lon="8.5065312"><ele>96.0</ele><time>2026-04-11T13:23:02.161Z</time></trkpt><trkpt lat="39.2307569" lon="8.5064536"><ele>97.66666666666666</ele><time>2026-04-11T13:23:04.164Z</time></trkpt><trkpt lat="39.2308221" lon="8.5063733"><ele>99.33333333333333</ele><time>2026-04-11T13:23:06.15Z</time></trkpt><trkpt lat="39.2308757" lon="8.5063224"><ele>101.0</ele><time>2026-04-11T13:23:09.151Z</time></trkpt><trkpt lat="39.2309582" lon="8.5063396"><ele>101.0</ele><time>2026-04-11T13:23:12.161Z</time></trkpt><trkpt lat="39.2310355" lon="8.5064196"><ele>101.0</ele><time>2026-04-11T13:23:14.141Z</time></trkpt><trkpt lat="39.2311121" lon="8.5065323"><ele>101.0</ele><time>2026-04-11T13:23:16.196Z</time></trkpt><trkpt lat="39.2311876" lon="8.506624"><ele>101.0</ele><time>2026-04-11T13:23:18.19Z</time></trkpt><trkpt lat="39.231256" lon="8.5066688"><ele>101.0</ele><time>2026-04-11T13:23:20.161Z</time></trkpt><trkpt lat="39.2313554" lon="8.5067059"><ele>100.99999999999999</ele><time>2026-04-11T13:23:22.137Z</time></trkpt><trkpt lat="39.2314561" lon="8.5067493"><ele>101.0</ele><time>2026-04-11T13:23:24.171Z</time></trkpt><trkpt lat="39.2315218" lon="8.5068114"><ele>101.0</ele><time>2026-04-11T13:23:26.14Z</time></trkpt><trkpt lat="39.231588" lon="8.5068799"><ele>101.0</ele><time>2026-04-11T13:23:29.155Z</time></trkpt><trkpt lat="39.2316572" lon="8.5069554"><ele>100.99999999999999</ele><time>2026-04-11T13:23:31.149Z</time></trkpt><trkpt lat="39.2317014" lon="8.5070288"><ele>101.0</ele><time>2026-04-11T13:23:33.148Z</time></trkpt><trkpt lat="39.2317171" lon="8.5071389"><ele>99.83333333333333</ele><time>2026-04-11T13:23:36.172Z</time></trkpt><trkpt lat="39.2317193" lon="8.5072235"><ele>98.66666666666666</ele><time>2026-04-11T13:23:38.173Z</time></trkpt><trkpt lat="39.2317065" lon="8.5073259"><ele>97.5</ele><time>2026-04-11T13:23:40.171Z</time></trkpt><trkpt lat="39.2316861" lon="8.5074243"><ele>96.33333333333333</ele><time>2026-04-11T13:23:42.178Z</time></trkpt><trkpt lat="39.2316348" lon="8.5075212"><ele>95.16666666666666</ele><time>2026-04-11T13:23:44.157Z</time></trkpt><trkpt lat="39.2315831" lon="8.5075966"><ele>94.0</ele><time>2026-04-11T13:23:47.144Z</time></trkpt><trkpt lat="39.2315146" lon="8.5076517"><ele>94.0</ele><time>2026-04-11T13:23:50.175Z</time></trkpt><trkpt lat="39.2314418" lon="8.5076623"><ele>94.0</ele><time>2026-04-11T13:23:52.178Z</time></trkpt><trkpt lat="39.2313576" lon="8.5076453"><ele>94.0</ele><time>2026-04-11T13:23:54.171Z</time></trkpt><trkpt lat="39.2312624" lon="8.5076208"><ele>94.0</ele><time>2026-04-11T13:23:56.155Z</time></trkpt><trkpt lat="39.2312018" lon="8.5075975"><ele>94.0</ele><time>2026-04-11T13:23:57.166Z</time></trkpt><trkpt lat="39.2310883" lon="8.5075813"><ele>94.0</ele><time>2026-04-11T13:23:59.172Z</time></trkpt><trkpt lat="39.2309821" lon="8.5075966"><ele>94.0</ele><time>2026-04-11T13:24:01.163Z</time></trkpt><trkpt lat="39.2308741" lon="8.5076001"><ele>94.0</ele><time>2026-04-11T13:24:03.151Z</time></trkpt><trkpt lat="39.2307959" lon="8.5076057"><ele>94.0</ele><time>2026-04-11T13:24:05.162Z</time></trkpt><trkpt lat="39.2307285" lon="8.507668"><ele>94.0</ele><time>2026-04-11T13:24:07.153Z</time></trkpt><trkpt lat="39.2306407" lon="8.5077139"><ele>94.0</ele><time>2026-04-11T13:24:09.147Z</time></trkpt><trkpt lat="39.2305682" lon="8.5077158"><ele>94.0</ele><time>2026-04-11T13:24:11.149Z</time></trkpt><trkpt lat="39.2305278" lon="8.5077855"><ele>93.83333333333333</ele><time>2026-04-11T13:24:14.168Z</time></trkpt><trkpt lat="39.230554" lon="8.5078875"><ele>93.66666666666666</ele><time>2026-04-11T13:24:16.152Z</time></trkpt><trkpt lat="39.2305949" lon="8.5079547"><ele>93.5</ele><time>2026-04-11T13:24:17.145Z</time></trkpt><trkpt lat="39.2306568" lon="8.5080456"><ele>93.33333333333333</ele><time>2026-04-11T13:24:18.186Z</time></trkpt><trkpt lat="39.2307326" lon="8.5081371"><ele>93.16666666666667</ele><time>2026-04-11T13:24:19.181Z</time></trkpt><trkpt lat="39.2308046" lon="8.5082243"><ele>93.0</ele><time>2026-04-11T13:24:20.158Z</time></trkpt><trkpt lat="39.2308808" lon="8.5083114"><ele>92.60000000000001</ele><time>2026-04-11T13:24:21.162Z</time></trkpt><trkpt lat="39.2309645" lon="8.5083947"><ele>92.2</ele><time>2026-04-11T13:24:22.172Z</time></trkpt><trkpt lat="39.2310496" lon="8.5084485"><ele>91.8</ele><time>2026-04-11T13:24:23.151Z</time></trkpt><trkpt lat="39.231146" lon="8.508463"><ele>91.4</ele><time>2026-04-11T13:24:24.115Z</time></trkpt><trkpt lat="39.231254" lon="8.5084634"><ele>91.0</ele><time>2026-04-11T13:24:25.169Z</time></trkpt><trkpt lat="39.2313593" lon="8.5084605"><ele>91.0</ele><time>2026-04-11T13:24:26.17Z</time></trkpt><trkpt lat="39.2314612" lon="8.5084747"><ele>91.0</ele><time>2026-04-11T13:24:27.153Z</time></trkpt><trkpt lat="39.2315627" lon="8.5084831"><ele>91.0</ele><time>2026-04-11T13:24:28.171Z</time></trkpt><trkpt lat="39.2316688" lon="8.5084758"><ele>91.0</ele><time>2026-04-11T13:24:29.132Z</time></trkpt><trkpt lat="39.2317692" lon="8.5084719"><ele>91.0</ele><time>2026-04-11T13:24:30.153Z</time></trkpt><trkpt lat="39.2318599" lon="8.5084627"><ele>91.19999999999999</ele><time>2026-04-11T13:24:31.181Z</time></trkpt><trkpt lat="39.2319428" lon="8.5084575"><ele>91.39999999999999</ele><time>2026-04-11T13:24:32.158Z</time></trkpt><trkpt lat="39.2320264" lon="8.5084727"><ele>91.6</ele><time>2026-04-11T13:24:33.157Z</time></trkpt><trkpt lat="39.2321305" lon="8.5084998"><ele>91.8</ele><time>2026-04-11T13:24:34.163Z</time></trkpt><trkpt lat="39.2322367" lon="8.5085271"><ele>92.0</ele><time>2026-04-11T13:24:35.132Z</time></trkpt><trkpt lat="39.2323378" lon="8.508556"><ele>92.6</ele><time>2026-04-11T13:24:36.14Z</time></trkpt><trkpt lat="39.2324367" lon="8.5085759"><ele>93.19999999999999</ele><time>2026-04-11T13:24:37.174Z</time></trkpt><trkpt lat="39.2325251" lon="8.5085843"><ele>93.8</ele><time>2026-04-11T13:24:38.163Z</time></trkpt><trkpt lat="39.2326052" lon="8.5085891"><ele>94.4</ele><time>2026-04-11T13:24:39.154Z</time></trkpt><trkpt lat="39.2326979" lon="8.5086026"><ele>95.0</ele><time>2026-04-11T13:24:41.156Z</time></trkpt><trkpt lat="39.232782" lon="8.5086444"><ele>95.0</ele><time>2026-04-11T13:25:05.107Z</time></trkpt><trkpt lat="39.2328671" lon="8.5086815"><ele>95.0</ele><time>2026-04-11T13:25:07.154Z</time></trkpt><trkpt lat="39.2329234" lon="8.5087319"><ele>95.0</ele><time>2026-04-11T13:25:08.161Z</time></trkpt><trkpt lat="39.2329901" lon="8.5088125"><ele>95.0</ele><time>2026-04-11T13:25:09.137Z</time></trkpt><trkpt lat="39.2330622" lon="8.5089025"><ele>95.0</ele><time>2026-04-11T13:25:10.153Z</time></trkpt><trkpt lat="39.2331168" lon="8.5089668"><ele>95.0</ele><time>2026-04-11T13:25:11.124Z</time></trkpt><trkpt lat="39.2332018" lon="8.5090808"><ele>96.2</ele><time>2026-04-11T13:25:13.138Z</time></trkpt><trkpt lat="39.233262" lon="8.5092027"><ele>97.4</ele><time>2026-04-11T13:25:14.149Z</time></trkpt><trkpt lat="39.2333147" lon="8.5093428"><ele>98.6</ele><time>2026-04-11T13:25:15.138Z</time></trkpt><trkpt lat="39.2333523" lon="8.5094621"><ele>99.8</ele><time>2026-04-11T13:25:16.15Z</time></trkpt><trkpt lat="39.2333854" lon="8.5095725"><ele>101.0</ele><time>2026-04-11T13:25:17.161Z</time></trkpt><trkpt lat="39.2334113" lon="8.5096679"><ele>101.83333333333333</ele><time>2026-04-11T13:25:18.146Z</time></trkpt><trkpt lat="39.2334277" lon="8.5097537"><ele>102.66666666666666</ele><time>2026-04-11T13:25:19.151Z</time></trkpt><trkpt lat="39.2333795" lon="8.5098193"><ele>103.5</ele><time>2026-04-11T13:25:21.166Z</time></trkpt><trkpt lat="39.2332778" lon="8.509841"><ele>104.33333333333334</ele><time>2026-04-11T13:25:24.161Z</time></trkpt><trkpt lat="39.2332137" lon="8.5098694"><ele>105.16666666666667</ele><time>2026-04-11T13:25:26.17Z</time></trkpt><trkpt lat="39.233165" lon="8.5099242"><ele>106.0</ele><time>2026-04-11T13:25:30.163Z</time></trkpt><trkpt lat="39.2331231" lon="8.5100197"><ele>106.19999999999999</ele><time>2026-04-11T13:25:40.171Z</time></trkpt><trkpt lat="39.2330623" lon="8.5100793"><ele>106.39999999999999</ele><time>2026-04-11T13:25:42.156Z</time></trkpt><trkpt lat="39.2329591" lon="8.5101812"><ele>106.6</ele><time>2026-04-11T13:25:44.125Z</time></trkpt><trkpt lat="39.2328993" lon="8.5102291"><ele>106.8</ele><time>2026-04-11T13:25:45.12Z</time></trkpt><trkpt lat="39.2328226" lon="8.5103049"><ele>107.0</ele><time>2026-04-11T13:25:47.145Z</time></trkpt><trkpt lat="39.2327425" lon="8.5103838"><ele>108.19999999999999</ele><time>2026-04-11T13:25:49.168Z</time></trkpt><trkpt lat="39.2326511" lon="8.5104589"><ele>109.39999999999999</ele><time>2026-04-11T13:25:51.109Z</time></trkpt><trkpt lat="39.2325947" lon="8.5105008"><ele>110.60000000000001</ele><time>2026-04-11T13:25:52.169Z</time></trkpt><trkpt lat="39.2325401" lon="8.5105511"><ele>111.80000000000001</ele><time>2026-04-11T13:25:53.156Z</time></trkpt><trkpt lat="39.2324481" lon="8.5106432"><ele>113.0</ele><time>2026-04-11T13:25:55.159Z</time></trkpt><trkpt lat="39.2323631" lon="8.5107148"><ele>112.16666666666666</ele><time>2026-04-11T13:25:57.159Z</time></trkpt><trkpt lat="39.2323033" lon="8.5107686"><ele>111.33333333333333</ele><time>2026-04-11T13:26:14.164Z</time></trkpt><trkpt lat="39.2322216" lon="8.5108338"><ele>110.5</ele><time>2026-04-11T13:26:17.102Z</time></trkpt><trkpt lat="39.2321564" lon="8.5109016"><ele>109.66666666666666</ele><time>2026-04-11T13:26:19.162Z</time></trkpt><trkpt lat="39.2320625" lon="8.510974"><ele>108.83333333333333</ele><time>2026-04-11T13:26:21.11Z</time></trkpt><trkpt lat="39.2320067" lon="8.5110184"><ele>108.0</ele><time>2026-04-11T13:26:22.148Z</time></trkpt><trkpt lat="39.2319501" lon="8.5110759"><ele>108.0</ele><time>2026-04-11T13:26:23.149Z</time></trkpt><trkpt lat="39.2318956" lon="8.5111322"><ele>108.0</ele><time>2026-04-11T13:26:24.155Z</time></trkpt><trkpt lat="39.2318427" lon="8.5111838"><ele>108.0</ele><time>2026-04-11T13:26:25.146Z</time></trkpt><trkpt lat="39.231789" lon="8.5112369"><ele>108.0</ele><time>2026-04-11T13:26:26.172Z</time></trkpt><trkpt lat="39.231728" lon="8.5112866"><ele>108.0</ele><time>2026-04-11T13:26:27.171Z</time></trkpt><trkpt lat="39.2316593" lon="8.5113437"><ele>108.0</ele><time>2026-04-11T13:26:28.165Z</time></trkpt><trkpt lat="39.2315915" lon="8.5114049"><ele>108.0</ele><time>2026-04-11T13:26:29.142Z</time></trkpt><trkpt lat="39.2315309" lon="8.5114707"><ele>105.66666666666667</ele><time>2026-04-11T13:26:30.152Z</time></trkpt><trkpt lat="39.2314721" lon="8.5115398"><ele>103.33333333333333</ele><time>2026-04-11T13:26:31.166Z</time></trkpt><trkpt lat="39.2314051" lon="8.5115893"><ele>101.0</ele><time>2026-04-11T13:26:32.143Z</time></trkpt><trkpt lat="39.2313391" lon="8.5116355"><ele>98.66666666666666</ele><time>2026-04-11T13:26:33.152Z</time></trkpt><trkpt lat="39.2312597" lon="8.5117191"><ele>96.33333333333333</ele><time>2026-04-11T13:26:35.173Z</time></trkpt><trkpt lat="39.2312092" lon="8.5117829"><ele>94.0</ele><time>2026-04-11T13:26:36.128Z</time></trkpt><trkpt lat="39.2311425" lon="8.5118497"><ele>94.0</ele><time>2026-04-11T13:26:37.175Z</time></trkpt><trkpt lat="39.2310713" lon="8.5119201"><ele>94.0</ele><time>2026-04-11T13:26:38.154Z</time></trkpt><trkpt lat="39.2310101" lon="8.5119808"><ele>94.0</ele><time>2026-04-11T13:26:39.142Z</time></trkpt><trkpt lat="39.2309464" lon="8.5120277"><ele>94.0</ele><time>2026-04-11T13:26:40.184Z</time></trkpt><trkpt lat="39.2308822" lon="8.5120746"><ele>94.0</ele><time>2026-04-11T13:26:41.187Z</time></trkpt><trkpt lat="39.2307806" lon="8.512123"><ele>94.0</ele><time>2026-04-11T13:26:43.175Z</time></trkpt><trkpt lat="39.2307171" lon="8.5121098"><ele>94.0</ele><time>2026-04-11T13:26:45.174Z</time></trkpt><trkpt lat="39.2306788" lon="8.51204"><ele>94.0</ele><time>2026-04-11T13:26:46.169Z</time></trkpt><trkpt lat="39.2306389" lon="8.5119699"><ele>94.0</ele><time>2026-04-11T13:26:47.167Z</time></trkpt><trkpt lat="39.2305893" lon="8.5119026"><ele>94.0</ele><time>2026-04-11T13:26:48.184Z</time></trkpt><trkpt lat="39.2305521" lon="8.5118262"><ele>94.0</ele><time>2026-04-11T13:26:49.186Z</time></trkpt><trkpt lat="39.2305469" lon="8.5117423"><ele>94.0</ele><time>2026-04-11T13:26:50.196Z</time></trkpt><trkpt lat="39.2305514" lon="8.5116508"><ele>94.0</ele><time>2026-04-11T13:26:51.177Z</time></trkpt><trkpt lat="39.2305548" lon="8.5115663"><ele>93.66666666666666</ele><time>2026-04-11T13:26:52.169Z</time></trkpt><trkpt lat="39.2305585" lon="8.5114811"><ele>93.33333333333333</ele><time>2026-04-11T13:26:53.175Z</time></trkpt><trkpt lat="39.2305581" lon="8.5113292"><ele>93.0</ele><time>2026-04-11T13:26:55.143Z</time></trkpt><trkpt lat="39.2305573" lon="8.5112079"><ele>92.66666666666667</ele><time>2026-04-11T13:26:57.185Z</time></trkpt><trkpt lat="39.2305566" lon="8.5111025"><ele>92.33333333333334</ele><time>2026-04-11T13:26:59.177Z</time></trkpt><trkpt lat="39.2305422" lon="8.5110097"><ele>92.0</ele><time>2026-04-11T13:27:02.159Z</time></trkpt><trkpt lat="39.230477" lon="8.5109615"><ele>92.0</ele><time>2026-04-11T13:27:17.165Z</time></trkpt><trkpt lat="39.2304207" lon="8.5109218"><ele>92.0</ele><time>2026-04-11T13:27:20.159Z</time></trkpt><trkpt lat="39.230369" lon="8.5108534"><ele>92.0</ele><time>2026-04-11T13:28:13.146Z</time></trkpt><trkpt lat="39.230311" lon="8.5107464"><ele>92.0</ele><time>2026-04-11T13:28:15.161Z</time></trkpt><trkpt lat="39.2302652" lon="8.5106029"><ele>92.0</ele><time>2026-04-11T13:28:17.126Z</time></trkpt><trkpt lat="39.2302419" lon="8.5105086"><ele>92.0</ele><time>2026-04-11T13:28:18.162Z</time></trkpt><trkpt lat="39.2302261" lon="8.5103977"><ele>92.0</ele><time>2026-04-11T13:28:19.151Z</time></trkpt><trkpt lat="39.230212" lon="8.5102869"><ele>92.0</ele><time>2026-04-11T13:28:20.149Z</time></trkpt><trkpt lat="39.2301994" lon="8.5101738"><ele>92.0</ele><time>2026-04-11T13:28:21.177Z</time></trkpt><trkpt lat="39.2301837" lon="8.5100666"><ele>92.0</ele><time>2026-04-11T13:28:22.163Z</time></trkpt><trkpt lat="39.2301727" lon="8.5099735"><ele>92.0</ele><time>2026-04-11T13:28:23.164Z</time></trkpt><trkpt lat="39.2301447" lon="8.5098923"><ele>92.0</ele><time>2026-04-11T13:28:24.132Z</time></trkpt><trkpt lat="39.2301214" lon="8.5097935"><ele>92.0</ele><time>2026-04-11T13:28:25.132Z</time></trkpt><trkpt lat="39.2301066" lon="8.5096951"><ele>92.0</ele><time>2026-04-11T13:28:26.163Z</time></trkpt><trkpt lat="39.2300766" lon="8.5096065"><ele>92.0</ele><time>2026-04-11T13:28:27.169Z</time></trkpt><trkpt lat="39.2300322" lon="8.509484"><ele>92.0</ele><time>2026-04-11T13:28:29.142Z</time></trkpt><trkpt lat="39.2300269" lon="8.5093901"><ele>92.0</ele><time>2026-04-11T13:28:33.159Z</time></trkpt><trkpt lat="39.2300072" lon="8.5092828"><ele>92.0</ele><time>2026-04-11T13:28:52.127Z</time></trkpt><trkpt lat="39.2299303" lon="8.5092458"><ele>93.0</ele><time>2026-04-11T13:28:55.149Z</time></trkpt></trkseg><trkseg><trkpt lat="39.2298172" lon="8.5092462"><ele>93.2</ele><time>2026-04-11T13:43:39.149Z</time></trkpt><trkpt lat="39.2297529" lon="8.509301"><ele>93.4</ele><time>2026-04-11T13:43:41.133Z</time></trkpt><trkpt lat="39.2296885" lon="8.509402"><ele>93.60000000000001</ele><time>2026-04-11T13:43:43.148Z</time></trkpt><trkpt lat="39.2296655" lon="8.5095537"><ele>93.80000000000001</ele><time>2026-04-11T13:43:45.135Z</time></trkpt><trkpt lat="39.2296379" lon="8.5097015"><ele>94.0</ele><time>2026-04-11T13:43:47.16Z</time></trkpt><trkpt lat="39.2296011" lon="8.509788"><ele>94.0</ele><time>2026-04-11T13:43:49.117Z</time></trkpt><trkpt lat="39.2295381" lon="8.5098493"><ele>94.0</ele><time>2026-04-11T13:43:51.179Z</time></trkpt><trkpt lat="39.2294368" lon="8.5098728"><ele>94.0</ele><time>2026-04-11T13:43:53.152Z</time></trkpt><trkpt lat="39.2292989" lon="8.5097954"><ele>94.0</ele><time>2026-04-11T13:43:55.132Z</time></trkpt><trkpt lat="39.2292238" lon="8.5097273"><ele>94.0</ele><time>2026-04-11T13:43:57.136Z</time></trkpt><trkpt lat="39.2291459" lon="8.5096584"><ele>94.0</ele><time>2026-04-11T13:43:59.117Z</time></trkpt><trkpt lat="39.2290727" lon="8.5096283"><ele>94.0</ele><time>2026-04-11T13:44:01.138Z</time></trkpt><trkpt lat="39.2289785" lon="8.509615"><ele>94.0</ele><time>2026-04-11T13:44:03.104Z</time></trkpt><trkpt lat="39.2288792" lon="8.5096713"><ele>94.0</ele><time>2026-04-11T13:44:05.131Z</time></trkpt><trkpt lat="39.2288067" lon="8.5098031"><ele>94.0</ele><time>2026-04-11T13:44:07.159Z</time></trkpt><trkpt lat="39.2287767" lon="8.5098815"><ele>95.0</ele><time>2026-04-11T13:44:08.142Z</time></trkpt><trkpt lat="39.2287617" lon="8.5099665"><ele>96.0</ele><time>2026-04-11T13:44:09.147Z</time></trkpt><trkpt lat="39.2287441" lon="8.5100683"><ele>97.0</ele><time>2026-04-11T13:44:10.154Z</time></trkpt><trkpt lat="39.2287217" lon="8.510164"><ele>98.0</ele><time>2026-04-11T13:44:11.152Z</time></trkpt><trkpt lat="39.2286842" lon="8.5102579"><ele>99.00000000000001</ele><time>2026-04-11T13:44:12.164Z</time></trkpt><trkpt lat="39.2286437" lon="8.5103574"><ele>100.0</ele><time>2026-04-11T13:44:13.162Z</time></trkpt><trkpt lat="39.2286015" lon="8.5104701"><ele>100.33333333333334</ele><time>2026-04-11T13:44:14.131Z</time></trkpt><trkpt lat="39.2285675" lon="8.5105739"><ele>100.66666666666667</ele><time>2026-04-11T13:44:15.113Z</time></trkpt><trkpt lat="39.228558" lon="8.5107163"><ele>101.0</ele><time>2026-04-11T13:44:17.147Z</time></trkpt><trkpt lat="39.2285445" lon="8.5108023"><ele>101.33333333333334</ele><time>2026-04-11T13:44:19.12Z</time></trkpt><trkpt lat="39.228492" lon="8.5108604"><ele>101.66666666666667</ele><time>2026-04-11T13:44:23.151Z</time></trkpt><trkpt lat="39.2284095" lon="8.51088"><ele>102.0</ele><time>2026-04-11T13:44:30.142Z</time></trkpt><trkpt lat="39.2283167" lon="8.5108909"><ele>102.0</ele><time>2026-04-11T13:44:33.169Z</time></trkpt><trkpt lat="39.2282309" lon="8.5108945"><ele>102.0</ele><time>2026-04-11T13:44:35.162Z</time></trkpt><trkpt lat="39.2281496" lon="8.5109578"><ele>102.0</ele><time>2026-04-11T13:44:37.159Z</time></trkpt><trkpt lat="39.2280781" lon="8.5110699"><ele>102.0</ele><time>2026-04-11T13:44:39.16Z</time></trkpt><trkpt lat="39.2279987" lon="8.5111854"><ele>102.0</ele><time>2026-04-11T13:44:41.168Z</time></trkpt><trkpt lat="39.2279286" lon="8.511309"><ele>99.6</ele><time>2026-04-11T13:44:43.135Z</time></trkpt><trkpt lat="39.2278836" lon="8.5113772"><ele>97.19999999999999</ele><time>2026-04-11T13:44:44.164Z</time></trkpt><trkpt lat="39.2278394" lon="8.5114384"><ele>94.8</ele><time>2026-04-11T13:44:45.154Z</time></trkpt><trkpt lat="39.2277394" lon="8.511525"><ele>92.4</ele><time>2026-04-11T13:44:47.101Z</time></trkpt><trkpt lat="39.2276558" lon="8.5116046"><ele>90.0</ele><time>2026-04-11T13:44:49.178Z</time></trkpt><trkpt lat="39.2276363" lon="8.5117423"><ele>90.0</ele><time>2026-04-11T13:44:52.143Z</time></trkpt><trkpt lat="39.2276423" lon="8.5118431"><ele>90.0</ele><time>2026-04-11T13:44:53.158Z</time></trkpt><trkpt lat="39.2276429" lon="8.5119343"><ele>90.0</ele><time>2026-04-11T13:44:54.115Z</time></trkpt><trkpt lat="39.2276456" lon="8.5120244"><ele>90.0</ele><time>2026-04-11T13:44:55.129Z</time></trkpt><trkpt lat="39.2276481" lon="8.5121709"><ele>90.0</ele><time>2026-04-11T13:44:57.15Z</time></trkpt><trkpt lat="39.2276308" lon="8.512317"><ele>90.0</ele><time>2026-04-11T13:44:59.145Z</time></trkpt><trkpt lat="39.2275949" lon="8.5123931"><ele>90.16666666666667</ele><time>2026-04-11T13:45:01.158Z</time></trkpt><trkpt lat="39.2275309" lon="8.5124646"><ele>90.33333333333333</ele><time>2026-04-11T13:45:03.16Z</time></trkpt><trkpt lat="39.227499" lon="8.5125366"><ele>90.5</ele><time>2026-04-11T13:45:04.146Z</time></trkpt><trkpt lat="39.227471" lon="8.5126215"><ele>90.66666666666666</ele><time>2026-04-11T13:45:05.167Z</time></trkpt><trkpt lat="39.2274397" lon="8.512703"><ele>90.83333333333333</ele><time>2026-04-11T13:45:06.168Z</time></trkpt><trkpt lat="39.227412" lon="8.5127807"><ele>91.0</ele><time>2026-04-11T13:45:07.145Z</time></trkpt><trkpt lat="39.2273579" lon="8.5129275"><ele>91.16666666666666</ele><time>2026-04-11T13:45:09.153Z</time></trkpt><trkpt lat="39.2273257" lon="8.5130116"><ele>91.33333333333333</ele><time>2026-04-11T13:45:10.11Z</time></trkpt><trkpt lat="39.2272879" lon="8.5130924"><ele>91.5</ele><time>2026-04-11T13:45:11.139Z</time></trkpt><trkpt lat="39.2272452" lon="8.5131832"><ele>91.66666666666667</ele><time>2026-04-11T13:45:12.18Z</time></trkpt><trkpt lat="39.2272089" lon="8.5132596"><ele>91.83333333333334</ele><time>2026-04-11T13:45:13.162Z</time></trkpt><trkpt lat="39.2271791" lon="8.5133312"><ele>92.0</ele><time>2026-04-11T13:45:14.154Z</time></trkpt><trkpt lat="39.2271566" lon="8.5134464"><ele>92.0</ele><time>2026-04-11T13:45:16.163Z</time></trkpt><trkpt lat="39.2271949" lon="8.5135124"><ele>92.0</ele><time>2026-04-11T13:45:18.17Z</time></trkpt><trkpt lat="39.227266" lon="8.5135427"><ele>92.0</ele><time>2026-04-11T13:45:20.16Z</time></trkpt><trkpt lat="39.2273625" lon="8.5135832"><ele>92.0</ele><time>2026-04-11T13:45:22.144Z</time></trkpt><trkpt lat="39.2274382" lon="8.5136106"><ele>92.0</ele><time>2026-04-11T13:45:24.161Z</time></trkpt><trkpt lat="39.2275115" lon="8.5136403"><ele>92.0</ele><time>2026-04-11T13:45:27.168Z</time></trkpt><trkpt lat="39.2275339" lon="8.5137215"><ele>92.19999999999999</ele><time>2026-04-11T13:46:10.163Z</time></trkpt><trkpt lat="39.2275984" lon="8.5137557"><ele>92.4</ele><time>2026-04-11T13:46:15.137Z</time></trkpt><trkpt lat="39.2275883" lon="8.5138404"><ele>92.6</ele><time>2026-04-11T13:46:19.136Z</time></trkpt><trkpt lat="39.2276224" lon="8.5139813"><ele>92.80000000000001</ele><time>2026-04-11T13:46:39.168Z</time></trkpt><trkpt lat="39.2276455" lon="8.5141059"><ele>93.0</ele><time>2026-04-11T13:46:40.143Z</time></trkpt><trkpt lat="39.2276316" lon="8.5142632"><ele>93.0</ele><time>2026-04-11T13:46:45.14Z</time></trkpt><trkpt lat="39.2276092" lon="8.5143672"><ele>93.0</ele><time>2026-04-11T13:46:46.13Z</time></trkpt><trkpt lat="39.227592" lon="8.5144708"><ele>93.0</ele><time>2026-04-11T13:46:49.134Z</time></trkpt><trkpt lat="39.2276569" lon="8.5145372"><ele>93.0</ele><time>2026-04-11T13:46:52.134Z</time></trkpt><trkpt lat="39.2277079" lon="8.5146167"><ele>93.0</ele><time>2026-04-11T13:46:55.143Z</time></trkpt><trkpt lat="39.2277041" lon="8.5147291"><ele>93.0</ele><time>2026-04-11T13:46:59.152Z</time></trkpt><trkpt lat="39.2276683" lon="8.5148229"><ele>92.66666666666667</ele><time>2026-04-11T13:47:01.152Z</time></trkpt><trkpt lat="39.2276096" lon="8.5148882"><ele>92.33333333333333</ele><time>2026-04-11T13:47:04.168Z</time></trkpt><trkpt lat="39.2275239" lon="8.5148923"><ele>92.0</ele><time>2026-04-11T13:47:07.11Z</time></trkpt><trkpt lat="39.22746" lon="8.5148899"><ele>91.66666666666666</ele><time>2026-04-11T13:47:09.158Z</time></trkpt><trkpt lat="39.2274062" lon="8.514952"><ele>91.33333333333333</ele><time>2026-04-11T13:47:11.136Z</time></trkpt><trkpt lat="39.2273712" lon="8.51506"><ele>91.0</ele><time>2026-04-11T13:47:13.14Z</time></trkpt><trkpt lat="39.22733" lon="8.5151652"><ele>91.0</ele><time>2026-04-11T13:47:15.147Z</time></trkpt><trkpt lat="39.2272563" lon="8.515277"><ele>91.0</ele><time>2026-04-11T13:47:17.139Z</time></trkpt><trkpt lat="39.2271628" lon="8.5153969"><ele>91.0</ele><time>2026-04-11T13:47:19.145Z</time></trkpt><trkpt lat="39.2271109" lon="8.5154651"><ele>91.0</ele><time>2026-04-11T13:47:20.149Z</time></trkpt><trkpt lat="39.2270578" lon="8.5155284"><ele>91.0</ele><time>2026-04-11T13:47:21.146Z</time></trkpt><trkpt lat="39.2270052" lon="8.5156024"><ele>91.0</ele><time>2026-04-11T13:47:22.149Z</time></trkpt><trkpt lat="39.2269595" lon="8.5156691"><ele>91.0</ele><time>2026-04-11T13:47:23.144Z</time></trkpt><trkpt lat="39.2268911" lon="8.5157824"><ele>91.0</ele><time>2026-04-11T13:47:25.174Z</time></trkpt><trkpt lat="39.2268247" lon="8.5159027"><ele>91.0</ele><time>2026-04-11T13:47:27.15Z</time></trkpt><trkpt lat="39.2267747" lon="8.5160235"><ele>91.0</ele><time>2026-04-11T13:47:29.136Z</time></trkpt><trkpt lat="39.2267581" lon="8.516125"><ele>91.0</ele><time>2026-04-11T13:47:31.133Z</time></trkpt><trkpt lat="39.2267461" lon="8.5162062"><ele>91.0</ele><time>2026-04-11T13:47:33.158Z</time></trkpt><trkpt lat="39.2266856" lon="8.5162911"><ele>91.0</ele><time>2026-04-11T13:47:37.169Z</time></trkpt><trkpt lat="39.2266757" lon="8.5163855"><ele>91.0</ele><time>2026-04-11T13:47:41.103Z</time></trkpt><trkpt lat="39.226724" lon="8.5164735"><ele>91.0</ele><time>2026-04-11T13:47:43.115Z</time></trkpt><trkpt lat="39.2267635" lon="8.5165372"><ele>91.0</ele><time>2026-04-11T13:47:46.152Z</time></trkpt><trkpt lat="39.2268267" lon="8.5166177"><ele>91.0</ele><time>2026-04-11T13:48:02.132Z</time></trkpt><trkpt lat="39.226904" lon="8.5167084"><ele>91.0</ele><time>2026-04-11T13:48:04.15Z</time></trkpt><trkpt lat="39.2269517" lon="8.5167695"><ele>91.0</ele><time>2026-04-11T13:48:05.135Z</time></trkpt><trkpt lat="39.2270153" lon="8.5168315"><ele>91.0</ele><time>2026-04-11T13:48:06.143Z</time></trkpt><trkpt lat="39.2270928" lon="8.5169024"><ele>91.0</ele><time>2026-04-11T13:48:07.134Z</time></trkpt><trkpt lat="39.2271827" lon="8.5169783"><ele>91.0</ele><time>2026-04-11T13:48:08.15Z</time></trkpt><trkpt lat="39.2272784" lon="8.5170644"><ele>91.0</ele><time>2026-04-11T13:48:09.144Z</time></trkpt><trkpt lat="39.2273745" lon="8.5171589"><ele>91.0</ele><time>2026-04-11T13:48:10.138Z</time></trkpt><trkpt lat="39.2274539" lon="8.5172584"><ele>91.0</ele><time>2026-04-11T13:48:11.151Z</time></trkpt><trkpt lat="39.2275292" lon="8.5173483"><ele>91.0</ele><time>2026-04-11T13:48:12.134Z</time></trkpt><trkpt lat="39.2276011" lon="8.5174319"><ele>91.0</ele><time>2026-04-11T13:48:13.144Z</time></trkpt><trkpt lat="39.2276696" lon="8.5175114"><ele>91.0</ele><time>2026-04-11T13:48:14.153Z</time></trkpt><trkpt lat="39.2277344" lon="8.5175801"><ele>91.0</ele><time>2026-04-11T13:48:15.144Z</time></trkpt><trkpt lat="39.2277943" lon="8.5176468"><ele>91.0</ele><time>2026-04-11T13:48:16.154Z</time></trkpt><trkpt lat="39.2278455" lon="8.5177224"><ele>91.0</ele><time>2026-04-11T13:48:17.106Z</time></trkpt><trkpt lat="39.2278824" lon="8.517827"><ele>91.8</ele><time>2026-04-11T13:48:18.148Z</time></trkpt><trkpt lat="39.2279147" lon="8.517948"><ele>92.6</ele><time>2026-04-11T13:48:19.16Z</time></trkpt><trkpt lat="39.2279476" lon="8.5180764"><ele>93.4</ele><time>2026-04-11T13:48:20.154Z</time></trkpt><trkpt lat="39.227972" lon="8.5182004"><ele>94.2</ele><time>2026-04-11T13:48:21.124Z</time></trkpt><trkpt lat="39.2279917" lon="8.518317"><ele>95.0</ele><time>2026-04-11T13:48:22.148Z</time></trkpt><trkpt lat="39.2280007" lon="8.5184382"><ele>95.0</ele><time>2026-04-11T13:48:23.142Z</time></trkpt><trkpt lat="39.2280038" lon="8.5185691"><ele>95.0</ele><time>2026-04-11T13:48:24.136Z</time></trkpt><trkpt lat="39.2280103" lon="8.5187103"><ele>95.0</ele><time>2026-04-11T13:48:25.16Z</time></trkpt><trkpt lat="39.22802" lon="8.5188534"><ele>95.0</ele><time>2026-04-11T13:48:26.147Z</time></trkpt><trkpt lat="39.2280369" lon="8.5190068"><ele>95.0</ele><time>2026-04-11T13:48:27.091Z</time></trkpt><trkpt lat="39.2280586" lon="8.5191604"><ele>94.5</ele><time>2026-04-11T13:48:28.144Z</time></trkpt><trkpt lat="39.2280815" lon="8.5193076"><ele>94.0</ele><time>2026-04-11T13:48:29.121Z</time></trkpt><trkpt lat="39.2281092" lon="8.5194479"><ele>93.5</ele><time>2026-04-11T13:48:30.15Z</time></trkpt><trkpt lat="39.2281541" lon="8.5195721"><ele>93.0</ele><time>2026-04-11T13:48:31.131Z</time></trkpt><trkpt lat="39.2282219" lon="8.5197018"><ele>93.0</ele><time>2026-04-11T13:48:32.156Z</time></trkpt><trkpt lat="39.2282993" lon="8.5198323"><ele>93.0</ele><time>2026-04-11T13:48:33.126Z</time></trkpt><trkpt lat="39.2283837" lon="8.5199603"><ele>93.0</ele><time>2026-04-11T13:48:34.148Z</time></trkpt><trkpt lat="39.2284725" lon="8.5200905"><ele>93.0</ele><time>2026-04-11T13:48:35.148Z</time></trkpt><trkpt lat="39.2285573" lon="8.520199"><ele>93.0</ele><time>2026-04-11T13:48:36.143Z</time></trkpt><trkpt lat="39.2286284" lon="8.5202898"><ele>93.0</ele><time>2026-04-11T13:48:37.149Z</time></trkpt><trkpt lat="39.22869" lon="8.5203588"><ele>93.0</ele><time>2026-04-11T13:48:38.15Z</time></trkpt><trkpt lat="39.2287471" lon="8.520412"><ele>93.0</ele><time>2026-04-11T13:48:39.15Z</time></trkpt><trkpt lat="39.2288025" lon="8.5204534"><ele>93.0</ele><time>2026-04-11T13:48:40.148Z</time></trkpt><trkpt lat="39.2288765" lon="8.5204802"><ele>93.0</ele><time>2026-04-11T13:48:41.158Z</time></trkpt><trkpt lat="39.2289705" lon="8.5204946"><ele>93.5</ele><time>2026-04-11T13:48:42.127Z</time></trkpt><trkpt lat="39.2290683" lon="8.520516"><ele>94.0</ele><time>2026-04-11T13:48:43.147Z</time></trkpt><trkpt lat="39.2291836" lon="8.520549"><ele>94.5</ele><time>2026-04-11T13:48:44.16Z</time></trkpt><trkpt lat="39.2293097" lon="8.5205877"><ele>95.0</ele><time>2026-04-11T13:48:45.139Z</time></trkpt><trkpt lat="39.2294486" lon="8.5206283"><ele>95.0</ele><time>2026-04-11T13:48:46.16Z</time></trkpt><trkpt lat="39.2295864" lon="8.5206705"><ele>95.0</ele><time>2026-04-11T13:48:47.121Z</time></trkpt><trkpt lat="39.229726" lon="8.5207052"><ele>95.0</ele><time>2026-04-11T13:48:48.15Z</time></trkpt><trkpt lat="39.2298566" lon="8.520746"><ele>95.0</ele><time>2026-04-11T13:48:49.175Z</time></trkpt><trkpt lat="39.2299796" lon="8.5207859"><ele>95.0</ele><time>2026-04-11T13:48:50.165Z</time></trkpt><trkpt lat="39.2301006" lon="8.5208214"><ele>95.0</ele><time>2026-04-11T13:48:51.093Z</time></trkpt><trkpt lat="39.2302331" lon="8.5208566"><ele>95.0</ele><time>2026-04-11T13:48:52.11Z</time></trkpt><trkpt lat="39.2303704" lon="8.5208915"><ele>95.0</ele><time>2026-04-11T13:48:53.139Z</time></trkpt><trkpt lat="39.2305083" lon="8.5209316"><ele>95.0</ele><time>2026-04-11T13:48:54.13Z</time></trkpt><trkpt lat="39.2306373" lon="8.5209775"><ele>95.0</ele><time>2026-04-11T13:48:55.16Z</time></trkpt><trkpt lat="39.2307479" lon="8.5210533"><ele>95.0</ele><time>2026-04-11T13:48:56.14Z</time></trkpt><trkpt lat="39.2308568" lon="8.521141"><ele>95.0</ele><time>2026-04-11T13:48:57.17Z</time></trkpt><trkpt lat="39.2309793" lon="8.521234"><ele>96.25</ele><time>2026-04-11T13:48:58.143Z</time></trkpt><trkpt lat="39.2311096" lon="8.5213352"><ele>97.5</ele><time>2026-04-11T13:48:59.144Z</time></trkpt><trkpt lat="39.2312351" lon="8.5214256"><ele>98.75</ele><time>2026-04-11T13:49:00.156Z</time></trkpt><trkpt lat="39.2313432" lon="8.5215088"><ele>100.0</ele><time>2026-04-11T13:49:01.162Z</time></trkpt><trkpt lat="39.2314482" lon="8.5215869"><ele>99.2</ele><time>2026-04-11T13:49:02.17Z</time></trkpt><trkpt lat="39.2315248" lon="8.5216503"><ele>98.4</ele><time>2026-04-11T13:49:03.141Z</time></trkpt><trkpt lat="39.2315992" lon="8.5217193"><ele>97.6</ele><time>2026-04-11T13:49:04.153Z</time></trkpt><trkpt lat="39.23167" lon="8.5217629"><ele>96.8</ele><time>2026-04-11T13:49:05.151Z</time></trkpt><trkpt lat="39.2317553" lon="8.5217909"><ele>96.0</ele><time>2026-04-11T13:49:06.141Z</time></trkpt><trkpt lat="39.2318571" lon="8.5218133"><ele>96.0</ele><time>2026-04-11T13:49:07.142Z</time></trkpt><trkpt lat="39.2319567" lon="8.5218373"><ele>96.0</ele><time>2026-04-11T13:49:08.14Z</time></trkpt><trkpt lat="39.2320547" lon="8.5218639"><ele>96.0</ele><time>2026-04-11T13:49:09.13Z</time></trkpt><trkpt lat="39.2321468" lon="8.5218864"><ele>96.0</ele><time>2026-04-11T13:49:10.154Z</time></trkpt><trkpt lat="39.2322501" lon="8.5219066"><ele>96.0</ele><time>2026-04-11T13:49:11.14Z</time></trkpt><trkpt lat="39.2323616" lon="8.5219442"><ele>95.8</ele><time>2026-04-11T13:49:12.153Z</time></trkpt><trkpt lat="39.2324755" lon="8.5219718"><ele>95.6</ele><time>2026-04-11T13:49:13.137Z</time></trkpt><trkpt lat="39.2325757" lon="8.5219926"><ele>95.4</ele><time>2026-04-11T13:49:14.147Z</time></trkpt><trkpt lat="39.2326687" lon="8.5220156"><ele>95.2</ele><time>2026-04-11T13:49:15.152Z</time></trkpt><trkpt lat="39.232768" lon="8.5220328"><ele>95.0</ele><time>2026-04-11T13:49:16.152Z</time></trkpt><trkpt lat="39.2328663" lon="8.5220565"><ele>94.8</ele><time>2026-04-11T13:49:17.136Z</time></trkpt><trkpt lat="39.232968" lon="8.5220776"><ele>94.6</ele><time>2026-04-11T13:49:18.152Z</time></trkpt><trkpt lat="39.2330665" lon="8.5220823"><ele>94.4</ele><time>2026-04-11T13:49:19.152Z</time></trkpt><trkpt lat="39.2331637" lon="8.5220865"><ele>94.2</ele><time>2026-04-11T13:49:20.141Z</time></trkpt><trkpt lat="39.2332629" lon="8.5220665"><ele>94.0</ele><time>2026-04-11T13:49:21.137Z</time></trkpt><trkpt lat="39.2333784" lon="8.5220548"><ele>94.0</ele><time>2026-04-11T13:49:22.149Z</time></trkpt><trkpt lat="39.2334967" lon="8.5220384"><ele>94.0</ele><time>2026-04-11T13:49:23.144Z</time></trkpt><trkpt lat="39.233616" lon="8.5220167"><ele>94.0</ele><time>2026-04-11T13:49:24.159Z</time></trkpt><trkpt lat="39.2337297" lon="8.5219953"><ele>94.0</ele><time>2026-04-11T13:49:25.106Z</time></trkpt><trkpt lat="39.2338278" lon="8.5219708"><ele>94.0</ele><time>2026-04-11T13:49:26.149Z</time></trkpt><trkpt lat="39.2339129" lon="8.5219549"><ele>94.0</ele><time>2026-04-11T13:49:27.16Z</time></trkpt><trkpt lat="39.2339826" lon="8.5219579"><ele>94.0</ele><time>2026-04-11T13:49:28.14Z</time></trkpt><trkpt lat="39.234054" lon="8.5219599"><ele>94.0</ele><time>2026-04-11T13:49:30.154Z</time></trkpt><trkpt lat="39.2341171" lon="8.5220608"><ele>94.0</ele><time>2026-04-11T13:49:34.173Z</time></trkpt><trkpt lat="39.2341674" lon="8.5221514"><ele>94.0</ele><time>2026-04-11T13:49:36.155Z</time></trkpt><trkpt lat="39.2342134" lon="8.5222216"><ele>94.5</ele><time>2026-04-11T13:49:38.148Z</time></trkpt><trkpt lat="39.2342569" lon="8.5222938"><ele>95.0</ele><time>2026-04-11T13:49:42.148Z</time></trkpt><trkpt lat="39.2342443" lon="8.5222096"><ele>95.5</ele><time>2026-04-11T13:51:38.138Z</time></trkpt><trkpt lat="39.2341782" lon="8.5220716"><ele>96.0</ele><time>2026-04-11T13:51:40.145Z</time></trkpt><trkpt lat="39.2341163" lon="8.5219824"><ele>96.50000000000001</ele><time>2026-04-11T13:51:42.16Z</time></trkpt><trkpt lat="39.234061" lon="8.5219291"><ele>97.0</ele><time>2026-04-11T13:51:45.164Z</time></trkpt><trkpt lat="39.2339884" lon="8.5218255"><ele>96.50000000000001</ele><time>2026-04-11T13:51:52.144Z</time></trkpt><trkpt lat="39.233932" lon="8.5216989"><ele>96.0</ele><time>2026-04-11T13:51:54.13Z</time></trkpt><trkpt lat="39.2338949" lon="8.5216257"><ele>95.5</ele><time>2026-04-11T13:51:55.138Z</time></trkpt><trkpt lat="39.2338586" lon="8.5215508"><ele>95.0</ele><time>2026-04-11T13:51:56.136Z</time></trkpt><trkpt lat="39.2338188" lon="8.521484"><ele>94.5</ele><time>2026-04-11T13:51:57.142Z</time></trkpt><trkpt lat="39.2337511" lon="8.5213516"><ele>94.0</ele><time>2026-04-11T13:51:59.163Z</time></trkpt><trkpt lat="39.2337142" lon="8.5212769"><ele>94.0</ele><time>2026-04-11T13:52:00.151Z</time></trkpt><trkpt lat="39.2336719" lon="8.5211856"><ele>94.0</ele><time>2026-04-11T13:52:01.148Z</time></trkpt><trkpt lat="39.2336305" lon="8.5210864"><ele>94.0</ele><time>2026-04-11T13:52:02.156Z</time></trkpt><trkpt lat="39.2335957" lon="8.5209885"><ele>94.0</ele><time>2026-04-11T13:52:03.176Z</time></trkpt><trkpt lat="39.2335638" lon="8.5209139"><ele>94.0</ele><time>2026-04-11T13:52:04.169Z</time></trkpt><trkpt lat="39.2335303" lon="8.5208159"><ele>94.0</ele><time>2026-04-11T13:52:06.145Z</time></trkpt><trkpt lat="39.233496" lon="8.5207339"><ele>94.0</ele><time>2026-04-11T13:52:09.145Z</time></trkpt><trkpt lat="39.233473" lon="8.5206524"><ele>94.0</ele><time>2026-04-11T13:52:14.142Z</time></trkpt><trkpt lat="39.2334466" lon="8.5205572"><ele>94.0</ele><time>2026-04-11T13:52:21.156Z</time></trkpt><trkpt lat="39.2334266" lon="8.5204482"><ele>94.0</ele><time>2026-04-11T13:52:25.149Z</time></trkpt><trkpt lat="39.2334414" lon="8.5203171"><ele>94.0</ele><time>2026-04-11T13:52:27.146Z</time></trkpt><trkpt lat="39.2334144" lon="8.520228"><ele>94.0</ele><time>2026-04-11T13:52:28.144Z</time></trkpt><trkpt lat="39.2333905" lon="8.5201295"><ele>94.33333333333333</ele><time>2026-04-11T13:52:29.14Z</time></trkpt><trkpt lat="39.2333782" lon="8.5200291"><ele>94.66666666666666</ele><time>2026-04-11T13:52:30.151Z</time></trkpt><trkpt lat="39.2333653" lon="8.519941"><ele>95.0</ele><time>2026-04-11T13:52:31.157Z</time></trkpt><trkpt lat="39.2333427" lon="8.5198225"><ele>95.33333333333333</ele><time>2026-04-11T13:52:33.145Z</time></trkpt><trkpt lat="39.233324" lon="8.5197113"><ele>95.66666666666667</ele><time>2026-04-11T13:52:36.151Z</time></trkpt><trkpt lat="39.2333028" lon="8.5196285"><ele>96.0</ele><time>2026-04-11T13:52:38.122Z</time></trkpt><trkpt lat="39.2332462" lon="8.5195379"><ele>96.19999999999999</ele><time>2026-04-11T13:52:40.158Z</time></trkpt><trkpt lat="39.2331362" lon="8.5194879"><ele>96.39999999999999</ele><time>2026-04-11T13:52:42.138Z</time></trkpt><trkpt lat="39.2330738" lon="8.5194705"><ele>96.6</ele><time>2026-04-11T13:52:43.138Z</time></trkpt><trkpt lat="39.2330017" lon="8.5194412"><ele>96.8</ele><time>2026-04-11T13:52:45.158Z</time></trkpt><trkpt lat="39.2329194" lon="8.519342"><ele>97.0</ele><time>2026-04-11T13:52:48.138Z</time></trkpt><trkpt lat="39.232916" lon="8.5191961"><ele>97.0</ele><time>2026-04-11T13:52:50.113Z</time></trkpt><trkpt lat="39.2329603" lon="8.5190586"><ele>97.0</ele><time>2026-04-11T13:52:52.144Z</time></trkpt><trkpt lat="39.2329725" lon="8.5189753"><ele>97.0</ele><time>2026-04-11T13:52:53.151Z</time></trkpt><trkpt lat="39.2329992" lon="8.5188302"><ele>97.0</ele><time>2026-04-11T13:52:55.154Z</time></trkpt><trkpt lat="39.2330617" lon="8.5187066"><ele>97.0</ele><time>2026-04-11T13:52:57.108Z</time></trkpt><trkpt lat="39.2331214" lon="8.5186242"><ele>97.66666666666667</ele><time>2026-04-11T13:52:59.145Z</time></trkpt><trkpt lat="39.2331857" lon="8.5185891"><ele>98.33333333333334</ele><time>2026-04-11T13:53:01.13Z</time></trkpt><trkpt lat="39.2332602" lon="8.5185917"><ele>99.0</ele><time>2026-04-11T13:53:03.144Z</time></trkpt><trkpt lat="39.2333491" lon="8.5185895"><ele>99.66666666666666</ele><time>2026-04-11T13:53:05.146Z</time></trkpt><trkpt lat="39.233453" lon="8.5185014"><ele>100.33333333333333</ele><time>2026-04-11T13:53:07.142Z</time></trkpt><trkpt lat="39.2335062" lon="8.5184315"><ele>101.0</ele><time>2026-04-11T13:53:08.153Z</time></trkpt><trkpt lat="39.2335544" lon="8.518343"><ele>100.99999999999999</ele><time>2026-04-11T13:53:09.14Z</time></trkpt><trkpt lat="39.2335834" lon="8.5182536"><ele>101.0</ele><time>2026-04-11T13:53:10.147Z</time></trkpt><trkpt lat="39.233596" lon="8.5181539"><ele>101.0</ele><time>2026-04-11T13:53:11.154Z</time></trkpt><trkpt lat="39.2336098" lon="8.5180501"><ele>101.0</ele><time>2026-04-11T13:53:12.148Z</time></trkpt><trkpt lat="39.233632" lon="8.5179452"><ele>100.99999999999999</ele><time>2026-04-11T13:53:13.145Z</time></trkpt><trkpt lat="39.2336747" lon="8.5178402"><ele>101.0</ele><time>2026-04-11T13:53:14.14Z</time></trkpt><trkpt lat="39.2337168" lon="8.5177451"><ele>101.16666666666666</ele><time>2026-04-11T13:53:15.152Z</time></trkpt><trkpt lat="39.2337733" lon="8.5176812"><ele>101.33333333333333</ele><time>2026-04-11T13:53:16.134Z</time></trkpt><trkpt lat="39.2338288" lon="8.5176367"><ele>101.5</ele><time>2026-04-11T13:53:17.136Z</time></trkpt><trkpt lat="39.2338742" lon="8.5175786"><ele>101.66666666666666</ele><time>2026-04-11T13:53:18.143Z</time></trkpt><trkpt lat="39.233934" lon="8.5174854"><ele>101.83333333333333</ele><time>2026-04-11T13:53:19.147Z</time></trkpt><trkpt lat="39.233979" lon="8.5173774"><ele>102.0</ele><time>2026-04-11T13:53:20.135Z</time></trkpt><trkpt lat="39.2340313" lon="8.5172857"><ele>102.0</ele><time>2026-04-11T13:53:21.145Z</time></trkpt><trkpt lat="39.2340818" lon="8.5171972"><ele>102.0</ele><time>2026-04-11T13:53:22.153Z</time></trkpt><trkpt lat="39.2341298" lon="8.5171042"><ele>102.0</ele><time>2026-04-11T13:53:23.132Z</time></trkpt><trkpt lat="39.2341874" lon="8.5170166"><ele>102.0</ele><time>2026-04-11T13:53:24.138Z</time></trkpt><trkpt lat="39.2342566" lon="8.5169388"><ele>102.0</ele><time>2026-04-11T13:53:25.139Z</time></trkpt><trkpt lat="39.2343182" lon="8.5168672"><ele>102.0</ele><time>2026-04-11T13:53:26.135Z</time></trkpt><trkpt lat="39.2343882" lon="8.5168103"><ele>101.83333333333333</ele><time>2026-04-11T13:53:27.15Z</time></trkpt><trkpt lat="39.234451" lon="8.5167511"><ele>101.66666666666666</ele><time>2026-04-11T13:53:28.143Z</time></trkpt><trkpt lat="39.2345102" lon="8.5166906"><ele>101.5</ele><time>2026-04-11T13:53:29.123Z</time></trkpt><trkpt lat="39.2345656" lon="8.5166303"><ele>101.33333333333333</ele><time>2026-04-11T13:53:30.152Z</time></trkpt><trkpt lat="39.2346221" lon="8.5165242"><ele>101.16666666666666</ele><time>2026-04-11T13:53:31.12Z</time></trkpt><trkpt lat="39.2346979" lon="8.516414"><ele>101.0</ele><time>2026-04-11T13:53:32.133Z</time></trkpt><trkpt lat="39.2347343" lon="8.516315"><ele>100.66666666666666</ele><time>2026-04-11T13:53:34.138Z</time></trkpt><trkpt lat="39.2347854" lon="8.5162214"><ele>100.33333333333333</ele><time>2026-04-11T13:53:35.141Z</time></trkpt><trkpt lat="39.2348053" lon="8.5161421"><ele>100.0</ele><time>2026-04-11T13:53:36.127Z</time></trkpt><trkpt lat="39.2348562" lon="8.5160707"><ele>99.66666666666666</ele><time>2026-04-11T13:53:37.142Z</time></trkpt><trkpt lat="39.2348861" lon="8.5159687"><ele>99.33333333333333</ele><time>2026-04-11T13:53:38.15Z</time></trkpt><trkpt lat="39.2349071" lon="8.5158801"><ele>99.0</ele><time>2026-04-11T13:53:39.152Z</time></trkpt><trkpt lat="39.2349251" lon="8.5157817"><ele>99.5</ele><time>2026-04-11T13:53:40.147Z</time></trkpt><trkpt lat="39.234939" lon="8.515699"><ele>100.0</ele><time>2026-04-11T13:53:41.128Z</time></trkpt><trkpt lat="39.2349437" lon="8.5156068"><ele>100.5</ele><time>2026-04-11T13:53:42.146Z</time></trkpt><trkpt lat="39.234941" lon="8.5155254"><ele>101.0</ele><time>2026-04-11T13:53:43.161Z</time></trkpt><trkpt lat="39.2349467" lon="8.515391"><ele>101.5</ele><time>2026-04-11T13:53:45.143Z</time></trkpt><trkpt lat="39.234981" lon="8.515291"><ele>102.0</ele><time>2026-04-11T13:53:48.152Z</time></trkpt><trkpt lat="39.2350381" lon="8.5152344"><ele>102.0</ele><time>2026-04-11T13:53:52.138Z</time></trkpt><trkpt lat="39.2351187" lon="8.5152023"><ele>102.0</ele><time>2026-04-11T13:53:56.136Z</time></trkpt><trkpt lat="39.2352156" lon="8.5151793"><ele>102.0</ele><time>2026-04-11T13:53:58.144Z</time></trkpt><trkpt lat="39.235281" lon="8.5151529"><ele>102.0</ele><time>2026-04-11T13:53:59.14Z</time></trkpt><trkpt lat="39.2353622" lon="8.5151009"><ele>102.0</ele><time>2026-04-11T13:54:00.156Z</time></trkpt><trkpt lat="39.2354537" lon="8.5150525"><ele>102.0</ele><time>2026-04-11T13:54:01.151Z</time></trkpt><trkpt lat="39.2355211" lon="8.5149994"><ele>102.0</ele><time>2026-04-11T13:54:02.158Z</time></trkpt><trkpt lat="39.2355898" lon="8.5149464"><ele>102.0</ele><time>2026-04-11T13:54:04.095Z</time></trkpt><trkpt lat="39.2356644" lon="8.5149396"><ele>102.0</ele><time>2026-04-11T13:54:51.144Z</time></trkpt><trkpt lat="39.2357338" lon="8.5149567"><ele>102.0</ele><time>2026-04-11T13:54:55.158Z</time></trkpt><trkpt lat="39.2358155" lon="8.514993"><ele>102.0</ele><time>2026-04-11T13:55:25.156Z</time></trkpt><trkpt lat="39.2358732" lon="8.515029"><ele>102.0</ele><time>2026-04-11T13:55:27.144Z</time></trkpt><trkpt lat="39.235945" lon="8.5150759"><ele>102.19999999999999</ele><time>2026-04-11T13:55:29.14Z</time></trkpt><trkpt lat="39.2360215" lon="8.5151213"><ele>102.4</ele><time>2026-04-11T13:55:31.138Z</time></trkpt><trkpt lat="39.2360887" lon="8.5151593"><ele>102.6</ele><time>2026-04-11T13:55:33.143Z</time></trkpt><trkpt lat="39.2361829" lon="8.5152214"><ele>102.80000000000001</ele><time>2026-04-11T13:55:35.146Z</time></trkpt><trkpt lat="39.2362811" lon="8.5152833"><ele>103.0</ele><time>2026-04-11T13:55:37.148Z</time></trkpt><trkpt lat="39.2363831" lon="8.5153413"><ele>104.0</ele><time>2026-04-11T13:55:39.143Z</time></trkpt><trkpt lat="39.2364867" lon="8.5153935"><ele>105.0</ele><time>2026-04-11T13:55:41.149Z</time></trkpt><trkpt lat="39.2365748" lon="8.5154554"><ele>106.00000000000001</ele><time>2026-04-11T13:55:43.133Z</time></trkpt><trkpt lat="39.2366673" lon="8.5155114"><ele>107.0</ele><time>2026-04-11T13:55:45.153Z</time></trkpt><trkpt lat="39.2367851" lon="8.5155545"><ele>108.0</ele><time>2026-04-11T13:55:47.144Z</time></trkpt><trkpt lat="39.2368955" lon="8.5156126"><ele>108.71428571428571</ele><time>2026-04-11T13:55:49.152Z</time></trkpt><trkpt lat="39.2369604" lon="8.51564"><ele>109.42857142857142</ele><time>2026-04-11T13:55:50.169Z</time></trkpt><trkpt lat="39.237029" lon="8.5156708"><ele>110.14285714285714</ele><time>2026-04-11T13:55:51.136Z</time></trkpt><trkpt lat="39.2370964" lon="8.5157101"><ele>110.85714285714286</ele><time>2026-04-11T13:55:52.145Z</time></trkpt><trkpt lat="39.2371656" lon="8.5157541"><ele>111.57142857142857</ele><time>2026-04-11T13:55:53.141Z</time></trkpt><trkpt lat="39.2372352" lon="8.515801"><ele>112.28571428571429</ele><time>2026-04-11T13:55:54.129Z</time></trkpt><trkpt lat="39.2372971" lon="8.5158422"><ele>113.0</ele><time>2026-04-11T13:55:55.142Z</time></trkpt><trkpt lat="39.2373565" lon="8.51588"><ele>114.33333333333333</ele><time>2026-04-11T13:55:56.13Z</time></trkpt><trkpt lat="39.2374194" lon="8.5159283"><ele>115.66666666666666</ele><time>2026-04-11T13:55:57.14Z</time></trkpt><trkpt lat="39.2374958" lon="8.5159797"><ele>117.0</ele><time>2026-04-11T13:55:58.138Z</time></trkpt><trkpt lat="39.2375666" lon="8.5160278"><ele>118.33333333333334</ele><time>2026-04-11T13:55:59.165Z</time></trkpt><trkpt lat="39.2376519" lon="8.5160868"><ele>119.66666666666667</ele><time>2026-04-11T13:56:01.148Z</time></trkpt><trkpt lat="39.2377326" lon="8.5161472"><ele>121.0</ele><time>2026-04-11T13:56:03.137Z</time></trkpt><trkpt lat="39.237826" lon="8.5162209"><ele>120.50000000000001</ele><time>2026-04-11T13:56:05.159Z</time></trkpt><trkpt lat="39.2379382" lon="8.5162997"><ele>120.0</ele><time>2026-04-11T13:56:07.136Z</time></trkpt><trkpt lat="39.2380028" lon="8.5163362"><ele>119.5</ele><time>2026-04-11T13:56:08.143Z</time></trkpt><trkpt lat="39.2380643" lon="8.5163772"><ele>119.0</ele><time>2026-04-11T13:56:09.163Z</time></trkpt><trkpt lat="39.2381257" lon="8.5164171"><ele>118.50000000000001</ele><time>2026-04-11T13:56:10.142Z</time></trkpt><trkpt lat="39.2381862" lon="8.5164615"><ele>118.0</ele><time>2026-04-11T13:56:11.132Z</time></trkpt><trkpt lat="39.2382865" lon="8.5165549"><ele>116.80000000000001</ele><time>2026-04-11T13:56:13.115Z</time></trkpt><trkpt lat="39.2383834" lon="8.5166242"><ele>115.60000000000001</ele><time>2026-04-11T13:56:15.155Z</time></trkpt><trkpt lat="39.2384721" lon="8.5167176"><ele>114.39999999999999</ele><time>2026-04-11T13:56:17.142Z</time></trkpt><trkpt lat="39.2385715" lon="8.5167821"><ele>113.19999999999999</ele><time>2026-04-11T13:56:19.143Z</time></trkpt><trkpt lat="39.2386701" lon="8.5168333"><ele>112.0</ele><time>2026-04-11T13:56:21.163Z</time></trkpt><trkpt lat="39.2387455" lon="8.5168925"><ele>112.0</ele><time>2026-04-11T13:56:23.146Z</time></trkpt><trkpt lat="39.2388675" lon="8.5168647"><ele>111.99999999999999</ele><time>2026-04-11T13:56:26.139Z</time></trkpt><trkpt lat="39.2389452" lon="8.5167996"><ele>111.99999999999999</ele><time>2026-04-11T13:56:27.154Z</time></trkpt><trkpt lat="39.2390077" lon="8.5167558"><ele>112.0</ele><time>2026-04-11T13:56:28.14Z</time></trkpt><trkpt lat="39.2391023" lon="8.5166945"><ele>112.0</ele><time>2026-04-11T13:56:30.15Z</time></trkpt><trkpt lat="39.2391854" lon="8.5165757"><ele>111.66666666666667</ele><time>2026-04-11T13:56:32.127Z</time></trkpt><trkpt lat="39.23923" lon="8.516504"><ele>111.33333333333334</ele><time>2026-04-11T13:56:33.154Z</time></trkpt><trkpt lat="39.2392665" lon="8.5164287"><ele>111.0</ele><time>2026-04-11T13:56:34.139Z</time></trkpt><trkpt lat="39.2393151" lon="8.5163071"><ele>110.66666666666666</ele><time>2026-04-11T13:56:36.146Z</time></trkpt><trkpt lat="39.2393508" lon="8.5162361"><ele>110.33333333333333</ele><time>2026-04-11T13:56:37.142Z</time></trkpt><trkpt lat="39.2393883" lon="8.5161445"><ele>110.0</ele><time>2026-04-11T13:56:38.15Z</time></trkpt><trkpt lat="39.2394298" lon="8.5160622"><ele>110.0</ele><time>2026-04-11T13:56:39.141Z</time></trkpt><trkpt lat="39.239496" lon="8.5159518"><ele>110.0</ele><time>2026-04-11T13:56:41.14Z</time></trkpt><trkpt lat="39.2395689" lon="8.5158608"><ele>110.0</ele><time>2026-04-11T13:56:43.133Z</time></trkpt><trkpt lat="39.2396111" lon="8.5157876"><ele>110.0</ele><time>2026-04-11T13:56:44.14Z</time></trkpt><trkpt lat="39.239656" lon="8.5156751"><ele>110.0</ele><time>2026-04-11T13:56:45.149Z</time></trkpt><trkpt lat="39.2396911" lon="8.5155514"><ele>109.99999999999999</ele><time>2026-04-11T13:56:46.118Z</time></trkpt><trkpt lat="39.2397288" lon="8.5154406"><ele>110.0</ele><time>2026-04-11T13:56:47.134Z</time></trkpt><trkpt lat="39.2397672" lon="8.5153537"><ele>110.0</ele><time>2026-04-11T13:56:48.132Z</time></trkpt><trkpt lat="39.2398045" lon="8.5152572"><ele>110.0</ele><time>2026-04-11T13:56:49.155Z</time></trkpt><trkpt lat="39.2398501" lon="8.5151558"><ele>109.99999999999999</ele><time>2026-04-11T13:56:50.091Z</time></trkpt><trkpt lat="39.2399009" lon="8.5150546"><ele>110.0</ele><time>2026-04-11T13:56:51.133Z</time></trkpt><trkpt lat="39.2399527" lon="8.5149467"><ele>110.2</ele><time>2026-04-11T13:56:52.086Z</time></trkpt><trkpt lat="39.2399943" lon="8.5148523"><ele>110.4</ele><time>2026-04-11T13:56:53.148Z</time></trkpt><trkpt lat="39.2400281" lon="8.5147808"><ele>110.6</ele><time>2026-04-11T13:56:54.117Z</time></trkpt><trkpt lat="39.2400483" lon="8.5146465"><ele>110.8</ele><time>2026-04-11T13:56:56.117Z</time></trkpt><trkpt lat="39.2400752" lon="8.5145156"><ele>111.0</ele><time>2026-04-11T13:56:58.153Z</time></trkpt><trkpt lat="39.240091" lon="8.5143976"><ele>111.33333333333333</ele><time>2026-04-11T13:57:00.155Z</time></trkpt><trkpt lat="39.2401118" lon="8.5143095"><ele>111.66666666666666</ele><time>2026-04-11T13:57:02.153Z</time></trkpt><trkpt lat="39.2401121" lon="8.5142099"><ele>112.0</ele><time>2026-04-11T13:57:04.159Z</time></trkpt><trkpt lat="39.2401308" lon="8.5140746"><ele>112.33333333333333</ele><time>2026-04-11T13:57:06.142Z</time></trkpt><trkpt lat="39.2401361" lon="8.5139905"><ele>112.66666666666666</ele><time>2026-04-11T13:57:07.135Z</time></trkpt><trkpt lat="39.2401343" lon="8.5138481"><ele>113.0</ele><time>2026-04-11T13:57:09.145Z</time></trkpt><trkpt lat="39.2401398" lon="8.513726"><ele>114.2</ele><time>2026-04-11T13:57:11.148Z</time></trkpt><trkpt lat="39.240172" lon="8.5136032"><ele>115.4</ele><time>2026-04-11T13:57:13.137Z</time></trkpt><trkpt lat="39.2401795" lon="8.5134997"><ele>116.60000000000001</ele><time>2026-04-11T13:57:21.148Z</time></trkpt><trkpt lat="39.2401383" lon="8.5133852"><ele>117.80000000000001</ele><time>2026-04-11T13:57:23.134Z</time></trkpt><trkpt lat="39.2400701" lon="8.5132768"><ele>119.0</ele><time>2026-04-11T13:57:25.144Z</time></trkpt><trkpt lat="39.2400017" lon="8.5131804"><ele>118.99999999999999</ele><time>2026-04-11T13:57:27.148Z</time></trkpt><trkpt lat="39.239953" lon="8.5130966"><ele>119.0</ele><time>2026-04-11T13:57:29.133Z</time></trkpt><trkpt lat="39.2398973" lon="8.5130439"><ele>119.0</ele><time>2026-04-11T13:57:31.16Z</time></trkpt><trkpt lat="39.2398499" lon="8.5129508"><ele>119.0</ele><time>2026-04-11T13:58:00.13Z</time></trkpt><trkpt lat="39.2398001" lon="8.512892"><ele>118.99999999999999</ele><time>2026-04-11T13:58:03.144Z</time></trkpt><trkpt lat="39.2397255" lon="8.5127928"><ele>119.0</ele><time>2026-04-11T13:58:06.136Z</time></trkpt><trkpt lat="39.239634" lon="8.5126786"><ele>121.66666666666666</ele><time>2026-04-11T13:58:08.14Z</time></trkpt><trkpt lat="39.2395806" lon="8.5126131"><ele>124.33333333333333</ele><time>2026-04-11T13:58:09.141Z</time></trkpt><trkpt lat="39.2395331" lon="8.5125421"><ele>127.0</ele><time>2026-04-11T13:58:10.151Z</time></trkpt><trkpt lat="39.2394857" lon="8.5124741"><ele>129.66666666666666</ele><time>2026-04-11T13:58:11.14Z</time></trkpt><trkpt lat="39.2394148" lon="8.5123592"><ele>132.33333333333334</ele><time>2026-04-11T13:58:13.12Z</time></trkpt><trkpt lat="39.2393423" lon="8.5122742"><ele>135.0</ele><time>2026-04-11T13:58:15.124Z</time></trkpt><trkpt lat="39.2392956" lon="8.5121973"><ele>135.0</ele><time>2026-04-11T13:58:19.15Z</time></trkpt><trkpt lat="39.239261" lon="8.5120994"><ele>135.0</ele><time>2026-04-11T13:58:23.143Z</time></trkpt><trkpt lat="39.2391929" lon="8.512019"><ele>135.0</ele><time>2026-04-11T13:58:25.149Z</time></trkpt><trkpt lat="39.2391407" lon="8.5119529"><ele>135.0</ele><time>2026-04-11T13:58:26.157Z</time></trkpt><trkpt lat="39.2390719" lon="8.5118912"><ele>135.0</ele><time>2026-04-11T13:58:27.149Z</time></trkpt><trkpt lat="39.2390142" lon="8.511817"><ele>135.0</ele><time>2026-04-11T13:58:28.147Z</time></trkpt><trkpt lat="39.2389545" lon="8.5117336"><ele>132.16666666666666</ele><time>2026-04-11T13:58:29.14Z</time></trkpt><trkpt lat="39.2389043" lon="8.511658"><ele>129.33333333333334</ele><time>2026-04-11T13:58:30.097Z</time></trkpt><trkpt lat="39.2388624" lon="8.5115907"><ele>126.5</ele><time>2026-04-11T13:58:31.102Z</time></trkpt><trkpt lat="39.2388131" lon="8.5115196"><ele>123.66666666666667</ele><time>2026-04-11T13:58:32.134Z</time></trkpt><trkpt lat="39.238762" lon="8.5114441"><ele>120.83333333333334</ele><time>2026-04-11T13:58:33.132Z</time></trkpt><trkpt lat="39.2386923" lon="8.5113291"><ele>118.0</ele><time>2026-04-11T13:58:35.14Z</time></trkpt><trkpt lat="39.2386278" lon="8.5112499"><ele>118.42857142857142</ele><time>2026-04-11T13:58:37.129Z</time></trkpt><trkpt lat="39.2385714" lon="8.5111672"><ele>118.85714285714286</ele><time>2026-04-11T13:58:39.136Z</time></trkpt><trkpt lat="39.2385266" lon="8.5111096"><ele>119.28571428571428</ele><time>2026-04-11T13:58:40.115Z</time></trkpt><trkpt lat="39.2384764" lon="8.5110574"><ele>119.71428571428571</ele><time>2026-04-11T13:58:41.133Z</time></trkpt><trkpt lat="39.2384199" lon="8.5109908"><ele>120.14285714285714</ele><time>2026-04-11T13:58:42.138Z</time></trkpt><trkpt lat="39.2383715" lon="8.5109251"><ele>120.57142857142857</ele><time>2026-04-11T13:58:43.147Z</time></trkpt><trkpt lat="39.2383258" lon="8.5108636"><ele>121.0</ele><time>2026-04-11T13:58:44.134Z</time></trkpt><trkpt lat="39.2382823" lon="8.5107984"><ele>121.0</ele><time>2026-04-11T13:58:45.146Z</time></trkpt><trkpt lat="39.2382397" lon="8.5107372"><ele>120.99999999999999</ele><time>2026-04-11T13:58:46.116Z</time></trkpt><trkpt lat="39.2381938" lon="8.510678"><ele>121.0</ele><time>2026-04-11T13:58:47.132Z</time></trkpt><trkpt lat="39.2381419" lon="8.5106124"><ele>121.0</ele><time>2026-04-11T13:58:48.14Z</time></trkpt><trkpt lat="39.2380871" lon="8.5105331"><ele>120.99999999999999</ele><time>2026-04-11T13:58:49.144Z</time></trkpt><trkpt lat="39.2380371" lon="8.5104654"><ele>121.0</ele><time>2026-04-11T13:58:50.145Z</time></trkpt><trkpt lat="39.2379698" lon="8.5103854"><ele>121.0</ele><time>2026-04-11T13:58:51.145Z</time></trkpt><trkpt lat="39.2378979" lon="8.5103007"><ele>119.50000000000001</ele><time>2026-04-11T13:58:52.14Z</time></trkpt><trkpt lat="39.2378359" lon="8.5102316"><ele>118.0</ele><time>2026-04-11T13:58:53.144Z</time></trkpt><trkpt lat="39.23779" lon="8.5101585"><ele>116.5</ele><time>2026-04-11T13:58:54.154Z</time></trkpt><trkpt lat="39.2377386" lon="8.5100785"><ele>115.0</ele><time>2026-04-11T13:58:55.156Z</time></trkpt><trkpt lat="39.2376896" lon="8.5100023"><ele>113.50000000000001</ele><time>2026-04-11T13:58:56.155Z</time></trkpt><trkpt lat="39.2376481" lon="8.5099311"><ele>112.0</ele><time>2026-04-11T13:58:57.161Z</time></trkpt><trkpt lat="39.2375895" lon="8.5098352"><ele>112.00000000000001</ele><time>2026-04-11T13:58:59.148Z</time></trkpt><trkpt lat="39.2375443" lon="8.5097618"><ele>112.0</ele><time>2026-04-11T13:59:01.168Z</time></trkpt><trkpt lat="39.2374782" lon="8.5097083"><ele>112.0</ele><time>2026-04-11T13:59:04.148Z</time></trkpt><trkpt lat="39.2374296" lon="8.5096333"><ele>112.0</ele><time>2026-04-11T13:59:42.136Z</time></trkpt><trkpt lat="39.2373729" lon="8.5095099"><ele>112.00000000000001</ele><time>2026-04-11T13:59:44.141Z</time></trkpt><trkpt lat="39.2373336" lon="8.5094387"><ele>112.0</ele><time>2026-04-11T13:59:45.125Z</time></trkpt><trkpt lat="39.2372728" lon="8.5093705"><ele>112.6</ele><time>2026-04-11T13:59:46.115Z</time></trkpt><trkpt lat="39.2372" lon="8.509283"><ele>113.19999999999999</ele><time>2026-04-11T13:59:47.136Z</time></trkpt><trkpt lat="39.2371264" lon="8.509184"><ele>113.8</ele><time>2026-04-11T13:59:48.143Z</time></trkpt><trkpt lat="39.2370593" lon="8.5090954"><ele>114.4</ele><time>2026-04-11T13:59:49.145Z</time></trkpt><trkpt lat="39.2370093" lon="8.5090136"><ele>115.0</ele><time>2026-04-11T13:59:50.154Z</time></trkpt><trkpt lat="39.2369647" lon="8.508939"><ele>115.00000000000001</ele><time>2026-04-11T13:59:51.139Z</time></trkpt><trkpt lat="39.2369032" lon="8.5088577"><ele>115.0</ele><time>2026-04-11T13:59:52.158Z</time></trkpt><trkpt lat="39.2368476" lon="8.5087794"><ele>115.0</ele><time>2026-04-11T13:59:53.135Z</time></trkpt><trkpt lat="39.2367828" lon="8.5086791"><ele>115.0</ele><time>2026-04-11T13:59:54.149Z</time></trkpt><trkpt lat="39.2367325" lon="8.508592"><ele>115.00000000000001</ele><time>2026-04-11T13:59:55.15Z</time></trkpt><trkpt lat="39.2366828" lon="8.5085206"><ele>115.0</ele><time>2026-04-11T13:59:56.134Z</time></trkpt><trkpt lat="39.2366265" lon="8.5084641"><ele>114.66666666666667</ele><time>2026-04-11T13:59:57.151Z</time></trkpt><trkpt lat="39.2365701" lon="8.5084027"><ele>114.33333333333334</ele><time>2026-04-11T13:59:58.134Z</time></trkpt><trkpt lat="39.236488" lon="8.5083179"><ele>114.0</ele><time>2026-04-11T14:00:00.141Z</time></trkpt><trkpt lat="39.2364224" lon="8.5082316"><ele>113.66666666666666</ele><time>2026-04-11T14:00:02.152Z</time></trkpt><trkpt lat="39.2363816" lon="8.5081617"><ele>113.33333333333333</ele><time>2026-04-11T14:00:03.157Z</time></trkpt><trkpt lat="39.2363314" lon="8.5080792"><ele>113.0</ele><time>2026-04-11T14:00:04.152Z</time></trkpt><trkpt lat="39.2362771" lon="8.5079781"><ele>114.16666666666666</ele><time>2026-04-11T14:00:05.162Z</time></trkpt><trkpt lat="39.2362329" lon="8.5078904"><ele>115.33333333333333</ele><time>2026-04-11T14:00:06.144Z</time></trkpt><trkpt lat="39.2361859" lon="8.5078298"><ele>116.5</ele><time>2026-04-11T14:00:07.162Z</time></trkpt><trkpt lat="39.2361179" lon="8.5077651"><ele>117.66666666666666</ele><time>2026-04-11T14:00:09.14Z</time></trkpt><trkpt lat="39.2360591" lon="8.5076683"><ele>118.83333333333333</ele><time>2026-04-11T14:00:11.116Z</time></trkpt><trkpt lat="39.2360231" lon="8.5075659"><ele>120.0</ele><time>2026-04-11T14:00:13.144Z</time></trkpt><trkpt lat="39.2360228" lon="8.5074751"><ele>120.0</ele><time>2026-04-11T14:00:15.136Z</time></trkpt><trkpt lat="39.2360952" lon="8.507372"><ele>120.0</ele><time>2026-04-11T14:00:17.15Z</time></trkpt><trkpt lat="39.2361769" lon="8.5072855"><ele>120.0</ele><time>2026-04-11T14:00:18.16Z</time></trkpt><trkpt lat="39.2362657" lon="8.5071919"><ele>120.0</ele><time>2026-04-11T14:00:19.137Z</time></trkpt><trkpt lat="39.2363398" lon="8.5070959"><ele>120.0</ele><time>2026-04-11T14:00:20.099Z</time></trkpt><trkpt lat="39.2364301" lon="8.507"><ele>117.75</ele><time>2026-04-11T14:00:21.129Z</time></trkpt><trkpt lat="39.236528" lon="8.5069048"><ele>115.5</ele><time>2026-04-11T14:00:22.152Z</time></trkpt><trkpt lat="39.2366356" lon="8.5068054"><ele>113.25</ele><time>2026-04-11T14:00:23.149Z</time></trkpt><trkpt lat="39.2367413" lon="8.5067038"><ele>111.0</ele><time>2026-04-11T14:00:24.14Z</time></trkpt><trkpt lat="39.2368498" lon="8.5066211"><ele>111.0</ele><time>2026-04-11T14:00:25.122Z</time></trkpt><trkpt lat="39.2369467" lon="8.5065364"><ele>111.0</ele><time>2026-04-11T14:00:26.147Z</time></trkpt><trkpt lat="39.2370434" lon="8.5064413"><ele>111.0</ele><time>2026-04-11T14:00:27.157Z</time></trkpt><trkpt lat="39.2371486" lon="8.506353"><ele>111.0</ele><time>2026-04-11T14:00:28.138Z</time></trkpt><trkpt lat="39.2372537" lon="8.5062564"><ele>111.75</ele><time>2026-04-11T14:00:29.141Z</time></trkpt><trkpt lat="39.2373667" lon="8.5061511"><ele>112.5</ele><time>2026-04-11T14:00:30.148Z</time></trkpt><trkpt lat="39.2374752" lon="8.5060635"><ele>113.25</ele><time>2026-04-11T14:00:31.15Z</time></trkpt><trkpt lat="39.2375737" lon="8.5059797"><ele>114.0</ele><time>2026-04-11T14:00:32.148Z</time></trkpt><trkpt lat="39.2376592" lon="8.5058851"><ele>114.0</ele><time>2026-04-11T14:00:33.133Z</time></trkpt><trkpt lat="39.2377332" lon="8.505808"><ele>114.0</ele><time>2026-04-11T14:00:34.132Z</time></trkpt><trkpt lat="39.2378113" lon="8.5057289"><ele>114.0</ele><time>2026-04-11T14:00:35.158Z</time></trkpt><trkpt lat="39.23789" lon="8.5056594"><ele>114.0</ele><time>2026-04-11T14:00:36.148Z</time></trkpt><trkpt lat="39.2379675" lon="8.5055909"><ele>114.0</ele><time>2026-04-11T14:00:37.164Z</time></trkpt><trkpt lat="39.2380551" lon="8.5055266"><ele>115.0</ele><time>2026-04-11T14:00:38.151Z</time></trkpt><trkpt lat="39.238155" lon="8.5054508"><ele>116.0</ele><time>2026-04-11T14:00:39.124Z</time></trkpt><trkpt lat="39.2382524" lon="8.5053582"><ele>117.0</ele><time>2026-04-11T14:00:40.147Z</time></trkpt><trkpt lat="39.238347" lon="8.5052651"><ele>118.0</ele><time>2026-04-11T14:00:41.148Z</time></trkpt><trkpt lat="39.2384412" lon="8.5051847"><ele>118.00000000000001</ele><time>2026-04-11T14:00:42.146Z</time></trkpt><trkpt lat="39.2385254" lon="8.5051048"><ele>118.0</ele><time>2026-04-11T14:00:43.101Z</time></trkpt><trkpt lat="39.2385994" lon="8.5050298"><ele>118.0</ele><time>2026-04-11T14:00:44.148Z</time></trkpt><trkpt lat="39.2386644" lon="8.5049749"><ele>118.0</ele><time>2026-04-11T14:00:45.141Z</time></trkpt><trkpt lat="39.2387166" lon="8.5048978"><ele>118.00000000000001</ele><time>2026-04-11T14:00:47.138Z</time></trkpt><trkpt lat="39.2387539" lon="8.5048157"><ele>118.0</ele><time>2026-04-11T14:00:50.136Z</time></trkpt><trkpt lat="39.2386868" lon="8.5048038"><ele>118.0</ele><time>2026-04-11T14:01:40.139Z</time></trkpt><trkpt lat="39.2386266" lon="8.5048928"><ele>118.00000000000001</ele><time>2026-04-11T14:01:42.156Z</time></trkpt><trkpt lat="39.238543" lon="8.5049569"><ele>118.00000000000001</ele><time>2026-04-11T14:01:44.138Z</time></trkpt><trkpt lat="39.2384415" lon="8.5049769"><ele>118.0</ele><time>2026-04-11T14:01:46.142Z</time></trkpt><trkpt lat="39.2383473" lon="8.5049579"><ele>118.0</ele><time>2026-04-11T14:01:48.157Z</time></trkpt><trkpt lat="39.2382944" lon="8.5050182"><ele>118.00000000000001</ele><time>2026-04-11T14:01:50.121Z</time></trkpt><trkpt lat="39.2382622" lon="8.5051108"><ele>118.0</ele><time>2026-04-11T14:01:52.13Z</time></trkpt><trkpt lat="39.2381925" lon="8.5051647"><ele>118.0</ele><time>2026-04-11T14:01:54.131Z</time></trkpt><trkpt lat="39.2380923" lon="8.505167"><ele>118.0</ele><time>2026-04-11T14:01:56.14Z</time></trkpt><trkpt lat="39.2380032" lon="8.5051609"><ele>118.00000000000001</ele><time>2026-04-11T14:01:58.142Z</time></trkpt><trkpt lat="39.2379286" lon="8.5051655"><ele>118.0</ele><time>2026-04-11T14:02:00.143Z</time></trkpt><trkpt lat="39.2378319" lon="8.5051819"><ele>118.2</ele><time>2026-04-11T14:02:02.147Z</time></trkpt><trkpt lat="39.2377236" lon="8.505209"><ele>118.4</ele><time>2026-04-11T14:02:04.138Z</time></trkpt><trkpt lat="39.2376187" lon="8.5052517"><ele>118.60000000000001</ele><time>2026-04-11T14:02:06.143Z</time></trkpt><trkpt lat="39.2375344" lon="8.5053265"><ele>118.80000000000001</ele><time>2026-04-11T14:02:08.138Z</time></trkpt><trkpt lat="39.2374718" lon="8.5054082"><ele>119.0</ele><time>2026-04-11T14:02:10.142Z</time></trkpt><trkpt lat="39.2373952" lon="8.505497"><ele>118.16666666666666</ele><time>2026-04-11T14:02:12.125Z</time></trkpt><trkpt lat="39.2373047" lon="8.5055143"><ele>117.33333333333333</ele><time>2026-04-11T14:02:14.143Z</time></trkpt><trkpt lat="39.2372301" lon="8.5055852"><ele>116.5</ele><time>2026-04-11T14:02:16.128Z</time></trkpt><trkpt lat="39.2371824" lon="8.5056869"><ele>115.66666666666666</ele><time>2026-04-11T14:02:18.126Z</time></trkpt><trkpt lat="39.2371496" lon="8.5057726"><ele>114.83333333333333</ele><time>2026-04-11T14:02:20.112Z</time></trkpt><trkpt lat="39.2370946" lon="8.5058127"><ele>114.0</ele><time>2026-04-11T14:02:21.132Z</time></trkpt><trkpt lat="39.2369913" lon="8.5058968"><ele>114.0</ele><time>2026-04-11T14:02:23.128Z</time></trkpt><trkpt lat="39.2369274" lon="8.5060376"><ele>114.0</ele><time>2026-04-11T14:02:25.138Z</time></trkpt><trkpt lat="39.2368811" lon="8.5061889"><ele>114.0</ele><time>2026-04-11T14:02:27.165Z</time></trkpt><trkpt lat="39.2368283" lon="8.5063357"><ele>114.0</ele><time>2026-04-11T14:02:29.133Z</time></trkpt><trkpt lat="39.236774" lon="8.5064501"><ele>114.4</ele><time>2026-04-11T14:02:31.145Z</time></trkpt><trkpt lat="39.236687" lon="8.5065328"><ele>114.80000000000001</ele><time>2026-04-11T14:02:33.147Z</time></trkpt><trkpt lat="39.2365878" lon="8.5065895"><ele>115.19999999999999</ele><time>2026-04-11T14:02:35.131Z</time></trkpt><trkpt lat="39.2365005" lon="8.5065713"><ele>115.6</ele><time>2026-04-11T14:02:37.143Z</time></trkpt><trkpt lat="39.2364306" lon="8.5064653"><ele>116.0</ele><time>2026-04-11T14:02:39.152Z</time></trkpt><trkpt lat="39.236374" lon="8.50632"><ele>116.0</ele><time>2026-04-11T14:02:41.148Z</time></trkpt><trkpt lat="39.2363329" lon="8.5062542"><ele>116.0</ele><time>2026-04-11T14:02:42.157Z</time></trkpt><trkpt lat="39.2362233" lon="8.5061781"><ele>116.0</ele><time>2026-04-11T14:02:44.134Z</time></trkpt><trkpt lat="39.2361157" lon="8.5061266"><ele>116.0</ele><time>2026-04-11T14:02:46.158Z</time></trkpt><trkpt lat="39.2360002" lon="8.5060661"><ele>116.0</ele><time>2026-04-11T14:02:48.162Z</time></trkpt><trkpt lat="39.235877" lon="8.5060163"><ele>115.33333333333333</ele><time>2026-04-11T14:02:50.129Z</time></trkpt><trkpt lat="39.235805" lon="8.5060092"><ele>114.66666666666666</ele><time>2026-04-11T14:02:51.135Z</time></trkpt><trkpt lat="39.235741" lon="8.5060072"><ele>114.0</ele><time>2026-04-11T14:02:52.129Z</time></trkpt><trkpt lat="39.235643" lon="8.5060594"><ele>113.33333333333334</ele><time>2026-04-11T14:02:54.138Z</time></trkpt><trkpt lat="39.2355918" lon="8.506148"><ele>112.66666666666667</ele><time>2026-04-11T14:02:56.131Z</time></trkpt><trkpt lat="39.2355691" lon="8.5062531"><ele>112.0</ele><time>2026-04-11T14:02:58.131Z</time></trkpt><trkpt lat="39.2355359" lon="8.5063374"><ele>112.00000000000001</ele><time>2026-04-11T14:03:00.154Z</time></trkpt><trkpt lat="39.2354668" lon="8.5063788"><ele>112.0</ele><time>2026-04-11T14:03:02.139Z</time></trkpt><trkpt lat="39.2353771" lon="8.506394"><ele>112.0</ele><time>2026-04-11T14:03:04.145Z</time></trkpt><trkpt lat="39.2353143" lon="8.5064394"><ele>112.0</ele><time>2026-04-11T14:03:06.141Z</time></trkpt><trkpt lat="39.2352634" lon="8.5064925"><ele>112.00000000000001</ele><time>2026-04-11T14:03:08.14Z</time></trkpt><trkpt lat="39.2352078" lon="8.5065968"><ele>112.0</ele><time>2026-04-11T14:03:10.108Z</time></trkpt><trkpt lat="39.2351684" lon="8.5066708"><ele>112.00000000000001</ele><time>2026-04-11T14:03:11.146Z</time></trkpt><trkpt lat="39.2351202" lon="8.50674"><ele>112.0</ele><time>2026-04-11T14:03:12.146Z</time></trkpt><trkpt lat="39.2350628" lon="8.5067986"><ele>112.0</ele><time>2026-04-11T14:03:13.141Z</time></trkpt><trkpt lat="39.2349892" lon="8.5069017"><ele>112.0</ele><time>2026-04-11T14:03:15.133Z</time></trkpt><trkpt lat="39.2349194" lon="8.5070358"><ele>112.00000000000001</ele><time>2026-04-11T14:03:17.139Z</time></trkpt><trkpt lat="39.2348812" lon="8.5071026"><ele>112.0</ele><time>2026-04-11T14:03:18.16Z</time></trkpt><trkpt lat="39.2347972" lon="8.5072073"><ele>111.0</ele><time>2026-04-11T14:03:20.161Z</time></trkpt><trkpt lat="39.2347046" lon="8.5072931"><ele>109.99999999999999</ele><time>2026-04-11T14:03:22.155Z</time></trkpt><trkpt lat="39.2346374" lon="8.5073541"><ele>108.99999999999999</ele><time>2026-04-11T14:03:23.128Z</time></trkpt><trkpt lat="39.2345753" lon="8.5074196"><ele>108.0</ele><time>2026-04-11T14:03:24.132Z</time></trkpt><trkpt lat="39.2345195" lon="8.5074816"><ele>107.0</ele><time>2026-04-11T14:03:25.146Z</time></trkpt><trkpt lat="39.2344105" lon="8.5075441"><ele>107.0</ele><time>2026-04-11T14:03:27.129Z</time></trkpt><trkpt lat="39.2343024" lon="8.5076156"><ele>106.99999999999999</ele><time>2026-04-11T14:03:29.146Z</time></trkpt><trkpt lat="39.234245" lon="8.5076503"><ele>106.99999999999999</ele><time>2026-04-11T14:03:30.151Z</time></trkpt><trkpt lat="39.2341424" lon="8.5077228"><ele>107.0</ele><time>2026-04-11T14:03:32.149Z</time></trkpt><trkpt lat="39.234044" lon="8.5078011"><ele>107.0</ele><time>2026-04-11T14:03:34.154Z</time></trkpt><trkpt lat="39.2339866" lon="8.5078559"><ele>105.49999999999999</ele><time>2026-04-11T14:03:35.134Z</time></trkpt><trkpt lat="39.2339229" lon="8.5079175"><ele>104.0</ele><time>2026-04-11T14:03:36.143Z</time></trkpt><trkpt lat="39.2338522" lon="8.5079817"><ele>102.5</ele><time>2026-04-11T14:03:37.137Z</time></trkpt><trkpt lat="39.2337805" lon="8.5080356"><ele>101.0</ele><time>2026-04-11T14:03:38.129Z</time></trkpt><trkpt lat="39.2337191" lon="8.5080907"><ele>99.49999999999999</ele><time>2026-04-11T14:03:39.136Z</time></trkpt><trkpt lat="39.2336558" lon="8.5081491"><ele>98.0</ele><time>2026-04-11T14:03:40.137Z</time></trkpt><trkpt lat="39.2335967" lon="8.5082023"><ele>97.99999999999999</ele><time>2026-04-11T14:03:41.124Z</time></trkpt><trkpt lat="39.2335372" lon="8.5082573"><ele>98.0</ele><time>2026-04-11T14:03:42.098Z</time></trkpt><trkpt lat="39.2334821" lon="8.5083154"><ele>98.0</ele><time>2026-04-11T14:03:43.132Z</time></trkpt><trkpt lat="39.2334244" lon="8.5083658"><ele>98.0</ele><time>2026-04-11T14:03:44.103Z</time></trkpt><trkpt lat="39.2333448" lon="8.5084308"><ele>97.99999999999999</ele><time>2026-04-11T14:03:46.151Z</time></trkpt><trkpt lat="39.2333587" lon="8.5085225"><ele>98.0</ele><time>2026-04-11T14:03:49.118Z</time></trkpt><trkpt lat="39.2334273" lon="8.508651"><ele>98.49999999999999</ele><time>2026-04-11T14:03:51.13Z</time></trkpt><trkpt lat="39.2334745" lon="8.5087642"><ele>99.0</ele><time>2026-04-11T14:03:53.137Z</time></trkpt><trkpt lat="39.2334932" lon="8.5088609"><ele>99.5</ele><time>2026-04-11T14:03:56.144Z</time></trkpt><trkpt lat="39.2334661" lon="8.508939"><ele>100.0</ele><time>2026-04-11T14:03:59.149Z</time></trkpt><trkpt lat="39.2333983" lon="8.5089215"><ele>100.49999999999999</ele><time>2026-04-11T14:04:07.136Z</time></trkpt><trkpt lat="39.2333809" lon="8.5088345"><ele>101.0</ele><time>2026-04-11T14:04:09.145Z</time></trkpt><trkpt lat="39.2333186" lon="8.5087526"><ele>100.4</ele><time>2026-04-11T14:04:31.134Z</time></trkpt><trkpt lat="39.233255" lon="8.5086313"><ele>99.8</ele><time>2026-04-11T14:04:33.126Z</time></trkpt><trkpt lat="39.233196" lon="8.5085209"><ele>99.2</ele><time>2026-04-11T14:04:35.133Z</time></trkpt><trkpt lat="39.2331392" lon="8.5084261"><ele>98.60000000000001</ele><time>2026-04-11T14:04:37.138Z</time></trkpt><trkpt lat="39.2330602" lon="8.5083796"><ele>98.0</ele><time>2026-04-11T14:04:40.156Z</time></trkpt><trkpt lat="39.2329893" lon="8.5084757"><ele>97.4</ele><time>2026-04-11T14:04:43.132Z</time></trkpt><trkpt lat="39.2329528" lon="8.5085752"><ele>96.80000000000001</ele><time>2026-04-11T14:04:45.126Z</time></trkpt><trkpt lat="39.2328887" lon="8.5085684"><ele>96.2</ele><time>2026-04-11T14:05:14.141Z</time></trkpt><trkpt lat="39.2328218" lon="8.5086189"><ele>95.6</ele><time>2026-04-11T14:05:18.147Z</time></trkpt><trkpt lat="39.2327559" lon="8.5084739"><ele>95.0</ele><time>2026-04-11T14:05:21.14Z</time></trkpt><trkpt lat="39.2327015" lon="8.5083707"><ele>95.0</ele><time>2026-04-11T14:05:22.091Z</time></trkpt><trkpt lat="39.2326444" lon="8.5082776"><ele>95.0</ele><time>2026-04-11T14:05:23.123Z</time></trkpt><trkpt lat="39.2325456" lon="8.5081544"><ele>95.0</ele><time>2026-04-11T14:05:25.103Z</time></trkpt><trkpt lat="39.2325" lon="8.5080735"><ele>95.0</ele><time>2026-04-11T14:05:26.121Z</time></trkpt><trkpt lat="39.2324345" lon="8.5079861"><ele>95.0</ele><time>2026-04-11T14:05:27.139Z</time></trkpt><trkpt lat="39.2323816" lon="8.5079093"><ele>94.8</ele><time>2026-04-11T14:05:28.135Z</time></trkpt><trkpt lat="39.2323023" lon="8.5078201"><ele>94.6</ele><time>2026-04-11T14:05:30.144Z</time></trkpt><trkpt lat="39.2322485" lon="8.5077442"><ele>94.4</ele><time>2026-04-11T14:05:33.135Z</time></trkpt><trkpt lat="39.2322318" lon="8.5075442"><ele>94.2</ele><time>2026-04-11T14:05:43.131Z</time></trkpt><trkpt lat="39.2323017" lon="8.5075269"><ele>94.0</ele><time>2026-04-11T14:05:44.138Z</time></trkpt><trkpt lat="39.2323653" lon="8.5074283"><ele>94.0</ele><time>2026-04-11T14:05:45.139Z</time></trkpt><trkpt lat="39.232392" lon="8.5073522"><ele>94.0</ele><time>2026-04-11T14:05:46.136Z</time></trkpt><trkpt lat="39.232401" lon="8.5072425"><ele>94.0</ele><time>2026-04-11T14:05:47.136Z</time></trkpt><trkpt lat="39.2323483" lon="8.507159"><ele>94.0</ele><time>2026-04-11T14:05:48.127Z</time></trkpt><trkpt lat="39.2322959" lon="8.5070821"><ele>94.0</ele><time>2026-04-11T14:05:49.136Z</time></trkpt><trkpt lat="39.2322269" lon="8.5070088"><ele>94.0</ele><time>2026-04-11T14:05:50.138Z</time></trkpt><trkpt lat="39.232144" lon="8.5069421"><ele>95.33333333333333</ele><time>2026-04-11T14:05:51.139Z</time></trkpt><trkpt lat="39.2320813" lon="8.506897"><ele>96.66666666666666</ele><time>2026-04-11T14:05:52.13Z</time></trkpt><trkpt lat="39.232015" lon="8.5068042"><ele>98.0</ele><time>2026-04-11T14:05:54.143Z</time></trkpt><trkpt lat="39.231986" lon="8.5067287"><ele>99.33333333333333</ele><time>2026-04-11T14:05:55.119Z</time></trkpt><trkpt lat="39.2319098" lon="8.5065945"><ele>100.66666666666667</ele><time>2026-04-11T14:05:57.128Z</time></trkpt><trkpt lat="39.23187" lon="8.5065246"><ele>102.0</ele><time>2026-04-11T14:05:58.13Z</time></trkpt><trkpt lat="39.2318228" lon="8.506411"><ele>102.0</ele><time>2026-04-11T14:06:00.137Z</time></trkpt><trkpt lat="39.2317984" lon="8.5062975"><ele>102.0</ele><time>2026-04-11T14:06:02.147Z</time></trkpt><trkpt lat="39.2318135" lon="8.5062085"><ele>102.0</ele><time>2026-04-11T14:06:05.14Z</time></trkpt><trkpt lat="39.2318666" lon="8.5061489"><ele>102.0</ele><time>2026-04-11T14:06:07.151Z</time></trkpt><trkpt lat="39.2319643" lon="8.5061236"><ele>102.0</ele><time>2026-04-11T14:06:09.175Z</time></trkpt><trkpt lat="39.2320325" lon="8.5061149"><ele>102.0</ele><time>2026-04-11T14:06:11.145Z</time></trkpt><trkpt lat="39.2321046" lon="8.5060772"><ele>102.57142857142857</ele><time>2026-04-11T14:06:13.152Z</time></trkpt><trkpt lat="39.2321625" lon="8.506037"><ele>103.14285714285714</ele><time>2026-04-11T14:06:15.157Z</time></trkpt><trkpt lat="39.2322362" lon="8.5060008"><ele>103.71428571428572</ele><time>2026-04-11T14:06:18.142Z</time></trkpt><trkpt lat="39.232309" lon="8.5059766"><ele>104.28571428571428</ele><time>2026-04-11T14:06:21.134Z</time></trkpt><trkpt lat="39.2323637" lon="8.5060391"><ele>104.85714285714285</ele><time>2026-04-11T14:06:25.137Z</time></trkpt><trkpt lat="39.2323992" lon="8.5061342"><ele>105.42857142857143</ele><time>2026-04-11T14:06:29.151Z</time></trkpt><trkpt lat="39.2323783" lon="8.5062138"><ele>106.0</ele><time>2026-04-11T14:06:31.091Z</time></trkpt><trkpt lat="39.2323674" lon="8.5063176"><ele>104.66666666666667</ele><time>2026-04-11T14:06:33.133Z</time></trkpt><trkpt lat="39.2323837" lon="8.5064127"><ele>103.33333333333334</ele><time>2026-04-11T14:06:36.154Z</time></trkpt><trkpt lat="39.2324478" lon="8.5064297"><ele>102.0</ele><time>2026-04-11T14:06:40.127Z</time></trkpt><trkpt lat="39.232512" lon="8.5065225"><ele>100.66666666666666</ele><time>2026-04-11T14:06:43.124Z</time></trkpt><trkpt lat="39.2325781" lon="8.5066131"><ele>99.33333333333333</ele><time>2026-04-11T14:06:45.13Z</time></trkpt><trkpt lat="39.2326426" lon="8.5067102"><ele>98.0</ele><time>2026-04-11T14:06:47.125Z</time></trkpt><trkpt lat="39.2327018" lon="8.5068081"><ele>97.99999999999999</ele><time>2026-04-11T14:06:49.138Z</time></trkpt><trkpt lat="39.2327671" lon="8.5068197"><ele>98.0</ele><time>2026-04-11T14:06:52.136Z</time></trkpt><trkpt lat="39.2328027" lon="8.5067412"><ele>98.0</ele><time>2026-04-11T14:06:54.15Z</time></trkpt><trkpt lat="39.2328592" lon="8.5066204"><ele>98.0</ele><time>2026-04-11T14:06:56.149Z</time></trkpt><trkpt lat="39.2329034" lon="8.5065514"><ele>97.99999999999999</ele><time>2026-04-11T14:06:57.138Z</time></trkpt><trkpt lat="39.2329464" lon="8.50648"><ele>98.0</ele><time>2026-04-11T14:06:58.124Z</time></trkpt><trkpt lat="39.2330197" lon="8.5063808"><ele>98.0</ele><time>2026-04-11T14:07:00.132Z</time></trkpt><trkpt lat="39.2329611" lon="8.50629"><ele>98.0</ele><time>2026-04-11T14:07:04.161Z</time></trkpt><trkpt lat="39.2328799" lon="8.5062404"><ele>98.0</ele><time>2026-04-11T14:07:06.155Z</time></trkpt><trkpt lat="39.2328049" lon="8.5061492"><ele>98.0</ele><time>2026-04-11T14:07:08.134Z</time></trkpt><trkpt lat="39.2327595" lon="8.5060066"><ele>98.0</ele><time>2026-04-11T14:07:10.134Z</time></trkpt><trkpt lat="39.2327319" lon="8.5058783"><ele>99.60000000000001</ele><time>2026-04-11T14:07:12.13Z</time></trkpt><trkpt lat="39.2326687" lon="8.5057525"><ele>101.2</ele><time>2026-04-11T14:07:14.146Z</time></trkpt><trkpt lat="39.2326322" lon="8.5056848"><ele>102.8</ele><time>2026-04-11T14:07:15.135Z</time></trkpt><trkpt lat="39.2325715" lon="8.5055663"><ele>104.4</ele><time>2026-04-11T14:07:17.136Z</time></trkpt><trkpt lat="39.2324963" lon="8.5054481"><ele>106.0</ele><time>2026-04-11T14:07:19.132Z</time></trkpt><trkpt lat="39.2324614" lon="8.5053711"><ele>106.4</ele><time>2026-04-11T14:07:20.137Z</time></trkpt><trkpt lat="39.2323885" lon="8.5052916"><ele>106.8</ele><time>2026-04-11T14:07:22.16Z</time></trkpt><trkpt lat="39.2323182" lon="8.5053213"><ele>107.20000000000002</ele><time>2026-04-11T14:07:24.131Z</time></trkpt><trkpt lat="39.2322747" lon="8.5053977"><ele>107.60000000000001</ele><time>2026-04-11T14:07:26.156Z</time></trkpt><trkpt lat="39.2322128" lon="8.5054963"><ele>108.0</ele><time>2026-04-11T14:07:28.144Z</time></trkpt><trkpt lat="39.2321273" lon="8.5055824"><ele>108.5</ele><time>2026-04-11T14:07:30.148Z</time></trkpt><trkpt lat="39.2320414" lon="8.5056849"><ele>109.0</ele><time>2026-04-11T14:07:32.141Z</time></trkpt><trkpt lat="39.2319318" lon="8.5057635"><ele>109.5</ele><time>2026-04-11T14:07:34.128Z</time></trkpt><trkpt lat="39.231823" lon="8.5058393"><ele>110.0</ele><time>2026-04-11T14:07:36.141Z</time></trkpt><trkpt lat="39.2317192" lon="8.505917"><ele>109.99999999999999</ele><time>2026-04-11T14:07:38.098Z</time></trkpt><trkpt lat="39.2316472" lon="8.5060114"><ele>110.0</ele><time>2026-04-11T14:07:40.137Z</time></trkpt><trkpt lat="39.2316123" lon="8.5060892"><ele>110.0</ele><time>2026-04-11T14:07:42.153Z</time></trkpt><trkpt lat="39.2315284" lon="8.5061156"><ele>110.0</ele><time>2026-04-11T14:07:44.136Z</time></trkpt><trkpt lat="39.2314668" lon="8.5060631"><ele>109.99999999999999</ele><time>2026-04-11T14:07:46.123Z</time></trkpt><trkpt lat="39.2314036" lon="8.5060038"><ele>110.0</ele><time>2026-04-11T14:07:48.136Z</time></trkpt><trkpt lat="39.2313301" lon="8.506019"><ele>107.99999999999999</ele><time>2026-04-11T14:07:50.139Z</time></trkpt><trkpt lat="39.2312499" lon="8.5060497"><ele>106.0</ele><time>2026-04-11T14:07:52.144Z</time></trkpt><trkpt lat="39.2311856" lon="8.5060261"><ele>104.0</ele><time>2026-04-11T14:07:54.118Z</time></trkpt><trkpt lat="39.2311552" lon="8.505935"><ele>102.0</ele><time>2026-04-11T14:07:57.118Z</time></trkpt><trkpt lat="39.2312374" lon="8.5058662"><ele>99.99999999999999</ele><time>2026-04-11T14:08:01.145Z</time></trkpt><trkpt lat="39.2313395" lon="8.5058237"><ele>98.0</ele><time>2026-04-11T14:08:03.139Z</time></trkpt><trkpt lat="39.2314682" lon="8.505772"><ele>99.99999999999999</ele><time>2026-04-11T14:08:05.145Z</time></trkpt><trkpt lat="39.2315412" lon="8.5057452"><ele>102.0</ele><time>2026-04-11T14:08:06.133Z</time></trkpt><trkpt lat="39.2316207" lon="8.5057079"><ele>104.0</ele><time>2026-04-11T14:08:07.149Z</time></trkpt><trkpt lat="39.2317" lon="8.5056724"><ele>106.0</ele><time>2026-04-11T14:08:08.125Z</time></trkpt><trkpt lat="39.2317924" lon="8.5056254"><ele>107.99999999999999</ele><time>2026-04-11T14:08:09.135Z</time></trkpt><trkpt lat="39.2318821" lon="8.5055744"><ele>110.0</ele><time>2026-04-11T14:08:10.148Z</time></trkpt><trkpt lat="39.2319531" lon="8.5055241"><ele>110.0</ele><time>2026-04-11T14:08:11.147Z</time></trkpt><trkpt lat="39.2320242" lon="8.5054652"><ele>110.0</ele><time>2026-04-11T14:08:12.144Z</time></trkpt><trkpt lat="39.2321013" lon="8.505407"><ele>110.0</ele><time>2026-04-11T14:08:13.121Z</time></trkpt><trkpt lat="39.2321801" lon="8.5053319"><ele>110.0</ele><time>2026-04-11T14:08:14.142Z</time></trkpt><trkpt lat="39.23224" lon="8.5052541"><ele>110.0</ele><time>2026-04-11T14:08:15.145Z</time></trkpt><trkpt lat="39.2323203" lon="8.5051479"><ele>111.6</ele><time>2026-04-11T14:08:17.133Z</time></trkpt><trkpt lat="39.2323367" lon="8.5050111"><ele>113.2</ele><time>2026-04-11T14:08:19.122Z</time></trkpt><trkpt lat="39.2323496" lon="8.5048716"><ele>114.80000000000001</ele><time>2026-04-11T14:08:21.14Z</time></trkpt><trkpt lat="39.2324079" lon="8.5047806"><ele>116.4</ele><time>2026-04-11T14:08:23.143Z</time></trkpt><trkpt lat="39.2324737" lon="8.5047582"><ele>118.0</ele><time>2026-04-11T14:08:25.152Z</time></trkpt><trkpt lat="39.2325493" lon="8.5047749"><ele>118.0</ele><time>2026-04-11T14:08:27.133Z</time></trkpt><trkpt lat="39.2326128" lon="8.5047664"><ele>118.0</ele><time>2026-04-11T14:08:30.143Z</time></trkpt><trkpt lat="39.2325535" lon="8.5048081"><ele>118.0</ele><time>2026-04-11T14:08:39.147Z</time></trkpt><trkpt lat="39.2325345" lon="8.5048949"><ele>118.0</ele><time>2026-04-11T14:08:48.156Z</time></trkpt><trkpt lat="39.2325755" lon="8.5049799"><ele>118.0</ele><time>2026-04-11T14:08:54.155Z</time></trkpt><trkpt lat="39.2326143" lon="8.505068"><ele>118.0</ele><time>2026-04-11T14:08:57.125Z</time></trkpt><trkpt lat="39.2326537" lon="8.5051542"><ele>118.0</ele><time>2026-04-11T14:09:00.139Z</time></trkpt><trkpt lat="39.2326963" lon="8.5052332"><ele>118.00000000000001</ele><time>2026-04-11T14:09:04.124Z</time></trkpt><trkpt lat="39.2327244" lon="8.5053078"><ele>118.0</ele><time>2026-04-11T14:09:07.124Z</time></trkpt><trkpt lat="39.2327893" lon="8.5053694"><ele>118.0</ele><time>2026-04-11T14:09:11.152Z</time></trkpt><trkpt lat="39.2328734" lon="8.5054456"><ele>118.0</ele><time>2026-04-11T14:09:14.142Z</time></trkpt><trkpt lat="39.2329268" lon="8.5055187"><ele>118.00000000000001</ele><time>2026-04-11T14:09:16.136Z</time></trkpt><trkpt lat="39.2329798" lon="8.5055795"><ele>118.0</ele><time>2026-04-11T14:09:19.137Z</time></trkpt><trkpt lat="39.233062" lon="8.5055802"><ele>116.4</ele><time>2026-04-11T14:09:24.146Z</time></trkpt><trkpt lat="39.233164" lon="8.5055404"><ele>114.80000000000001</ele><time>2026-04-11T14:09:26.13Z</time></trkpt><trkpt lat="39.2332611" lon="8.5055164"><ele>113.2</ele><time>2026-04-11T14:09:28.137Z</time></trkpt><trkpt lat="39.2333398" lon="8.5055019"><ele>111.6</ele><time>2026-04-11T14:09:30.118Z</time></trkpt><trkpt lat="39.2334104" lon="8.5054294"><ele>110.0</ele><time>2026-04-11T14:09:32.126Z</time></trkpt><trkpt lat="39.2334902" lon="8.5053433"><ele>109.99999999999999</ele><time>2026-04-11T14:09:34.132Z</time></trkpt><trkpt lat="39.2335468" lon="8.5052522"><ele>110.0</ele><time>2026-04-11T14:09:36.158Z</time></trkpt><trkpt lat="39.2335984" lon="8.5052005"><ele>110.0</ele><time>2026-04-11T14:09:38.128Z</time></trkpt><trkpt lat="39.2336713" lon="8.5051496"><ele>110.0</ele><time>2026-04-11T14:09:40.147Z</time></trkpt><trkpt lat="39.233747" lon="8.5050624"><ele>109.99999999999999</ele><time>2026-04-11T14:09:42.154Z</time></trkpt><trkpt lat="39.2338224" lon="8.5049668"><ele>110.0</ele><time>2026-04-11T14:09:44.15Z</time></trkpt><trkpt lat="39.2338913" lon="8.5048552"><ele>109.99999999999999</ele><time>2026-04-11T14:09:46.145Z</time></trkpt><trkpt lat="39.2339327" lon="8.5047803"><ele>110.0</ele><time>2026-04-11T14:09:47.129Z</time></trkpt><trkpt lat="39.2339818" lon="8.5046994"><ele>110.0</ele><time>2026-04-11T14:09:48.137Z</time></trkpt><trkpt lat="39.23402" lon="8.5046209"><ele>110.0</ele><time>2026-04-11T14:09:49.127Z</time></trkpt><trkpt lat="39.2340986" lon="8.5045166"><ele>109.99999999999999</ele><time>2026-04-11T14:09:51.134Z</time></trkpt><trkpt lat="39.2341699" lon="8.5044573"><ele>110.0</ele><time>2026-04-11T14:09:53.096Z</time></trkpt><trkpt lat="39.234232" lon="8.5044252"><ele>109.0</ele><time>2026-04-11T14:09:55.139Z</time></trkpt><trkpt lat="39.2342925" lon="8.5044598"><ele>108.0</ele><time>2026-04-11T14:09:57.138Z</time></trkpt><trkpt lat="39.2343657" lon="8.5045959"><ele>107.0</ele><time>2026-04-11T14:09:59.128Z</time></trkpt><trkpt lat="39.2344343" lon="8.5047132"><ele>106.0</ele><time>2026-04-11T14:10:01.126Z</time></trkpt><trkpt lat="39.2344768" lon="8.5047835"><ele>105.0</ele><time>2026-04-11T14:10:07.137Z</time></trkpt><trkpt lat="39.2344863" lon="8.5048802"><ele>105.0</ele><time>2026-04-11T14:10:11.142Z</time></trkpt><trkpt lat="39.2344641" lon="8.5047576"><ele>105.0</ele><time>2026-04-11T14:10:21.147Z</time></trkpt><trkpt lat="39.2344018" lon="8.5046274"><ele>105.0</ele><time>2026-04-11T14:10:23.139Z</time></trkpt><trkpt lat="39.2343465" lon="8.5045318"><ele>105.0</ele><time>2026-04-11T14:10:25.146Z</time></trkpt><trkpt lat="39.23429" lon="8.5044776"><ele>105.0</ele><time>2026-04-11T14:10:28.136Z</time></trkpt><trkpt lat="39.2342018" lon="8.5045149"><ele>105.0</ele><time>2026-04-11T14:10:31.092Z</time></trkpt><trkpt lat="39.234127" lon="8.5045575"><ele>105.0</ele><time>2026-04-11T14:10:33.128Z</time></trkpt><trkpt lat="39.2340595" lon="8.5045953"><ele>105.0</ele><time>2026-04-11T14:10:36.152Z</time></trkpt><trkpt lat="39.2339974" lon="8.5045479"><ele>105.0</ele><time>2026-04-11T14:10:38.135Z</time></trkpt><trkpt lat="39.2338889" lon="8.5044679"><ele>105.0</ele><time>2026-04-11T14:10:40.139Z</time></trkpt><trkpt lat="39.233824" lon="8.5044275"><ele>105.0</ele><time>2026-04-11T14:10:41.133Z</time></trkpt><trkpt lat="39.2337623" lon="8.5043816"><ele>106.33333333333333</ele><time>2026-04-11T14:10:42.138Z</time></trkpt><trkpt lat="39.2336878" lon="8.5042878"><ele>107.66666666666666</ele><time>2026-04-11T14:10:44.133Z</time></trkpt><trkpt lat="39.233622" lon="8.504248"><ele>109.0</ele><time>2026-04-11T14:10:46.139Z</time></trkpt><trkpt lat="39.2335515" lon="8.5042361"><ele>110.33333333333333</ele><time>2026-04-11T14:10:49.11Z</time></trkpt><trkpt lat="39.2335547" lon="8.5041547"><ele>111.66666666666666</ele><time>2026-04-11T14:10:54.154Z</time></trkpt><trkpt lat="39.2336221" lon="8.5040961"><ele>113.0</ele><time>2026-04-11T14:10:58.139Z</time></trkpt><trkpt lat="39.2337071" lon="8.5041154"><ele>113.0</ele><time>2026-04-11T14:11:02.115Z</time></trkpt><trkpt lat="39.2337794" lon="8.5040892"><ele>113.00000000000001</ele><time>2026-04-11T14:11:04.127Z</time></trkpt><trkpt lat="39.2338531" lon="8.5040434"><ele>113.00000000000001</ele><time>2026-04-11T14:11:06.155Z</time></trkpt><trkpt lat="39.2339555" lon="8.5039742"><ele>113.0</ele><time>2026-04-11T14:11:08.142Z</time></trkpt><trkpt lat="39.2340456" lon="8.5039247"><ele>113.0</ele><time>2026-04-11T14:11:10.157Z</time></trkpt><trkpt lat="39.2340783" lon="8.5038131"><ele>114.0</ele><time>2026-04-11T14:11:13.135Z</time></trkpt><trkpt lat="39.2340315" lon="8.503675"><ele>115.00000000000001</ele><time>2026-04-11T14:11:15.135Z</time></trkpt><trkpt lat="39.2340283" lon="8.5035761"><ele>116.00000000000001</ele><time>2026-04-11T14:11:17.139Z</time></trkpt><trkpt lat="39.2340922" lon="8.5035041"><ele>117.0</ele><time>2026-04-11T14:11:19.126Z</time></trkpt><trkpt lat="39.2341808" lon="8.5034322"><ele>118.0</ele><time>2026-04-11T14:11:21.134Z</time></trkpt><trkpt lat="39.2342616" lon="8.5034412"><ele>118.00000000000001</ele><time>2026-04-11T14:11:23.133Z</time></trkpt><trkpt lat="39.2343279" lon="8.5035044"><ele>118.0</ele><time>2026-04-11T14:11:25.131Z</time></trkpt><trkpt lat="39.2344186" lon="8.5035512"><ele>118.0</ele><time>2026-04-11T14:11:27.115Z</time></trkpt><trkpt lat="39.2344883" lon="8.5035427"><ele>118.0</ele><time>2026-04-11T14:11:29.131Z</time></trkpt><trkpt lat="39.2345836" lon="8.503491"><ele>118.00000000000001</ele><time>2026-04-11T14:11:31.125Z</time></trkpt><trkpt lat="39.2346514" lon="8.5034701"><ele>118.0</ele><time>2026-04-11T14:11:33.132Z</time></trkpt><trkpt lat="39.2347109" lon="8.5035203"><ele>118.0</ele><time>2026-04-11T14:11:35.128Z</time></trkpt><trkpt lat="39.2347917" lon="8.5035277"><ele>118.00000000000001</ele><time>2026-04-11T14:11:38.136Z</time></trkpt><trkpt lat="39.2348668" lon="8.5035063"><ele>118.00000000000001</ele><time>2026-04-11T14:11:40.136Z</time></trkpt><trkpt lat="39.2349389" lon="8.5034796"><ele>118.0</ele><time>2026-04-11T14:11:42.138Z</time></trkpt><trkpt lat="39.2350404" lon="8.503419"><ele>118.0</ele><time>2026-04-11T14:11:44.156Z</time></trkpt><trkpt lat="39.2351401" lon="8.5033443"><ele>117.33333333333334</ele><time>2026-04-11T14:11:46.131Z</time></trkpt><trkpt lat="39.2352176" lon="8.5033186"><ele>116.66666666666667</ele><time>2026-04-11T14:11:48.133Z</time></trkpt><trkpt lat="39.2352787" lon="8.5033834"><ele>116.0</ele><time>2026-04-11T14:11:51.149Z</time></trkpt><trkpt lat="39.235312" lon="8.503484"><ele>115.33333333333334</ele><time>2026-04-11T14:11:53.147Z</time></trkpt><trkpt lat="39.2353497" lon="8.5035989"><ele>114.66666666666667</ele><time>2026-04-11T14:11:55.143Z</time></trkpt><trkpt lat="39.2353875" lon="8.5036696"><ele>114.0</ele><time>2026-04-11T14:11:57.128Z</time></trkpt><trkpt lat="39.2354655" lon="8.5036704"><ele>114.0</ele><time>2026-04-11T14:12:00.146Z</time></trkpt><trkpt lat="39.2355241" lon="8.5036113"><ele>114.0</ele><time>2026-04-11T14:12:03.131Z</time></trkpt><trkpt lat="39.235594" lon="8.5036516"><ele>114.0</ele><time>2026-04-11T14:12:06.108Z</time></trkpt><trkpt lat="39.2356949" lon="8.5036846"><ele>114.0</ele><time>2026-04-11T14:12:08.144Z</time></trkpt><trkpt lat="39.2358133" lon="8.5037041"><ele>114.0</ele><time>2026-04-11T14:12:10.144Z</time></trkpt><trkpt lat="39.2359254" lon="8.5037496"><ele>113.0</ele><time>2026-04-11T14:12:12.102Z</time></trkpt><trkpt lat="39.2360013" lon="8.5037848"><ele>112.0</ele><time>2026-04-11T14:12:14.163Z</time></trkpt><trkpt lat="39.2360301" lon="8.5038795"><ele>111.0</ele><time>2026-04-11T14:12:16.126Z</time></trkpt><trkpt lat="39.2360489" lon="8.503969"><ele>110.0</ele><time>2026-04-11T14:12:18.141Z</time></trkpt><trkpt lat="39.2360331" lon="8.5040733"><ele>109.0</ele><time>2026-04-11T14:12:21.108Z</time></trkpt><trkpt lat="39.2360287" lon="8.504165"><ele>108.0</ele><time>2026-04-11T14:12:23.155Z</time></trkpt><trkpt lat="39.2359968" lon="8.5042498"><ele>108.0</ele><time>2026-04-11T14:12:25.138Z</time></trkpt><trkpt lat="39.235935" lon="8.5043172"><ele>108.0</ele><time>2026-04-11T14:12:28.148Z</time></trkpt><trkpt lat="39.2358597" lon="8.5043252"><ele>108.0</ele><time>2026-04-11T14:12:30.144Z</time></trkpt><trkpt lat="39.2357729" lon="8.5043651"><ele>108.0</ele><time>2026-04-11T14:12:32.118Z</time></trkpt><trkpt lat="39.2357123" lon="8.5043912"><ele>108.0</ele><time>2026-04-11T14:12:33.144Z</time></trkpt><trkpt lat="39.2356489" lon="8.5044189"><ele>108.0</ele><time>2026-04-11T14:12:34.142Z</time></trkpt><trkpt lat="39.2355877" lon="8.5044504"><ele>108.0</ele><time>2026-04-11T14:12:35.143Z</time></trkpt><trkpt lat="39.235525" lon="8.5044812"><ele>107.0</ele><time>2026-04-11T14:12:36.148Z</time></trkpt><trkpt lat="39.2354015" lon="8.5045243"><ele>106.00000000000001</ele><time>2026-04-11T14:12:38.148Z</time></trkpt><trkpt lat="39.2353324" lon="8.5045603"><ele>105.0</ele><time>2026-04-11T14:12:39.153Z</time></trkpt><trkpt lat="39.2352618" lon="8.5046041"><ele>104.0</ele><time>2026-04-11T14:12:40.146Z</time></trkpt><trkpt lat="39.2351944" lon="8.50465"><ele>103.0</ele><time>2026-04-11T14:12:41.137Z</time></trkpt><trkpt lat="39.2351009" lon="8.5047017"><ele>103.00000000000001</ele><time>2026-04-11T14:12:43.139Z</time></trkpt><trkpt lat="39.2350402" lon="8.504758"><ele>103.0</ele><time>2026-04-11T14:12:45.145Z</time></trkpt><trkpt lat="39.2349897" lon="8.5048482"><ele>103.0</ele><time>2026-04-11T14:12:48.137Z</time></trkpt><trkpt lat="39.2350564" lon="8.5049179"><ele>103.0</ele><time>2026-04-11T14:12:51.134Z</time></trkpt><trkpt lat="39.2351352" lon="8.5049235"><ele>103.00000000000001</ele><time>2026-04-11T14:12:53.098Z</time></trkpt><trkpt lat="39.2351607" lon="8.5050039"><ele>103.0</ele><time>2026-04-11T14:12:55.086Z</time></trkpt><trkpt lat="39.2351958" lon="8.5051058"><ele>103.0</ele><time>2026-04-11T14:12:57.13Z</time></trkpt><trkpt lat="39.2352637" lon="8.5051409"><ele>103.0</ele><time>2026-04-11T14:12:59.135Z</time></trkpt><trkpt lat="39.235369" lon="8.5051546"><ele>103.0</ele><time>2026-04-11T14:13:01.135Z</time></trkpt><trkpt lat="39.2354943" lon="8.5051489"><ele>103.0</ele><time>2026-04-11T14:13:03.14Z</time></trkpt><trkpt lat="39.2355718" lon="8.5051466"><ele>103.0</ele><time>2026-04-11T14:13:04.144Z</time></trkpt><trkpt lat="39.2356462" lon="8.5051363"><ele>104.2</ele><time>2026-04-11T14:13:05.14Z</time></trkpt><trkpt lat="39.2357201" lon="8.5051205"><ele>105.4</ele><time>2026-04-11T14:13:06.142Z</time></trkpt><trkpt lat="39.235789" lon="8.5051193"><ele>106.60000000000001</ele><time>2026-04-11T14:13:07.137Z</time></trkpt><trkpt lat="39.2359225" lon="8.50509"><ele>107.80000000000001</ele><time>2026-04-11T14:13:09.134Z</time></trkpt><trkpt lat="39.236002" lon="8.5050549"><ele>109.0</ele><time>2026-04-11T14:13:10.151Z</time></trkpt><trkpt lat="39.2360889" lon="8.5050225"><ele>109.00000000000001</ele><time>2026-04-11T14:13:11.137Z</time></trkpt><trkpt lat="39.2361637" lon="8.5049924"><ele>109.0</ele><time>2026-04-11T14:13:12.151Z</time></trkpt><trkpt lat="39.2362401" lon="8.5049766"><ele>109.0</ele><time>2026-04-11T14:13:13.152Z</time></trkpt><trkpt lat="39.2363173" lon="8.5049662"><ele>109.0</ele><time>2026-04-11T14:13:14.133Z</time></trkpt><trkpt lat="39.2363961" lon="8.5049506"><ele>109.00000000000001</ele><time>2026-04-11T14:13:15.14Z</time></trkpt><trkpt lat="39.236479" lon="8.5049225"><ele>109.0</ele><time>2026-04-11T14:13:16.158Z</time></trkpt><trkpt lat="39.2365532" lon="8.5048933"><ele>111.0</ele><time>2026-04-11T14:13:17.126Z</time></trkpt><trkpt lat="39.2366662" lon="8.50488"><ele>113.0</ele><time>2026-04-11T14:13:19.172Z</time></trkpt><trkpt lat="39.2367649" lon="8.504864"><ele>115.0</ele><time>2026-04-11T14:13:21.128Z</time></trkpt><trkpt lat="39.2368317" lon="8.5048316"><ele>117.0</ele><time>2026-04-11T14:13:22.125Z</time></trkpt><trkpt lat="39.236895" lon="8.5048005"><ele>119.0</ele><time>2026-04-11T14:13:23.106Z</time></trkpt><trkpt lat="39.2370187" lon="8.50476"><ele>118.99999999999999</ele><time>2026-04-11T14:13:25.144Z</time></trkpt><trkpt lat="39.2370961" lon="8.5047246"><ele>119.0</ele><time>2026-04-11T14:13:26.13Z</time></trkpt><trkpt lat="39.2371889" lon="8.5046878"><ele>119.0</ele><time>2026-04-11T14:13:27.149Z</time></trkpt><trkpt lat="39.2372717" lon="8.5046615"><ele>119.0</ele><time>2026-04-11T14:13:28.145Z</time></trkpt><trkpt lat="39.2373557" lon="8.5046364"><ele>118.99999999999999</ele><time>2026-04-11T14:13:29.137Z</time></trkpt><trkpt lat="39.2374397" lon="8.5046046"><ele>119.0</ele><time>2026-04-11T14:13:30.137Z</time></trkpt><trkpt lat="39.2375196" lon="8.504577"><ele>119.49999999999999</ele><time>2026-04-11T14:13:31.138Z</time></trkpt><trkpt lat="39.2375857" lon="8.5045476"><ele>120.0</ele><time>2026-04-11T14:13:32.148Z</time></trkpt><trkpt lat="39.2376548" lon="8.5045116"><ele>120.5</ele><time>2026-04-11T14:13:33.132Z</time></trkpt><trkpt lat="39.2377263" lon="8.5044773"><ele>121.0</ele><time>2026-04-11T14:13:34.137Z</time></trkpt><trkpt lat="39.2377887" lon="8.5044477"><ele>121.49999999999999</ele><time>2026-04-11T14:13:35.152Z</time></trkpt><trkpt lat="39.2378918" lon="8.5043907"><ele>122.0</ele><time>2026-04-11T14:13:37.14Z</time></trkpt><trkpt lat="39.237959" lon="8.5043392"><ele>121.99999999999999</ele><time>2026-04-11T14:13:39.143Z</time></trkpt><trkpt lat="39.2380187" lon="8.5042876"><ele>122.0</ele><time>2026-04-11T14:13:41.121Z</time></trkpt><trkpt lat="39.2380591" lon="8.504224"><ele>122.0</ele><time>2026-04-11T14:13:45.126Z</time></trkpt><trkpt lat="39.2381231" lon="8.5043417"><ele>122.0</ele><time>2026-04-11T14:13:51.1Z</time></trkpt><trkpt lat="39.2380956" lon="8.5044765"><ele>121.99999999999999</ele><time>2026-04-11T14:13:53.134Z</time></trkpt><trkpt lat="39.2381696" lon="8.5044418"><ele>122.0</ele><time>2026-04-11T14:13:55.137Z</time></trkpt><trkpt lat="39.2382767" lon="8.5044515"><ele>122.66666666666666</ele><time>2026-04-11T14:13:57.143Z</time></trkpt><trkpt lat="39.2383559" lon="8.5044909"><ele>123.33333333333333</ele><time>2026-04-11T14:13:59.146Z</time></trkpt><trkpt lat="39.238395" lon="8.5045829"><ele>124.0</ele><time>2026-04-11T14:14:01.134Z</time></trkpt><trkpt lat="39.2384256" lon="8.5046806"><ele>124.66666666666666</ele><time>2026-04-11T14:14:03.133Z</time></trkpt><trkpt lat="39.2385063" lon="8.5046968"><ele>125.33333333333333</ele><time>2026-04-11T14:14:06.144Z</time></trkpt><trkpt lat="39.2385808" lon="8.5046803"><ele>126.0</ele><time>2026-04-11T14:14:08.127Z</time></trkpt><trkpt lat="39.2386578" lon="8.5047149"><ele>125.14285714285714</ele><time>2026-04-11T14:14:10.157Z</time></trkpt><trkpt lat="39.2387178" lon="8.5047579"><ele>124.28571428571428</ele><time>2026-04-11T14:14:12.137Z</time></trkpt><trkpt lat="39.2387821" lon="8.5047789"><ele>123.42857142857143</ele><time>2026-04-11T14:14:57.132Z</time></trkpt><trkpt lat="39.2388589" lon="8.504798"><ele>122.57142857142857</ele><time>2026-04-11T14:14:59.128Z</time></trkpt><trkpt lat="39.2389291" lon="8.5048017"><ele>121.71428571428571</ele><time>2026-04-11T14:15:01.157Z</time></trkpt><trkpt lat="39.2389993" lon="8.5047724"><ele>120.85714285714286</ele><time>2026-04-11T14:15:03.15Z</time></trkpt><trkpt lat="39.2390394" lon="8.5047014"><ele>120.0</ele><time>2026-04-11T14:15:06.129Z</time></trkpt><trkpt lat="39.2390765" lon="8.504615"><ele>121.0</ele><time>2026-04-11T14:16:03.137Z</time></trkpt><trkpt lat="39.2390638" lon="8.5045107"><ele>122.0</ele><time>2026-04-11T14:16:06.147Z</time></trkpt><trkpt lat="39.2390737" lon="8.5044043"><ele>123.0</ele><time>2026-04-11T14:16:08.133Z</time></trkpt><trkpt lat="39.2390315" lon="8.5043275"><ele>124.0</ele><time>2026-04-11T14:16:50.124Z</time></trkpt><trkpt lat="39.2389861" lon="8.5042614"><ele>125.0</ele><time>2026-04-11T14:16:54.145Z</time></trkpt><trkpt lat="39.2389447" lon="8.5041749"><ele>126.0</ele><time>2026-04-11T14:16:58.117Z</time></trkpt><trkpt lat="39.2389328" lon="8.5040713"><ele>126.0</ele><time>2026-04-11T14:17:01.089Z</time></trkpt><trkpt lat="39.2389581" lon="8.5039655"><ele>126.0</ele><time>2026-04-11T14:17:03.13Z</time></trkpt><trkpt lat="39.2390085" lon="8.5039153"><ele>126.0</ele><time>2026-04-11T14:17:04.133Z</time></trkpt><trkpt lat="39.2390784" lon="8.5038593"><ele>126.0</ele><time>2026-04-11T14:17:05.137Z</time></trkpt><trkpt lat="39.2391582" lon="8.5037826"><ele>126.0</ele><time>2026-04-11T14:17:06.126Z</time></trkpt><trkpt lat="39.2392245" lon="8.5036952"><ele>126.0</ele><time>2026-04-11T14:17:07.129Z</time></trkpt><trkpt lat="39.2392776" lon="8.503608"><ele>127.19999999999999</ele><time>2026-04-11T14:17:08.143Z</time></trkpt><trkpt lat="39.2393336" lon="8.5035191"><ele>128.39999999999998</ele><time>2026-04-11T14:17:09.139Z</time></trkpt><trkpt lat="39.2393886" lon="8.5034181"><ele>129.6</ele><time>2026-04-11T14:17:10.136Z</time></trkpt><trkpt lat="39.2394455" lon="8.5033112"><ele>130.79999999999998</ele><time>2026-04-11T14:17:11.145Z</time></trkpt><trkpt lat="39.2394984" lon="8.5032264"><ele>132.0</ele><time>2026-04-11T14:17:12.132Z</time></trkpt><trkpt lat="39.2395778" lon="8.5031231"><ele>132.0</ele><time>2026-04-11T14:17:14.114Z</time></trkpt><trkpt lat="39.2396481" lon="8.5030616"><ele>132.0</ele><time>2026-04-11T14:17:16.076Z</time></trkpt><trkpt lat="39.2397137" lon="8.5030367"><ele>132.0</ele><time>2026-04-11T14:17:18.093Z</time></trkpt><trkpt lat="39.2398068" lon="8.5030327"><ele>132.0</ele><time>2026-04-11T14:17:20.147Z</time></trkpt><trkpt lat="39.2399251" lon="8.5029844"><ele>132.0</ele><time>2026-04-11T14:17:22.134Z</time></trkpt><trkpt lat="39.2399994" lon="8.5029491"><ele>131.83333333333334</ele><time>2026-04-11T14:17:23.114Z</time></trkpt><trkpt lat="39.2401167" lon="8.5028902"><ele>131.66666666666666</ele><time>2026-04-11T14:17:25.145Z</time></trkpt><trkpt lat="39.2401798" lon="8.5028565"><ele>131.5</ele><time>2026-04-11T14:17:26.134Z</time></trkpt><trkpt lat="39.240244" lon="8.5028161"><ele>131.33333333333331</ele><time>2026-04-11T14:17:27.141Z</time></trkpt><trkpt lat="39.2403086" lon="8.5027792"><ele>131.16666666666666</ele><time>2026-04-11T14:17:28.131Z</time></trkpt><trkpt lat="39.2403751" lon="8.5027327"><ele>131.0</ele><time>2026-04-11T14:17:29.155Z</time></trkpt><trkpt lat="39.2404376" lon="8.5026942"><ele>131.0</ele><time>2026-04-11T14:17:30.137Z</time></trkpt><trkpt lat="39.2405323" lon="8.5026664"><ele>131.0</ele><time>2026-04-11T14:17:32.125Z</time></trkpt><trkpt lat="39.2406056" lon="8.5026842"><ele>131.0</ele><time>2026-04-11T14:17:35.098Z</time></trkpt><trkpt lat="39.2406505" lon="8.502755"><ele>131.0</ele><time>2026-04-11T14:17:38.115Z</time></trkpt><trkpt lat="39.2406748" lon="8.502887"><ele>131.0</ele><time>2026-04-11T14:17:40.109Z</time></trkpt><trkpt lat="39.2407306" lon="8.5029848"><ele>131.0</ele><time>2026-04-11T14:17:42.133Z</time></trkpt><trkpt lat="39.2407945" lon="8.5030265"><ele>130.8</ele><time>2026-04-11T14:17:44.094Z</time></trkpt><trkpt lat="39.2408713" lon="8.5029811"><ele>130.6</ele><time>2026-04-11T14:17:47.137Z</time></trkpt><trkpt lat="39.2409349" lon="8.5028392"><ele>130.4</ele><time>2026-04-11T14:17:49.113Z</time></trkpt><trkpt lat="39.2409704" lon="8.5027463"><ele>130.2</ele><time>2026-04-11T14:17:50.125Z</time></trkpt><trkpt lat="39.2410107" lon="8.5026451"><ele>130.0</ele><time>2026-04-11T14:17:51.133Z</time></trkpt><trkpt lat="39.2410575" lon="8.5025525"><ele>130.0</ele><time>2026-04-11T14:17:52.14Z</time></trkpt><trkpt lat="39.2411019" lon="8.5024749"><ele>130.0</ele><time>2026-04-11T14:17:53.127Z</time></trkpt><trkpt lat="39.2411743" lon="8.5023534"><ele>130.0</ele><time>2026-04-11T14:17:55.13Z</time></trkpt><trkpt lat="39.2412155" lon="8.5022866"><ele>130.0</ele><time>2026-04-11T14:17:56.129Z</time></trkpt><trkpt lat="39.2412618" lon="8.5022142"><ele>130.0</ele><time>2026-04-11T14:17:57.134Z</time></trkpt><trkpt lat="39.2413071" lon="8.5021458"><ele>130.0</ele><time>2026-04-11T14:17:58.155Z</time></trkpt><trkpt lat="39.241372" lon="8.5021003"><ele>129.83333333333334</ele><time>2026-04-11T14:17:59.121Z</time></trkpt><trkpt lat="39.2414366" lon="8.502072"><ele>129.66666666666669</ele><time>2026-04-11T14:18:00.122Z</time></trkpt><trkpt lat="39.2415084" lon="8.5020503"><ele>129.5</ele><time>2026-04-11T14:18:01.135Z</time></trkpt><trkpt lat="39.2416021" lon="8.5020427"><ele>129.33333333333334</ele><time>2026-04-11T14:18:02.139Z</time></trkpt><trkpt lat="39.2417075" lon="8.5020393"><ele>129.16666666666666</ele><time>2026-04-11T14:18:03.131Z</time></trkpt><trkpt lat="39.2418074" lon="8.5020258"><ele>129.0</ele><time>2026-04-11T14:18:04.143Z</time></trkpt><trkpt lat="39.2419058" lon="8.5020122"><ele>129.0</ele><time>2026-04-11T14:18:05.091Z</time></trkpt><trkpt lat="39.2419935" lon="8.5020092"><ele>129.0</ele><time>2026-04-11T14:18:06.132Z</time></trkpt><trkpt lat="39.2420621" lon="8.5020147"><ele>129.0</ele><time>2026-04-11T14:18:07.146Z</time></trkpt><trkpt lat="39.2421753" lon="8.5020286"><ele>129.0</ele><time>2026-04-11T14:18:09.163Z</time></trkpt><trkpt lat="39.2422386" lon="8.5020481"><ele>129.0</ele><time>2026-04-11T14:18:10.136Z</time></trkpt><trkpt lat="39.2423073" lon="8.5020829"><ele>129.0</ele><time>2026-04-11T14:18:11.091Z</time></trkpt><trkpt lat="39.2423693" lon="8.5021437"><ele>133.6</ele><time>2026-04-11T14:18:12.11Z</time></trkpt><trkpt lat="39.2424269" lon="8.5022007"><ele>138.2</ele><time>2026-04-11T14:18:13.089Z</time></trkpt><trkpt lat="39.2425077" lon="8.5023145"><ele>142.79999999999998</ele><time>2026-04-11T14:18:15.12Z</time></trkpt><trkpt lat="39.2425574" lon="8.5024356"><ele>147.4</ele><time>2026-04-11T14:18:17.093Z</time></trkpt><trkpt lat="39.2426003" lon="8.5025178"><ele>152.0</ele><time>2026-04-11T14:18:18.121Z</time></trkpt><trkpt lat="39.2426443" lon="8.502645"><ele>152.0</ele><time>2026-04-11T14:18:20.139Z</time></trkpt><trkpt lat="39.2427552" lon="8.5026362"><ele>152.0</ele><time>2026-04-11T14:18:22.118Z</time></trkpt><trkpt lat="39.2428193" lon="8.5026118"><ele>152.0</ele><time>2026-04-11T14:18:23.133Z</time></trkpt><trkpt lat="39.2428769" lon="8.502577"><ele>152.0</ele><time>2026-04-11T14:18:24.143Z</time></trkpt><trkpt lat="39.242914" lon="8.5024355"><ele>152.0</ele><time>2026-04-11T14:18:26.13Z</time></trkpt><trkpt lat="39.2429819" lon="8.5022745"><ele>152.0</ele><time>2026-04-11T14:18:28.123Z</time></trkpt><trkpt lat="39.2430386" lon="8.502183"><ele>152.0</ele><time>2026-04-11T14:18:29.148Z</time></trkpt><trkpt lat="39.2430882" lon="8.5020976"><ele>152.0</ele><time>2026-04-11T14:18:30.151Z</time></trkpt><trkpt lat="39.2431372" lon="8.5020128"><ele>152.0</ele><time>2026-04-11T14:18:31.094Z</time></trkpt><trkpt lat="39.2431851" lon="8.5019256"><ele>152.0</ele><time>2026-04-11T14:18:32.126Z</time></trkpt><trkpt lat="39.2432259" lon="8.5018303"><ele>152.0</ele><time>2026-04-11T14:18:33.131Z</time></trkpt><trkpt lat="39.2432599" lon="8.5017452"><ele>154.16666666666666</ele><time>2026-04-11T14:18:34.149Z</time></trkpt><trkpt lat="39.2432904" lon="8.5016739"><ele>156.33333333333331</ele><time>2026-04-11T14:18:35.143Z</time></trkpt><trkpt lat="39.2433181" lon="8.5015816"><ele>158.5</ele><time>2026-04-11T14:18:36.137Z</time></trkpt><trkpt lat="39.2433442" lon="8.5014973"><ele>160.66666666666666</ele><time>2026-04-11T14:18:37.127Z</time></trkpt><trkpt lat="39.2433581" lon="8.5013286"><ele>162.83333333333334</ele><time>2026-04-11T14:18:39.136Z</time></trkpt><trkpt lat="39.24335" lon="8.5012472"><ele>165.0</ele><time>2026-04-11T14:18:40.136Z</time></trkpt><trkpt lat="39.2433399" lon="8.5011172"><ele>165.42857142857144</ele><time>2026-04-11T14:18:42.132Z</time></trkpt><trkpt lat="39.2433311" lon="8.501029"><ele>165.85714285714286</ele><time>2026-04-11T14:18:44.151Z</time></trkpt><trkpt lat="39.2433305" lon="8.5009471"><ele>166.28571428571428</ele><time>2026-04-11T14:18:47.126Z</time></trkpt><trkpt lat="39.243323" lon="8.500827"><ele>166.71428571428572</ele><time>2026-04-11T14:20:03.095Z</time></trkpt><trkpt lat="39.2433319" lon="8.5007237"><ele>167.14285714285714</ele><time>2026-04-11T14:20:06.126Z</time></trkpt><trkpt lat="39.2433498" lon="8.5006364"><ele>167.57142857142858</ele><time>2026-04-11T14:20:37.131Z</time></trkpt><trkpt lat="39.2433575" lon="8.5005519"><ele>168.0</ele><time>2026-04-11T14:20:38.156Z</time></trkpt><trkpt lat="39.2433607" lon="8.5004651"><ele>167.33333333333334</ele><time>2026-04-11T14:20:39.147Z</time></trkpt><trkpt lat="39.2433674" lon="8.5003682"><ele>166.66666666666666</ele><time>2026-04-11T14:20:40.155Z</time></trkpt><trkpt lat="39.2433698" lon="8.5002748"><ele>166.0</ele><time>2026-04-11T14:20:41.135Z</time></trkpt><trkpt lat="39.2433789" lon="8.5001844"><ele>165.33333333333331</ele><time>2026-04-11T14:20:42.132Z</time></trkpt><trkpt lat="39.2433838" lon="8.5000855"><ele>164.66666666666666</ele><time>2026-04-11T14:20:43.128Z</time></trkpt><trkpt lat="39.2433895" lon="8.4999924"><ele>164.0</ele><time>2026-04-11T14:20:44.138Z</time></trkpt><trkpt lat="39.2434016" lon="8.4998179"><ele>163.99999999999997</ele><time>2026-04-11T14:20:46.097Z</time></trkpt><trkpt lat="39.2433972" lon="8.4997296"><ele>164.0</ele><time>2026-04-11T14:20:47.109Z</time></trkpt><trkpt lat="39.243393" lon="8.4996438"><ele>164.0</ele><time>2026-04-11T14:20:48.087Z</time></trkpt><trkpt lat="39.2433917" lon="8.4995277"><ele>164.0</ele><time>2026-04-11T14:20:50.111Z</time></trkpt><trkpt lat="39.2433408" lon="8.4994786"><ele>164.0</ele><time>2026-04-11T14:20:55.134Z</time></trkpt><trkpt lat="39.2432832" lon="8.4994385"><ele>163.99999999999997</ele><time>2026-04-11T14:21:01.132Z</time></trkpt><trkpt lat="39.2432146" lon="8.4994096"><ele>164.0</ele><time>2026-04-11T14:21:05.137Z</time></trkpt><trkpt lat="39.2431466" lon="8.4994464"><ele>160.14285714285714</ele><time>2026-04-11T14:21:19.099Z</time></trkpt><trkpt lat="39.2430907" lon="8.4994904"><ele>156.28571428571428</ele><time>2026-04-11T14:21:36.083Z</time></trkpt><trkpt lat="39.2430258" lon="8.4995167"><ele>152.42857142857144</ele><time>2026-04-11T14:21:46.094Z</time></trkpt><trkpt lat="39.24301" lon="8.4994325"><ele>148.57142857142856</ele><time>2026-04-11T14:21:58.09Z</time></trkpt><trkpt lat="39.2429939" lon="8.4993519"><ele>144.71428571428572</ele><time>2026-04-11T14:22:11.139Z</time></trkpt><trkpt lat="39.2429214" lon="8.4992963"><ele>140.85714285714286</ele><time>2026-04-11T14:22:15.097Z</time></trkpt><trkpt lat="39.2429189" lon="8.499199"><ele>137.0</ele><time>2026-04-11T14:22:23.104Z</time></trkpt><trkpt lat="39.2428602" lon="8.4991409"><ele>137.0</ele><time>2026-04-11T14:22:27.108Z</time></trkpt><trkpt lat="39.2428044" lon="8.4990928"><ele>137.0</ele><time>2026-04-11T14:22:31.107Z</time></trkpt><trkpt lat="39.2427635" lon="8.4990105"><ele>137.0</ele><time>2026-04-11T14:22:35.105Z</time></trkpt><trkpt lat="39.2427162" lon="8.4989497"><ele>137.0</ele><time>2026-04-11T14:22:37.096Z</time></trkpt><trkpt lat="39.2426613" lon="8.4988419"><ele>137.0</ele><time>2026-04-11T14:22:39.109Z</time></trkpt><trkpt lat="39.2426457" lon="8.4986982"><ele>137.0</ele><time>2026-04-11T14:22:41.099Z</time></trkpt><trkpt lat="39.2426277" lon="8.4985602"><ele>136.0</ele><time>2026-04-11T14:22:43.088Z</time></trkpt><trkpt lat="39.2425895" lon="8.4984793"><ele>135.0</ele><time>2026-04-11T14:22:45.113Z</time></trkpt><trkpt lat="39.2425286" lon="8.498403"><ele>134.0</ele><time>2026-04-11T14:22:47.087Z</time></trkpt><trkpt lat="39.2424827" lon="8.4983136"><ele>133.0</ele><time>2026-04-11T14:22:49.124Z</time></trkpt><trkpt lat="39.2424221" lon="8.4982317"><ele>132.0</ele><time>2026-04-11T14:22:51.11Z</time></trkpt><trkpt lat="39.2423366" lon="8.4981291"><ele>131.0</ele><time>2026-04-11T14:22:53.127Z</time></trkpt><trkpt lat="39.2422587" lon="8.4980394"><ele>131.5</ele><time>2026-04-11T14:22:55.107Z</time></trkpt><trkpt lat="39.2421812" lon="8.4979836"><ele>132.0</ele><time>2026-04-11T14:22:57.125Z</time></trkpt><trkpt lat="39.2421172" lon="8.4979928"><ele>132.5</ele><time>2026-04-11T14:23:00.101Z</time></trkpt><trkpt lat="39.2421516" lon="8.4978752"><ele>133.0</ele><time>2026-04-11T14:23:33.124Z</time></trkpt><trkpt lat="39.2421815" lon="8.4977267"><ele>133.5</ele><time>2026-04-11T14:23:35.094Z</time></trkpt><trkpt lat="39.2422016" lon="8.4976417"><ele>134.0</ele><time>2026-04-11T14:23:38.124Z</time></trkpt><trkpt lat="39.2422375" lon="8.4975546"><ele>134.0</ele><time>2026-04-11T14:23:48.085Z</time></trkpt><trkpt lat="39.2422581" lon="8.4974705"><ele>134.0</ele><time>2026-04-11T14:23:50.115Z</time></trkpt><trkpt lat="39.242275" lon="8.4973737"><ele>134.0</ele><time>2026-04-11T14:23:52.128Z</time></trkpt><trkpt lat="39.2423133" lon="8.497273"><ele>134.0</ele><time>2026-04-11T14:23:55.103Z</time></trkpt><trkpt lat="39.2423397" lon="8.4971976"><ele>134.0</ele><time>2026-04-11T14:23:57.105Z</time></trkpt><trkpt lat="39.2423586" lon="8.4971001"><ele>134.0</ele><time>2026-04-11T14:23:59.103Z</time></trkpt><trkpt lat="39.2423825" lon="8.4970097"><ele>134.0</ele><time>2026-04-11T14:24:01.127Z</time></trkpt><trkpt lat="39.242399" lon="8.4968989"><ele>134.5</ele><time>2026-04-11T14:24:04.116Z</time></trkpt><trkpt lat="39.2424099" lon="8.4968074"><ele>135.0</ele><time>2026-04-11T14:24:06.131Z</time></trkpt><trkpt lat="39.2424207" lon="8.4967234"><ele>135.5</ele><time>2026-04-11T14:24:08.13Z</time></trkpt><trkpt lat="39.242447" lon="8.4966122"><ele>136.0</ele><time>2026-04-11T14:24:11.098Z</time></trkpt><trkpt lat="39.2424708" lon="8.4965209"><ele>136.5</ele><time>2026-04-11T14:24:13.089Z</time></trkpt><trkpt lat="39.2424835" lon="8.4963949"><ele>137.0</ele><time>2026-04-11T14:24:16.127Z</time></trkpt><trkpt lat="39.2424519" lon="8.4963106"><ele>137.4</ele><time>2026-04-11T14:24:18.082Z</time></trkpt><trkpt lat="39.2423863" lon="8.4961984"><ele>137.79999999999998</ele><time>2026-04-11T14:24:20.105Z</time></trkpt><trkpt lat="39.2423153" lon="8.496099"><ele>138.2</ele><time>2026-04-11T14:24:22.12Z</time></trkpt><trkpt lat="39.2422659" lon="8.4959653"><ele>138.6</ele><time>2026-04-11T14:24:24.129Z</time></trkpt><trkpt lat="39.242252" lon="8.4958417"><ele>139.0</ele><time>2026-04-11T14:24:26.103Z</time></trkpt><trkpt lat="39.2422475" lon="8.4957324"><ele>139.0</ele><time>2026-04-11T14:24:28.116Z</time></trkpt><trkpt lat="39.2422591" lon="8.4956207"><ele>139.0</ele><time>2026-04-11T14:24:31.127Z</time></trkpt><trkpt lat="39.2423192" lon="8.4955098"><ele>139.0</ele><time>2026-04-11T14:24:33.09Z</time></trkpt><trkpt lat="39.242377" lon="8.4953778"><ele>139.0</ele><time>2026-04-11T14:24:35.108Z</time></trkpt><trkpt lat="39.2423779" lon="8.4952678"><ele>139.0</ele><time>2026-04-11T14:24:37.099Z</time></trkpt><trkpt lat="39.2423775" lon="8.4951651"><ele>138.0</ele><time>2026-04-11T14:24:39.117Z</time></trkpt><trkpt lat="39.2424221" lon="8.4950587"><ele>137.0</ele><time>2026-04-11T14:24:41.097Z</time></trkpt><trkpt lat="39.2424541" lon="8.4949845"><ele>136.0</ele><time>2026-04-11T14:24:43.09Z</time></trkpt><trkpt lat="39.2424893" lon="8.4949152"><ele>135.0</ele><time>2026-04-11T14:24:46.095Z</time></trkpt><trkpt lat="39.2424975" lon="8.494817"><ele>134.0</ele><time>2026-04-11T14:24:49.102Z</time></trkpt><trkpt lat="39.2424377" lon="8.4947109"><ele>133.0</ele><time>2026-04-11T14:24:52.086Z</time></trkpt><trkpt lat="39.2423958" lon="8.4946294"><ele>132.4</ele><time>2026-04-11T14:24:54.101Z</time></trkpt><trkpt lat="39.2423568" lon="8.4945522"><ele>131.8</ele><time>2026-04-11T14:24:56.094Z</time></trkpt><trkpt lat="39.2423366" lon="8.4944332"><ele>131.2</ele><time>2026-04-11T14:24:59.149Z</time></trkpt><trkpt lat="39.2423814" lon="8.4942973"><ele>130.6</ele><time>2026-04-11T14:25:01.116Z</time></trkpt><trkpt lat="39.2424484" lon="8.494184"><ele>130.0</ele><time>2026-04-11T14:25:03.096Z</time></trkpt><trkpt lat="39.2424998" lon="8.4941185"><ele>130.0</ele><time>2026-04-11T14:25:05.126Z</time></trkpt><trkpt lat="39.2425622" lon="8.4940515"><ele>130.0</ele><time>2026-04-11T14:25:29.119Z</time></trkpt><trkpt lat="39.2426153" lon="8.4939889"><ele>130.0</ele><time>2026-04-11T14:25:32.118Z</time></trkpt><trkpt lat="39.2426396" lon="8.493891"><ele>130.0</ele><time>2026-04-11T14:25:51.138Z</time></trkpt><trkpt lat="39.2426909" lon="8.4937778"><ele>130.0</ele><time>2026-04-11T14:25:53.123Z</time></trkpt><trkpt lat="39.2427469" lon="8.4936624"><ele>130.0</ele><time>2026-04-11T14:25:55.11Z</time></trkpt><trkpt lat="39.2427958" lon="8.4935355"><ele>130.2</ele><time>2026-04-11T14:25:57.136Z</time></trkpt><trkpt lat="39.2428381" lon="8.4933874"><ele>130.4</ele><time>2026-04-11T14:25:59.108Z</time></trkpt><trkpt lat="39.2428915" lon="8.4932527"><ele>130.6</ele><time>2026-04-11T14:26:01.098Z</time></trkpt><trkpt lat="39.2429536" lon="8.4931093"><ele>130.8</ele><time>2026-04-11T14:26:03.116Z</time></trkpt><trkpt lat="39.2429917" lon="8.4930308"><ele>131.0</ele><time>2026-04-11T14:26:04.119Z</time></trkpt><trkpt lat="39.243032" lon="8.4929499"><ele>131.6</ele><time>2026-04-11T14:26:05.111Z</time></trkpt><trkpt lat="39.2430685" lon="8.4928695"><ele>132.2</ele><time>2026-04-11T14:26:06.102Z</time></trkpt><trkpt lat="39.2431223" lon="8.4927314"><ele>132.8</ele><time>2026-04-11T14:26:08.096Z</time></trkpt><trkpt lat="39.2431639" lon="8.4926051"><ele>133.4</ele><time>2026-04-11T14:26:10.135Z</time></trkpt><trkpt lat="39.2431927" lon="8.4924741"><ele>134.0</ele><time>2026-04-11T14:26:12.118Z</time></trkpt><trkpt lat="39.2432017" lon="8.4923079"><ele>134.16666666666666</ele><time>2026-04-11T14:26:14.108Z</time></trkpt><trkpt lat="39.243197" lon="8.4922129"><ele>134.33333333333331</ele><time>2026-04-11T14:26:15.142Z</time></trkpt><trkpt lat="39.2431788" lon="8.4921143"><ele>134.5</ele><time>2026-04-11T14:26:16.12Z</time></trkpt><trkpt lat="39.2431473" lon="8.4920365"><ele>134.66666666666666</ele><time>2026-04-11T14:26:17.106Z</time></trkpt><trkpt lat="39.2431058" lon="8.4919463"><ele>134.83333333333334</ele><time>2026-04-11T14:26:19.13Z</time></trkpt><trkpt lat="39.2431502" lon="8.4918211"><ele>135.0</ele><time>2026-04-11T14:26:21.111Z</time></trkpt><trkpt lat="39.2431831" lon="8.4916943"><ele>135.16666666666666</ele><time>2026-04-11T14:26:23.112Z</time></trkpt><trkpt lat="39.243197" lon="8.4915891"><ele>135.33333333333334</ele><time>2026-04-11T14:26:25.137Z</time></trkpt><trkpt lat="39.2432392" lon="8.4914416"><ele>135.5</ele><time>2026-04-11T14:26:27.14Z</time></trkpt><trkpt lat="39.2432636" lon="8.4913533"><ele>135.66666666666669</ele><time>2026-04-11T14:26:28.148Z</time></trkpt><trkpt lat="39.243298" lon="8.4912573"><ele>135.83333333333334</ele><time>2026-04-11T14:26:29.144Z</time></trkpt><trkpt lat="39.2433486" lon="8.4911611"><ele>136.0</ele><time>2026-04-11T14:26:30.104Z</time></trkpt><trkpt lat="39.2433947" lon="8.4910544"><ele>136.0</ele><time>2026-04-11T14:26:31.092Z</time></trkpt><trkpt lat="39.243441" lon="8.4909723"><ele>136.0</ele><time>2026-04-11T14:26:32.085Z</time></trkpt><trkpt lat="39.2434987" lon="8.4908998"><ele>136.0</ele><time>2026-04-11T14:26:33.093Z</time></trkpt><trkpt lat="39.2435506" lon="8.4908242"><ele>136.0</ele><time>2026-04-11T14:26:34.092Z</time></trkpt><trkpt lat="39.2435924" lon="8.4907226"><ele>136.0</ele><time>2026-04-11T14:26:35.134Z</time></trkpt><trkpt lat="39.2436196" lon="8.4906088"><ele>136.0</ele><time>2026-04-11T14:26:36.111Z</time></trkpt><trkpt lat="39.2436679" lon="8.4904904"><ele>137.16666666666669</ele><time>2026-04-11T14:26:37.113Z</time></trkpt><trkpt lat="39.2437197" lon="8.4904002"><ele>138.33333333333334</ele><time>2026-04-11T14:26:38.096Z</time></trkpt><trkpt lat="39.2437704" lon="8.4903264"><ele>139.5</ele><time>2026-04-11T14:26:39.094Z</time></trkpt><trkpt lat="39.2438084" lon="8.4902487"><ele>140.66666666666666</ele><time>2026-04-11T14:26:40.093Z</time></trkpt><trkpt lat="39.2438393" lon="8.4901618"><ele>141.83333333333331</ele><time>2026-04-11T14:26:41.108Z</time></trkpt><trkpt lat="39.243863" lon="8.4900643"><ele>143.0</ele><time>2026-04-11T14:26:42.109Z</time></trkpt><trkpt lat="39.2438934" lon="8.4899696"><ele>143.0</ele><time>2026-04-11T14:26:43.111Z</time></trkpt><trkpt lat="39.2439354" lon="8.4898852"><ele>143.0</ele><time>2026-04-11T14:26:44.126Z</time></trkpt><trkpt lat="39.2439733" lon="8.4897963"><ele>143.0</ele><time>2026-04-11T14:26:45.095Z</time></trkpt><trkpt lat="39.2440082" lon="8.4896856"><ele>143.0</ele><time>2026-04-11T14:26:46.096Z</time></trkpt><trkpt lat="39.2440322" lon="8.4895704"><ele>143.0</ele><time>2026-04-11T14:26:47.13Z</time></trkpt><trkpt lat="39.2440519" lon="8.4894846"><ele>143.0</ele><time>2026-04-11T14:26:48.111Z</time></trkpt><trkpt lat="39.2440887" lon="8.4893614"><ele>142.6</ele><time>2026-04-11T14:26:50.119Z</time></trkpt><trkpt lat="39.2440993" lon="8.4892582"><ele>142.20000000000002</ele><time>2026-04-11T14:26:52.103Z</time></trkpt><trkpt lat="39.2441022" lon="8.4891364"><ele>141.8</ele><time>2026-04-11T14:26:54.117Z</time></trkpt><trkpt lat="39.2441056" lon="8.4890246"><ele>141.4</ele><time>2026-04-11T14:26:56.12Z</time></trkpt><trkpt lat="39.2441364" lon="8.4888868"><ele>141.0</ele><time>2026-04-11T14:26:58.095Z</time></trkpt><trkpt lat="39.2441529" lon="8.488779"><ele>141.0</ele><time>2026-04-11T14:26:59.096Z</time></trkpt><trkpt lat="39.2441714" lon="8.4886717"><ele>141.0</ele><time>2026-04-11T14:27:00.118Z</time></trkpt><trkpt lat="39.2441928" lon="8.4885558"><ele>141.0</ele><time>2026-04-11T14:27:01.112Z</time></trkpt><trkpt lat="39.2442142" lon="8.4884484"><ele>141.0</ele><time>2026-04-11T14:27:02.12Z</time></trkpt><trkpt lat="39.2442396" lon="8.4883449"><ele>141.0</ele><time>2026-04-11T14:27:03.107Z</time></trkpt><trkpt lat="39.244264" lon="8.4882418"><ele>141.0</ele><time>2026-04-11T14:27:04.096Z</time></trkpt><trkpt lat="39.2443012" lon="8.4881452"><ele>141.0</ele><time>2026-04-11T14:27:05.092Z</time></trkpt><trkpt lat="39.2443425" lon="8.4880575"><ele>141.0</ele><time>2026-04-11T14:27:06.101Z</time></trkpt><trkpt lat="39.2443819" lon="8.4879463"><ele>141.0</ele><time>2026-04-11T14:27:07.125Z</time></trkpt><trkpt lat="39.2444239" lon="8.4878353"><ele>141.0</ele><time>2026-04-11T14:27:08.132Z</time></trkpt><trkpt lat="39.2444636" lon="8.4877317"><ele>141.0</ele><time>2026-04-11T14:27:09.108Z</time></trkpt><trkpt lat="39.2444975" lon="8.4876337"><ele>141.0</ele><time>2026-04-11T14:27:10.111Z</time></trkpt><trkpt lat="39.2445238" lon="8.4875395"><ele>140.5</ele><time>2026-04-11T14:27:11.111Z</time></trkpt><trkpt lat="39.2445467" lon="8.4874492"><ele>140.0</ele><time>2026-04-11T14:27:12.085Z</time></trkpt><trkpt lat="39.2445656" lon="8.4873615"><ele>139.5</ele><time>2026-04-11T14:27:13.103Z</time></trkpt><trkpt lat="39.2445858" lon="8.4872818"><ele>139.0</ele><time>2026-04-11T14:27:14.127Z</time></trkpt><trkpt lat="39.2445893" lon="8.4871386"><ele>138.5</ele><time>2026-04-11T14:27:16.091Z</time></trkpt><trkpt lat="39.2445713" lon="8.4869815"><ele>138.0</ele><time>2026-04-11T14:27:18.12Z</time></trkpt><trkpt lat="39.2445723" lon="8.4868988"><ele>136.33333333333334</ele><time>2026-04-11T14:27:19.106Z</time></trkpt><trkpt lat="39.2445849" lon="8.4867863"><ele>134.66666666666666</ele><time>2026-04-11T14:27:21.108Z</time></trkpt><trkpt lat="39.2445949" lon="8.4866914"><ele>133.0</ele><time>2026-04-11T14:27:47.11Z</time></trkpt><trkpt lat="39.2446202" lon="8.4866025"><ele>131.33333333333331</ele><time>2026-04-11T14:27:51.1Z</time></trkpt><trkpt lat="39.2446503" lon="8.4865311"><ele>129.66666666666666</ele><time>2026-04-11T14:28:19.117Z</time></trkpt><trkpt lat="39.244685" lon="8.4864173"><ele>128.0</ele><time>2026-04-11T14:28:21.144Z</time></trkpt><trkpt lat="39.2447194" lon="8.4862539"><ele>127.60000000000001</ele><time>2026-04-11T14:28:23.128Z</time></trkpt><trkpt lat="39.2447521" lon="8.4860919"><ele>127.20000000000002</ele><time>2026-04-11T14:28:25.118Z</time></trkpt><trkpt lat="39.2447705" lon="8.4859964"><ele>126.8</ele><time>2026-04-11T14:28:26.094Z</time></trkpt><trkpt lat="39.2447957" lon="8.4858936"><ele>126.4</ele><time>2026-04-11T14:28:27.086Z</time></trkpt><trkpt lat="39.2448137" lon="8.4858034"><ele>126.0</ele><time>2026-04-11T14:28:28.124Z</time></trkpt><trkpt lat="39.244824" lon="8.4856892"><ele>126.8</ele><time>2026-04-11T14:28:29.12Z</time></trkpt><trkpt lat="39.2448384" lon="8.4855522"><ele>127.6</ele><time>2026-04-11T14:28:30.103Z</time></trkpt><trkpt lat="39.2448542" lon="8.4854269"><ele>128.4</ele><time>2026-04-11T14:28:31.136Z</time></trkpt><trkpt lat="39.2448658" lon="8.4853165"><ele>129.2</ele><time>2026-04-11T14:28:32.108Z</time></trkpt><trkpt lat="39.2448864" lon="8.4852146"><ele>130.0</ele><time>2026-04-11T14:28:33.139Z</time></trkpt><trkpt lat="39.2449172" lon="8.4850867"><ele>130.0</ele><time>2026-04-11T14:28:34.137Z</time></trkpt><trkpt lat="39.2449586" lon="8.484959"><ele>130.0</ele><time>2026-04-11T14:28:35.135Z</time></trkpt><trkpt lat="39.2450063" lon="8.4848352"><ele>130.0</ele><time>2026-04-11T14:28:36.13Z</time></trkpt><trkpt lat="39.2450464" lon="8.4847303"><ele>130.0</ele><time>2026-04-11T14:28:37.12Z</time></trkpt><trkpt lat="39.2450746" lon="8.4846269"><ele>130.0</ele><time>2026-04-11T14:28:38.119Z</time></trkpt><trkpt lat="39.2450918" lon="8.4845243"><ele>129.66666666666669</ele><time>2026-04-11T14:28:39.114Z</time></trkpt><trkpt lat="39.245109" lon="8.4844132"><ele>129.33333333333334</ele><time>2026-04-11T14:28:40.094Z</time></trkpt><trkpt lat="39.2451267" lon="8.4843144"><ele>129.0</ele><time>2026-04-11T14:28:41.142Z</time></trkpt><trkpt lat="39.2451284" lon="8.4842235"><ele>128.66666666666666</ele><time>2026-04-11T14:28:42.111Z</time></trkpt><trkpt lat="39.2451284" lon="8.4841331"><ele>128.33333333333331</ele><time>2026-04-11T14:28:43.118Z</time></trkpt><trkpt lat="39.2451339" lon="8.4840514"><ele>128.0</ele><time>2026-04-11T14:28:44.124Z</time></trkpt><trkpt lat="39.2451313" lon="8.4839"><ele>127.2</ele><time>2026-04-11T14:28:46.132Z</time></trkpt><trkpt lat="39.2451253" lon="8.483744"><ele>126.4</ele><time>2026-04-11T14:28:48.137Z</time></trkpt><trkpt lat="39.2451094" lon="8.4836584"><ele>125.60000000000001</ele><time>2026-04-11T14:28:49.086Z</time></trkpt><trkpt lat="39.2450526" lon="8.4835482"><ele>124.80000000000001</ele><time>2026-04-11T14:28:51.122Z</time></trkpt><trkpt lat="39.2450107" lon="8.4834819"><ele>124.0</ele><time>2026-04-11T14:28:52.128Z</time></trkpt><trkpt lat="39.2449398" lon="8.4833757"><ele>124.00000000000001</ele><time>2026-04-11T14:28:54.079Z</time></trkpt><trkpt lat="39.2448417" lon="8.4833098"><ele>124.0</ele><time>2026-04-11T14:28:56.112Z</time></trkpt><trkpt lat="39.2447821" lon="8.4832817"><ele>124.0</ele><time>2026-04-11T14:28:57.128Z</time></trkpt><trkpt lat="39.2447254" lon="8.4832442"><ele>124.0</ele><time>2026-04-11T14:28:58.141Z</time></trkpt><trkpt lat="39.2446529" lon="8.4831391"><ele>124.00000000000001</ele><time>2026-04-11T14:29:00.11Z</time></trkpt><trkpt lat="39.2446086" lon="8.4830773"><ele>124.0</ele><time>2026-04-11T14:29:01.109Z</time></trkpt><trkpt lat="39.2445643" lon="8.483011"><ele>123.33333333333334</ele><time>2026-04-11T14:29:02.112Z</time></trkpt><trkpt lat="39.2445216" lon="8.4829492"><ele>122.66666666666667</ele><time>2026-04-11T14:29:03.114Z</time></trkpt><trkpt lat="39.2444344" lon="8.4828524"><ele>122.0</ele><time>2026-04-11T14:29:05.1Z</time></trkpt><trkpt lat="39.244391" lon="8.4827911"><ele>121.33333333333334</ele><time>2026-04-11T14:29:06.121Z</time></trkpt><trkpt lat="39.244348" lon="8.4827158"><ele>120.66666666666667</ele><time>2026-04-11T14:29:07.097Z</time></trkpt><trkpt lat="39.244307" lon="8.4826389"><ele>120.0</ele><time>2026-04-11T14:29:08.105Z</time></trkpt><trkpt lat="39.244269" lon="8.4825179"><ele>120.0</ele><time>2026-04-11T14:29:10.101Z</time></trkpt><trkpt lat="39.2442337" lon="8.4824198"><ele>120.0</ele><time>2026-04-11T14:29:13.119Z</time></trkpt><trkpt lat="39.2442176" lon="8.4823216"><ele>120.0</ele><time>2026-04-11T14:29:15.095Z</time></trkpt><trkpt lat="39.2442047" lon="8.4822405"><ele>120.0</ele><time>2026-04-11T14:29:18.1Z</time></trkpt><trkpt lat="39.2441826" lon="8.482145"><ele>120.0</ele><time>2026-04-11T14:29:22.105Z</time></trkpt><trkpt lat="39.2441515" lon="8.4820386"><ele>120.0</ele><time>2026-04-11T14:29:24.1Z</time></trkpt><trkpt lat="39.2441122" lon="8.4819323"><ele>120.4</ele><time>2026-04-11T14:29:26.105Z</time></trkpt><trkpt lat="39.244031" lon="8.4818595"><ele>120.8</ele><time>2026-04-11T14:29:28.108Z</time></trkpt><trkpt lat="39.243969" lon="8.4818278"><ele>121.19999999999999</ele><time>2026-04-11T14:29:29.082Z</time></trkpt><trkpt lat="39.2438594" lon="8.481773"><ele>121.6</ele><time>2026-04-11T14:29:31.117Z</time></trkpt><trkpt lat="39.2437456" lon="8.4817085"><ele>122.0</ele><time>2026-04-11T14:29:33.111Z</time></trkpt><trkpt lat="39.243636" lon="8.4816554"><ele>122.49999999999999</ele><time>2026-04-11T14:29:35.099Z</time></trkpt><trkpt lat="39.2435455" lon="8.4816353"><ele>123.0</ele><time>2026-04-11T14:29:36.095Z</time></trkpt><trkpt lat="39.2434603" lon="8.4816118"><ele>123.5</ele><time>2026-04-11T14:29:37.099Z</time></trkpt><trkpt lat="39.2433789" lon="8.4815727"><ele>124.0</ele><time>2026-04-11T14:29:38.075Z</time></trkpt><trkpt lat="39.2433081" lon="8.4815286"><ele>124.49999999999999</ele><time>2026-04-11T14:29:39.123Z</time></trkpt><trkpt lat="39.243233" lon="8.4814356"><ele>125.0</ele><time>2026-04-11T14:29:41.127Z</time></trkpt><trkpt lat="39.2431784" lon="8.4813311"><ele>124.66666666666666</ele><time>2026-04-11T14:29:43.108Z</time></trkpt><trkpt lat="39.2431071" lon="8.4812683"><ele>124.33333333333333</ele><time>2026-04-11T14:29:45.103Z</time></trkpt><trkpt lat="39.2430687" lon="8.4812031"><ele>124.0</ele><time>2026-04-11T14:29:50.1Z</time></trkpt><trkpt lat="39.2431211" lon="8.4811452"><ele>123.66666666666666</ele><time>2026-04-11T14:29:54.097Z</time></trkpt><trkpt lat="39.243209" lon="8.4811968"><ele>123.33333333333333</ele><time>2026-04-11T14:30:13.126Z</time></trkpt><trkpt lat="39.2432883" lon="8.4812227"><ele>123.0</ele><time>2026-04-11T14:30:15.117Z</time></trkpt><trkpt lat="39.243369" lon="8.4812261"><ele>124.2</ele><time>2026-04-11T14:30:17.125Z</time></trkpt><trkpt lat="39.2434257" lon="8.4811519"><ele>125.4</ele><time>2026-04-11T14:30:20.127Z</time></trkpt><trkpt lat="39.2434822" lon="8.4810466"><ele>126.60000000000001</ele><time>2026-04-11T14:31:02.111Z</time></trkpt><trkpt lat="39.2435268" lon="8.4809509"><ele>127.80000000000001</ele><time>2026-04-11T14:31:04.112Z</time></trkpt><trkpt lat="39.2435846" lon="8.4808318"><ele>129.0</ele><time>2026-04-11T14:31:06.123Z</time></trkpt><trkpt lat="39.2436346" lon="8.4807398"><ele>129.0</ele><time>2026-04-11T14:31:08.125Z</time></trkpt><trkpt lat="39.2436759" lon="8.480665"><ele>129.0</ele><time>2026-04-11T14:31:11.123Z</time></trkpt><trkpt lat="39.2437231" lon="8.4805961"><ele>129.0</ele><time>2026-04-11T14:31:48.137Z</time></trkpt><trkpt lat="39.2437629" lon="8.4805207"><ele>129.0</ele><time>2026-04-11T14:31:49.125Z</time></trkpt><trkpt lat="39.2438114" lon="8.480427"><ele>129.0</ele><time>2026-04-11T14:31:50.125Z</time></trkpt><trkpt lat="39.24387" lon="8.480328"><ele>129.0</ele><time>2026-04-11T14:31:51.105Z</time></trkpt><trkpt lat="39.2439324" lon="8.4802332"><ele>130.33333333333334</ele><time>2026-04-11T14:31:52.114Z</time></trkpt><trkpt lat="39.2439881" lon="8.480138"><ele>131.66666666666666</ele><time>2026-04-11T14:31:53.124Z</time></trkpt><trkpt lat="39.2440476" lon="8.4800475"><ele>133.0</ele><time>2026-04-11T14:31:54.102Z</time></trkpt><trkpt lat="39.2441038" lon="8.4799658"><ele>134.33333333333331</ele><time>2026-04-11T14:31:55.099Z</time></trkpt><trkpt lat="39.2441542" lon="8.47989"><ele>135.66666666666666</ele><time>2026-04-11T14:31:56.151Z</time></trkpt><trkpt lat="39.2442061" lon="8.4798075"><ele>137.0</ele><time>2026-04-11T14:31:57.101Z</time></trkpt><trkpt lat="39.2442546" lon="8.4797214"><ele>137.0</ele><time>2026-04-11T14:31:58.102Z</time></trkpt><trkpt lat="39.2443111" lon="8.4796255"><ele>137.0</ele><time>2026-04-11T14:31:59.13Z</time></trkpt><trkpt lat="39.2443748" lon="8.4795259"><ele>137.0</ele><time>2026-04-11T14:32:00.103Z</time></trkpt><trkpt lat="39.2444415" lon="8.4794222"><ele>137.0</ele><time>2026-04-11T14:32:01.102Z</time></trkpt><trkpt lat="39.2445061" lon="8.4793171"><ele>137.0</ele><time>2026-04-11T14:32:02.128Z</time></trkpt><trkpt lat="39.2445687" lon="8.4792065"><ele>137.5</ele><time>2026-04-11T14:32:03.131Z</time></trkpt><trkpt lat="39.2446393" lon="8.4790904"><ele>138.0</ele><time>2026-04-11T14:32:04.11Z</time></trkpt><trkpt lat="39.2447159" lon="8.4789633"><ele>138.5</ele><time>2026-04-11T14:32:05.139Z</time></trkpt><trkpt lat="39.2447853" lon="8.4788432"><ele>139.0</ele><time>2026-04-11T14:32:06.151Z</time></trkpt><trkpt lat="39.2448501" lon="8.4787463"><ele>140.16666666666669</ele><time>2026-04-11T14:32:07.102Z</time></trkpt><trkpt lat="39.244905" lon="8.4786631"><ele>141.33333333333334</ele><time>2026-04-11T14:32:08.098Z</time></trkpt><trkpt lat="39.2449573" lon="8.4785884"><ele>142.5</ele><time>2026-04-11T14:32:09.132Z</time></trkpt><trkpt lat="39.2450163" lon="8.4785141"><ele>143.66666666666666</ele><time>2026-04-11T14:32:10.103Z</time></trkpt><trkpt lat="39.2450741" lon="8.4784336"><ele>144.83333333333331</ele><time>2026-04-11T14:32:11.124Z</time></trkpt><trkpt lat="39.2451367" lon="8.4783475"><ele>146.0</ele><time>2026-04-11T14:32:12.132Z</time></trkpt><trkpt lat="39.2452039" lon="8.4782599"><ele>146.0</ele><time>2026-04-11T14:32:13.106Z</time></trkpt><trkpt lat="39.2452784" lon="8.4781817"><ele>146.0</ele><time>2026-04-11T14:32:14.11Z</time></trkpt><trkpt lat="39.2453558" lon="8.4781031"><ele>146.0</ele><time>2026-04-11T14:32:15.085Z</time></trkpt><trkpt lat="39.2454305" lon="8.4780201"><ele>146.0</ele><time>2026-04-11T14:32:16.092Z</time></trkpt><trkpt lat="39.2454954" lon="8.4779361"><ele>146.0</ele><time>2026-04-11T14:32:17.145Z</time></trkpt><trkpt lat="39.2455636" lon="8.477853"><ele>145.4</ele><time>2026-04-11T14:32:18.143Z</time></trkpt><trkpt lat="39.2456293" lon="8.4777666"><ele>144.8</ele><time>2026-04-11T14:32:19.139Z</time></trkpt><trkpt lat="39.245705" lon="8.4776818"><ele>144.20000000000002</ele><time>2026-04-11T14:32:20.139Z</time></trkpt><trkpt lat="39.2457814" lon="8.4775915"><ele>143.6</ele><time>2026-04-11T14:32:21.15Z</time></trkpt><trkpt lat="39.2458594" lon="8.477496"><ele>143.0</ele><time>2026-04-11T14:32:22.169Z</time></trkpt><trkpt lat="39.2459324" lon="8.4773939"><ele>143.0</ele><time>2026-04-11T14:32:23.166Z</time></trkpt><trkpt lat="39.2460128" lon="8.4772958"><ele>143.0</ele><time>2026-04-11T14:32:24.152Z</time></trkpt><trkpt lat="39.2460974" lon="8.4772042"><ele>143.0</ele><time>2026-04-11T14:32:25.158Z</time></trkpt><trkpt lat="39.2461727" lon="8.4771192"><ele>143.0</ele><time>2026-04-11T14:32:26.161Z</time></trkpt><trkpt lat="39.2462434" lon="8.4770287"><ele>143.0</ele><time>2026-04-11T14:32:27.139Z</time></trkpt><trkpt lat="39.2463077" lon="8.4769518"><ele>143.5</ele><time>2026-04-11T14:32:28.163Z</time></trkpt><trkpt lat="39.246368" lon="8.4768773"><ele>144.0</ele><time>2026-04-11T14:32:29.121Z</time></trkpt><trkpt lat="39.2464266" lon="8.4768002"><ele>144.5</ele><time>2026-04-11T14:32:30.163Z</time></trkpt><trkpt lat="39.2464883" lon="8.4767171"><ele>145.0</ele><time>2026-04-11T14:32:31.128Z</time></trkpt><trkpt lat="39.2465485" lon="8.4766364"><ele>145.5</ele><time>2026-04-11T14:32:32.151Z</time></trkpt><trkpt lat="39.2465996" lon="8.476552"><ele>146.0</ele><time>2026-04-11T14:32:33.139Z</time></trkpt><trkpt lat="39.2466455" lon="8.4764623"><ele>146.0</ele><time>2026-04-11T14:32:34.153Z</time></trkpt><trkpt lat="39.2466814" lon="8.4763951"><ele>146.0</ele><time>2026-04-11T14:32:35.14Z</time></trkpt><trkpt lat="39.2467257" lon="8.4762646"><ele>146.0</ele><time>2026-04-11T14:32:37.136Z</time></trkpt><trkpt lat="39.2468168" lon="8.4762293"><ele>146.0</ele><time>2026-04-11T14:32:39.149Z</time></trkpt><trkpt lat="39.2469301" lon="8.4761602"><ele>146.0</ele><time>2026-04-11T14:32:41.142Z</time></trkpt><trkpt lat="39.2469891" lon="8.476097"><ele>145.4</ele><time>2026-04-11T14:32:42.156Z</time></trkpt><trkpt lat="39.2470484" lon="8.4760199"><ele>144.8</ele><time>2026-04-11T14:32:43.159Z</time></trkpt><trkpt lat="39.2471139" lon="8.4759148"><ele>144.20000000000002</ele><time>2026-04-11T14:32:44.128Z</time></trkpt><trkpt lat="39.2471737" lon="8.4758223"><ele>143.6</ele><time>2026-04-11T14:32:45.145Z</time></trkpt><trkpt lat="39.2472332" lon="8.4757348"><ele>143.0</ele><time>2026-04-11T14:32:46.102Z</time></trkpt><trkpt lat="39.2472954" lon="8.475668"><ele>143.0</ele><time>2026-04-11T14:32:47.153Z</time></trkpt><trkpt lat="39.2473764" lon="8.4756004"><ele>143.0</ele><time>2026-04-11T14:32:48.137Z</time></trkpt><trkpt lat="39.2474595" lon="8.475521"><ele>143.0</ele><time>2026-04-11T14:32:49.135Z</time></trkpt><trkpt lat="39.2475343" lon="8.4754467"><ele>143.0</ele><time>2026-04-11T14:32:50.096Z</time></trkpt><trkpt lat="39.2476155" lon="8.4753746"><ele>143.0</ele><time>2026-04-11T14:32:51.135Z</time></trkpt><trkpt lat="39.247683" lon="8.4752994"><ele>142.4</ele><time>2026-04-11T14:32:52.148Z</time></trkpt><trkpt lat="39.2477486" lon="8.475222"><ele>141.8</ele><time>2026-04-11T14:32:53.144Z</time></trkpt><trkpt lat="39.2478096" lon="8.4751083"><ele>141.2</ele><time>2026-04-11T14:32:54.14Z</time></trkpt><trkpt lat="39.2478633" lon="8.474991"><ele>140.6</ele><time>2026-04-11T14:32:55.131Z</time></trkpt><trkpt lat="39.2479162" lon="8.4748894"><ele>140.0</ele><time>2026-04-11T14:32:56.147Z</time></trkpt><trkpt lat="39.247971" lon="8.474785"><ele>140.0</ele><time>2026-04-11T14:32:57.149Z</time></trkpt><trkpt lat="39.2480253" lon="8.4746931"><ele>140.0</ele><time>2026-04-11T14:32:58.136Z</time></trkpt><trkpt lat="39.2480722" lon="8.4745994"><ele>140.0</ele><time>2026-04-11T14:32:59.13Z</time></trkpt><trkpt lat="39.2481028" lon="8.474504"><ele>140.0</ele><time>2026-04-11T14:33:00.115Z</time></trkpt><trkpt lat="39.2481267" lon="8.4744165"><ele>140.0</ele><time>2026-04-11T14:33:01.165Z</time></trkpt><trkpt lat="39.2481853" lon="8.4742846"><ele>140.0</ele><time>2026-04-11T14:33:03.138Z</time></trkpt><trkpt lat="39.2482782" lon="8.4741976"><ele>138.33333333333331</ele><time>2026-04-11T14:33:05.135Z</time></trkpt><trkpt lat="39.2483326" lon="8.4741547"><ele>136.66666666666666</ele><time>2026-04-11T14:33:06.142Z</time></trkpt><trkpt lat="39.2483897" lon="8.4741141"><ele>135.0</ele><time>2026-04-11T14:33:07.141Z</time></trkpt><trkpt lat="39.2484759" lon="8.474049"><ele>133.33333333333334</ele><time>2026-04-11T14:33:09.143Z</time></trkpt><trkpt lat="39.2485614" lon="8.474032"><ele>131.66666666666669</ele><time>2026-04-11T14:33:11.148Z</time></trkpt><trkpt lat="39.2486484" lon="8.4740397"><ele>130.0</ele><time>2026-04-11T14:33:13.134Z</time></trkpt><trkpt lat="39.2486833" lon="8.4741155"><ele>130.0</ele><time>2026-04-11T14:33:15.124Z</time></trkpt><trkpt lat="39.2486992" lon="8.4742141"><ele>130.0</ele><time>2026-04-11T14:33:17.135Z</time></trkpt><trkpt lat="39.2487634" lon="8.4742184"><ele>130.0</ele><time>2026-04-11T14:33:20.132Z</time></trkpt><trkpt lat="39.2488667" lon="8.4741982"><ele>130.0</ele><time>2026-04-11T14:33:22.137Z</time></trkpt><trkpt lat="39.2489666" lon="8.4741785"><ele>130.0</ele><time>2026-04-11T14:33:24.149Z</time></trkpt><trkpt lat="39.2490359" lon="8.4741966"><ele>130.0</ele><time>2026-04-11T14:33:26.123Z</time></trkpt><trkpt lat="39.2491023" lon="8.4742419"><ele>130.33333333333334</ele><time>2026-04-11T14:33:28.128Z</time></trkpt><trkpt lat="39.2491374" lon="8.4743116"><ele>130.66666666666669</ele><time>2026-04-11T14:33:31.175Z</time></trkpt><trkpt lat="39.2491438" lon="8.474435"><ele>131.0</ele><time>2026-04-11T14:33:33.132Z</time></trkpt><trkpt lat="39.2491449" lon="8.4745773"><ele>131.33333333333334</ele><time>2026-04-11T14:33:35.148Z</time></trkpt><trkpt lat="39.2491334" lon="8.4747136"><ele>131.66666666666666</ele><time>2026-04-11T14:33:37.089Z</time></trkpt><trkpt lat="39.2491023" lon="8.4747898"><ele>132.0</ele><time>2026-04-11T14:33:38.091Z</time></trkpt><trkpt lat="39.2490668" lon="8.4748638"><ele>133.14285714285714</ele><time>2026-04-11T14:33:39.099Z</time></trkpt><trkpt lat="39.2490262" lon="8.474932"><ele>134.28571428571428</ele><time>2026-04-11T14:33:40.082Z</time></trkpt><trkpt lat="39.2489881" lon="8.4749991"><ele>135.42857142857144</ele><time>2026-04-11T14:33:41.084Z</time></trkpt><trkpt lat="39.2489467" lon="8.47507"><ele>136.57142857142856</ele><time>2026-04-11T14:33:42.08Z</time></trkpt><trkpt lat="39.2488999" lon="8.4751699"><ele>137.71428571428572</ele><time>2026-04-11T14:33:44.079Z</time></trkpt><trkpt lat="39.2489187" lon="8.4752554"><ele>138.85714285714286</ele><time>2026-04-11T14:33:53.08Z</time></trkpt><trkpt lat="39.2489595" lon="8.475337"><ele>140.0</ele><time>2026-04-11T14:33:58.145Z</time></trkpt><trkpt lat="39.2490141" lon="8.4753996"><ele>141.0</ele><time>2026-04-11T14:34:02.099Z</time></trkpt><trkpt lat="39.2490663" lon="8.4754731"><ele>142.0</ele><time>2026-04-11T14:34:05.125Z</time></trkpt><trkpt lat="39.2490999" lon="8.4755497"><ele>143.0</ele><time>2026-04-11T14:34:08.093Z</time></trkpt><trkpt lat="39.249149" lon="8.4756273"><ele>144.0</ele><time>2026-04-11T14:34:11.123Z</time></trkpt><trkpt lat="39.2492313" lon="8.4757697"><ele>145.0</ele><time>2026-04-11T14:34:13.119Z</time></trkpt><trkpt lat="39.24929" lon="8.4758755"><ele>145.0</ele><time>2026-04-11T14:34:14.13Z</time></trkpt><trkpt lat="39.2493421" lon="8.4759657"><ele>145.0</ele><time>2026-04-11T14:34:15.143Z</time></trkpt><trkpt lat="39.2493878" lon="8.4760651"><ele>145.0</ele><time>2026-04-11T14:34:17.142Z</time></trkpt><trkpt lat="39.2494199" lon="8.4761557"><ele>145.0</ele><time>2026-04-11T14:34:19.129Z</time></trkpt><trkpt lat="39.2494582" lon="8.4763111"><ele>145.0</ele><time>2026-04-11T14:34:21.141Z</time></trkpt><trkpt lat="39.2494866" lon="8.4763888"><ele>145.0</ele><time>2026-04-11T14:34:22.152Z</time></trkpt><trkpt lat="39.2495287" lon="8.4764754"><ele>144.14285714285714</ele><time>2026-04-11T14:34:24.123Z</time></trkpt><trkpt lat="39.2495732" lon="8.4765389"><ele>143.2857142857143</ele><time>2026-04-11T14:34:29.109Z</time></trkpt><trkpt lat="39.2496128" lon="8.4766074"><ele>142.42857142857144</ele><time>2026-04-11T14:34:33.117Z</time></trkpt><trkpt lat="39.2496492" lon="8.4766887"><ele>141.57142857142858</ele><time>2026-04-11T14:34:37.085Z</time></trkpt><trkpt lat="39.2496837" lon="8.4767948"><ele>140.71428571428572</ele><time>2026-04-11T14:34:40.109Z</time></trkpt><trkpt lat="39.2497123" lon="8.4768755"><ele>139.85714285714286</ele><time>2026-04-11T14:34:42.121Z</time></trkpt><trkpt lat="39.2497422" lon="8.476949"><ele>139.0</ele><time>2026-04-11T14:34:44.103Z</time></trkpt><trkpt lat="39.2497753" lon="8.4770277"><ele>136.83333333333334</ele><time>2026-04-11T14:34:47.132Z</time></trkpt><trkpt lat="39.249799" lon="8.477106"><ele>134.66666666666669</ele><time>2026-04-11T14:34:50.127Z</time></trkpt><trkpt lat="39.2498179" lon="8.4771984"><ele>132.5</ele><time>2026-04-11T14:35:47.16Z</time></trkpt><trkpt lat="39.2498983" lon="8.4772248"><ele>130.33333333333334</ele><time>2026-04-11T14:36:01.131Z</time></trkpt><trkpt lat="39.2499615" lon="8.4771664"><ele>128.16666666666666</ele><time>2026-04-11T14:36:04.133Z</time></trkpt><trkpt lat="39.2500112" lon="8.4770931"><ele>126.0</ele><time>2026-04-11T14:36:07.132Z</time></trkpt><trkpt lat="39.2500815" lon="8.4770126"><ele>125.57142857142857</ele><time>2026-04-11T14:36:10.147Z</time></trkpt><trkpt lat="39.2501364" lon="8.4769647"><ele>125.14285714285714</ele><time>2026-04-11T14:36:12.109Z</time></trkpt><trkpt lat="39.2502168" lon="8.4769318"><ele>124.71428571428572</ele><time>2026-04-11T14:36:14.136Z</time></trkpt><trkpt lat="39.2502922" lon="8.4768981"><ele>124.28571428571429</ele><time>2026-04-11T14:36:17.123Z</time></trkpt><trkpt lat="39.2503583" lon="8.4768779"><ele>123.85714285714286</ele><time>2026-04-11T14:36:21.131Z</time></trkpt><trkpt lat="39.2504221" lon="8.4768614"><ele>123.42857142857144</ele><time>2026-04-11T14:36:34.118Z</time></trkpt><trkpt lat="39.2504709" lon="8.4768063"><ele>123.00000000000001</ele><time>2026-04-11T14:36:40.139Z</time></trkpt><trkpt lat="39.2505131" lon="8.476716"><ele>123.00000000000001</ele><time>2026-04-11T14:36:54.124Z</time></trkpt><trkpt lat="39.2505601" lon="8.4766369"><ele>123.0</ele><time>2026-04-11T14:36:58.124Z</time></trkpt><trkpt lat="39.2505885" lon="8.4765454"><ele>123.00000000000001</ele><time>2026-04-11T14:37:01.129Z</time></trkpt><trkpt lat="39.2506228" lon="8.4764698"><ele>123.00000000000001</ele><time>2026-04-11T14:37:04.146Z</time></trkpt><trkpt lat="39.2506524" lon="8.4763976"><ele>123.0</ele><time>2026-04-11T14:37:06.107Z</time></trkpt><trkpt lat="39.2506984" lon="8.4763414"><ele>123.00000000000001</ele><time>2026-04-11T14:37:09.121Z</time></trkpt><trkpt lat="39.2507196" lon="8.4762462"><ele>123.00000000000001</ele><time>2026-04-11T14:37:13.121Z</time></trkpt><trkpt lat="39.2507569" lon="8.4761734"><ele>120.66666666666667</ele><time>2026-04-11T14:37:16.14Z</time></trkpt><trkpt lat="39.2508157" lon="8.4761099"><ele>118.33333333333334</ele><time>2026-04-11T14:37:19.129Z</time></trkpt><trkpt lat="39.2508775" lon="8.4760903"><ele>116.0</ele><time>2026-04-11T14:37:24.103Z</time></trkpt><trkpt lat="39.2509454" lon="8.4760698"><ele>113.66666666666667</ele><time>2026-04-11T14:37:27.136Z</time></trkpt><trkpt lat="39.2510137" lon="8.4760288"><ele>111.33333333333334</ele><time>2026-04-11T14:37:31.118Z</time></trkpt><trkpt lat="39.2510589" lon="8.4759342"><ele>109.0</ele><time>2026-04-11T14:37:39.132Z</time></trkpt><trkpt lat="39.2511059" lon="8.4758535"><ele>109.00000000000001</ele><time>2026-04-11T14:37:42.115Z</time></trkpt><trkpt lat="39.2511623" lon="8.475805"><ele>109.0</ele><time>2026-04-11T14:37:44.114Z</time></trkpt><trkpt lat="39.2512363" lon="8.4757464"><ele>109.0</ele><time>2026-04-11T14:37:46.123Z</time></trkpt><trkpt lat="39.2512906" lon="8.4756956"><ele>109.0</ele><time>2026-04-11T14:37:48.122Z</time></trkpt><trkpt lat="39.2513369" lon="8.4756332"><ele>109.00000000000001</ele><time>2026-04-11T14:37:50.131Z</time></trkpt><trkpt lat="39.2513905" lon="8.4755504"><ele>109.0</ele><time>2026-04-11T14:37:52.083Z</time></trkpt><trkpt lat="39.2514486" lon="8.4754823"><ele>109.50000000000001</ele><time>2026-04-11T14:37:54.122Z</time></trkpt><trkpt lat="39.2515294" lon="8.475486"><ele>110.0</ele><time>2026-04-11T14:37:56.15Z</time></trkpt><trkpt lat="39.2516184" lon="8.4754913"><ele>110.5</ele><time>2026-04-11T14:37:58.132Z</time></trkpt><trkpt lat="39.2516887" lon="8.475457"><ele>111.0</ele><time>2026-04-11T14:38:00.135Z</time></trkpt><trkpt lat="39.2517198" lon="8.475374"><ele>111.50000000000001</ele><time>2026-04-11T14:38:02.088Z</time></trkpt><trkpt lat="39.2517309" lon="8.4752664"><ele>112.0</ele><time>2026-04-11T14:38:04.139Z</time></trkpt><trkpt lat="39.2517328" lon="8.4751538"><ele>109.16666666666667</ele><time>2026-04-11T14:38:06.154Z</time></trkpt><trkpt lat="39.2517641" lon="8.4750197"><ele>106.33333333333334</ele><time>2026-04-11T14:38:08.121Z</time></trkpt><trkpt lat="39.2518027" lon="8.474908"><ele>103.5</ele><time>2026-04-11T14:38:10.134Z</time></trkpt><trkpt lat="39.2518512" lon="8.4748382"><ele>100.66666666666667</ele><time>2026-04-11T14:38:13.14Z</time></trkpt><trkpt lat="39.2519152" lon="8.4748057"><ele>97.83333333333334</ele><time>2026-04-11T14:38:53.095Z</time></trkpt><trkpt lat="39.2519669" lon="8.4747533"><ele>95.0</ele><time>2026-04-11T14:39:07.121Z</time></trkpt><trkpt lat="39.2519262" lon="8.4746881"><ele>95.0</ele><time>2026-04-11T14:39:11.14Z</time></trkpt><trkpt lat="39.2518603" lon="8.4746767"><ele>95.0</ele><time>2026-04-11T14:39:15.134Z</time></trkpt><trkpt lat="39.2517831" lon="8.4746807"><ele>95.0</ele><time>2026-04-11T14:39:19.134Z</time></trkpt><trkpt lat="39.2517467" lon="8.4745975"><ele>95.0</ele><time>2026-04-11T14:39:22.139Z</time></trkpt><trkpt lat="39.251713" lon="8.4744873"><ele>95.0</ele><time>2026-04-11T14:39:24.122Z</time></trkpt><trkpt lat="39.2516855" lon="8.4743804"><ele>95.0</ele><time>2026-04-11T14:39:26.133Z</time></trkpt><trkpt lat="39.251654" lon="8.4743003"><ele>93.5</ele><time>2026-04-11T14:39:28.142Z</time></trkpt><trkpt lat="39.2516451" lon="8.4742152"><ele>92.0</ele><time>2026-04-11T14:39:30.14Z</time></trkpt><trkpt lat="39.2516794" lon="8.4741351"><ele>90.5</ele><time>2026-04-11T14:39:32.124Z</time></trkpt><trkpt lat="39.2517233" lon="8.4740433"><ele>89.0</ele><time>2026-04-11T14:39:34.135Z</time></trkpt><trkpt lat="39.251746" lon="8.4739386"><ele>87.5</ele><time>2026-04-11T14:39:37.128Z</time></trkpt><trkpt lat="39.2517713" lon="8.4738422"><ele>86.0</ele><time>2026-04-11T14:39:39.128Z</time></trkpt><trkpt lat="39.2517984" lon="8.4737058"><ele>85.19999999999999</ele><time>2026-04-11T14:39:41.139Z</time></trkpt><trkpt lat="39.2518584" lon="8.4735916"><ele>84.39999999999999</ele><time>2026-04-11T14:39:43.124Z</time></trkpt><trkpt lat="39.2519488" lon="8.4735029"><ele>83.6</ele><time>2026-04-11T14:39:45.131Z</time></trkpt><trkpt lat="39.2520484" lon="8.4734407"><ele>82.8</ele><time>2026-04-11T14:39:47.124Z</time></trkpt><trkpt lat="39.2521428" lon="8.4734103"><ele>82.0</ele><time>2026-04-11T14:39:49.127Z</time></trkpt><trkpt lat="39.2522548" lon="8.4733947"><ele>81.0</ele><time>2026-04-11T14:39:51.127Z</time></trkpt><trkpt lat="39.2523705" lon="8.4733565"><ele>80.0</ele><time>2026-04-11T14:39:53.112Z</time></trkpt><trkpt lat="39.2524315" lon="8.4733144"><ele>79.0</ele><time>2026-04-11T14:39:54.139Z</time></trkpt><trkpt lat="39.2525337" lon="8.4732466"><ele>78.0</ele><time>2026-04-11T14:39:56.141Z</time></trkpt><trkpt lat="39.2526087" lon="8.4731794"><ele>77.0</ele><time>2026-04-11T14:39:58.145Z</time></trkpt><trkpt lat="39.252666" lon="8.4730922"><ele>77.0</ele><time>2026-04-11T14:40:00.128Z</time></trkpt><trkpt lat="39.2526769" lon="8.473"><ele>77.0</ele><time>2026-04-11T14:40:03.125Z</time></trkpt><trkpt lat="39.2526123" lon="8.4729161"><ele>77.0</ele><time>2026-04-11T14:40:05.122Z</time></trkpt><trkpt lat="39.2525524" lon="8.4728479"><ele>77.0</ele><time>2026-04-11T14:40:07.144Z</time></trkpt><trkpt lat="39.2524982" lon="8.4727873"><ele>77.0</ele><time>2026-04-11T14:40:09.14Z</time></trkpt><trkpt lat="39.2524792" lon="8.4726964"><ele>77.0</ele><time>2026-04-11T14:41:34.138Z</time></trkpt><trkpt lat="39.2524873" lon="8.4725827"><ele>76.16666666666667</ele><time>2026-04-11T14:41:38.123Z</time></trkpt><trkpt lat="39.2525614" lon="8.4725212"><ele>75.33333333333334</ele><time>2026-04-11T14:41:41.146Z</time></trkpt><trkpt lat="39.2526143" lon="8.4724689"><ele>74.5</ele><time>2026-04-11T14:41:45.134Z</time></trkpt><trkpt lat="39.2526743" lon="8.4724113"><ele>73.66666666666667</ele><time>2026-04-11T14:41:54.128Z</time></trkpt><trkpt lat="39.2526732" lon="8.4723144"><ele>72.83333333333333</ele><time>2026-04-11T14:41:58.136Z</time></trkpt><trkpt lat="39.252628" lon="8.4721904"><ele>72.0</ele><time>2026-04-11T14:42:00.131Z</time></trkpt><trkpt lat="39.2525906" lon="8.4721163"><ele>74.66666666666667</ele><time>2026-04-11T14:42:01.138Z</time></trkpt><trkpt lat="39.2525577" lon="8.4720461"><ele>77.33333333333333</ele><time>2026-04-11T14:42:02.139Z</time></trkpt><trkpt lat="39.252509" lon="8.4719768"><ele>80.0</ele><time>2026-04-11T14:42:04.119Z</time></trkpt><trkpt lat="39.2524493" lon="8.4719501"><ele>82.66666666666666</ele><time>2026-04-11T14:42:36.122Z</time></trkpt><trkpt lat="39.2523937" lon="8.4718648"><ele>85.33333333333333</ele><time>2026-04-11T14:42:39.114Z</time></trkpt><trkpt lat="39.2523282" lon="8.4717782"><ele>88.0</ele><time>2026-04-11T14:42:41.122Z</time></trkpt><trkpt lat="39.2522697" lon="8.4716858"><ele>90.16666666666666</ele><time>2026-04-11T14:42:43.124Z</time></trkpt><trkpt lat="39.2522113" lon="8.4715895"><ele>92.33333333333333</ele><time>2026-04-11T14:42:45.118Z</time></trkpt><trkpt lat="39.2521585" lon="8.4715376"><ele>94.5</ele><time>2026-04-11T14:42:47.115Z</time></trkpt><trkpt lat="39.252089" lon="8.4715232"><ele>96.66666666666666</ele><time>2026-04-11T14:42:50.139Z</time></trkpt><trkpt lat="39.2520014" lon="8.4714936"><ele>98.83333333333333</ele><time>2026-04-11T14:42:54.144Z</time></trkpt><trkpt lat="39.2519359" lon="8.4714868"><ele>101.0</ele><time>2026-04-11T14:42:56.145Z</time></trkpt><trkpt lat="39.251846" lon="8.4714616"><ele>100.99999999999999</ele><time>2026-04-11T14:42:58.136Z</time></trkpt><trkpt lat="39.251785" lon="8.471413"><ele>101.0</ele><time>2026-04-11T14:43:00.125Z</time></trkpt><trkpt lat="39.2517422" lon="8.4713313"><ele>101.0</ele><time>2026-04-11T14:43:02.114Z</time></trkpt><trkpt lat="39.2517221" lon="8.4712272"><ele>101.0</ele><time>2026-04-11T14:43:04.125Z</time></trkpt><trkpt lat="39.2516888" lon="8.4711186"><ele>100.99999999999999</ele><time>2026-04-11T14:43:06.142Z</time></trkpt><trkpt lat="39.2516248" lon="8.4710618"><ele>101.0</ele><time>2026-04-11T14:43:08.132Z</time></trkpt><trkpt lat="39.2515416" lon="8.4710756"><ele>103.83333333333333</ele><time>2026-04-11T14:43:19.129Z</time></trkpt><trkpt lat="39.2514639" lon="8.4710849"><ele>106.66666666666666</ele><time>2026-04-11T14:43:21.14Z</time></trkpt><trkpt lat="39.2513791" lon="8.471058"><ele>109.5</ele><time>2026-04-11T14:43:23.168Z</time></trkpt><trkpt lat="39.2512657" lon="8.4709785"><ele>112.33333333333334</ele><time>2026-04-11T14:43:25.142Z</time></trkpt><trkpt lat="39.2511921" lon="8.4709411"><ele>115.16666666666667</ele><time>2026-04-11T14:43:26.143Z</time></trkpt><trkpt lat="39.25113" lon="8.4709127"><ele>118.0</ele><time>2026-04-11T14:43:27.141Z</time></trkpt><trkpt lat="39.2510075" lon="8.4708651"><ele>118.50000000000001</ele><time>2026-04-11T14:43:29.132Z</time></trkpt><trkpt lat="39.2509022" lon="8.4708179"><ele>119.0</ele><time>2026-04-11T14:43:31.135Z</time></trkpt><trkpt lat="39.2508533" lon="8.4707653"><ele>119.5</ele><time>2026-04-11T14:43:36.133Z</time></trkpt><trkpt lat="39.2508898" lon="8.4706707"><ele>120.0</ele><time>2026-04-11T14:43:40.13Z</time></trkpt><trkpt lat="39.2509233" lon="8.4705939"><ele>120.50000000000001</ele><time>2026-04-11T14:43:42.147Z</time></trkpt><trkpt lat="39.2509302" lon="8.4704871"><ele>121.0</ele><time>2026-04-11T14:43:44.136Z</time></trkpt><trkpt lat="39.2509471" lon="8.4703596"><ele>121.00000000000001</ele><time>2026-04-11T14:43:46.133Z</time></trkpt><trkpt lat="39.2509777" lon="8.4702416"><ele>121.0</ele><time>2026-04-11T14:43:48.121Z</time></trkpt><trkpt lat="39.2510244" lon="8.4701535"><ele>121.0</ele><time>2026-04-11T14:43:50.138Z</time></trkpt><trkpt lat="39.2510882" lon="8.4700842"><ele>121.0</ele><time>2026-04-11T14:43:52.095Z</time></trkpt><trkpt lat="39.2511711" lon="8.4700295"><ele>121.00000000000001</ele><time>2026-04-11T14:43:54.129Z</time></trkpt><trkpt lat="39.2512322" lon="8.4699871"><ele>121.0</ele><time>2026-04-11T14:43:56.124Z</time></trkpt><trkpt lat="39.2512766" lon="8.4698973"><ele>121.00000000000001</ele><time>2026-04-11T14:43:59.143Z</time></trkpt><trkpt lat="39.2512779" lon="8.469816"><ele>121.0</ele><time>2026-04-11T14:44:01.18Z</time></trkpt><trkpt lat="39.2512852" lon="8.4697265"><ele>121.0</ele><time>2026-04-11T14:44:03.139Z</time></trkpt><trkpt lat="39.2512867" lon="8.4696143"><ele>121.0</ele><time>2026-04-11T14:44:06.156Z</time></trkpt><trkpt lat="39.2512129" lon="8.4695385"><ele>121.00000000000001</ele><time>2026-04-11T14:44:09.132Z</time></trkpt><trkpt lat="39.251147" lon="8.469508"><ele>121.0</ele><time>2026-04-11T14:44:11.108Z</time></trkpt><trkpt lat="39.2510743" lon="8.4695065"><ele>119.16666666666667</ele><time>2026-04-11T14:44:13.092Z</time></trkpt><trkpt lat="39.2509706" lon="8.4695492"><ele>117.33333333333334</ele><time>2026-04-11T14:44:15.137Z</time></trkpt><trkpt lat="39.2508802" lon="8.4695538"><ele>115.5</ele><time>2026-04-11T14:44:17.133Z</time></trkpt><trkpt lat="39.2508238" lon="8.46959"><ele>113.66666666666666</ele><time>2026-04-11T14:44:19.102Z</time></trkpt><trkpt lat="39.2507471" lon="8.4695866"><ele>111.83333333333333</ele><time>2026-04-11T14:44:21.126Z</time></trkpt><trkpt lat="39.2506823" lon="8.4695255"><ele>110.0</ele><time>2026-04-11T14:44:23.132Z</time></trkpt><trkpt lat="39.2506176" lon="8.469464"><ele>107.83333333333333</ele><time>2026-04-11T14:44:25.15Z</time></trkpt><trkpt lat="39.2505497" lon="8.4694247"><ele>105.66666666666666</ele><time>2026-04-11T14:44:27.141Z</time></trkpt><trkpt lat="39.2504842" lon="8.4693824"><ele>103.5</ele><time>2026-04-11T14:44:29.129Z</time></trkpt><trkpt lat="39.2504378" lon="8.4693108"><ele>101.33333333333334</ele><time>2026-04-11T14:44:31.116Z</time></trkpt><trkpt lat="39.2503889" lon="8.4692057"><ele>99.16666666666667</ele><time>2026-04-11T14:44:34.127Z</time></trkpt><trkpt lat="39.25035" lon="8.4691196"><ele>97.0</ele><time>2026-04-11T14:44:38.128Z</time></trkpt><trkpt lat="39.2502611" lon="8.4690315"><ele>97.0</ele><time>2026-04-11T14:44:42.133Z</time></trkpt><trkpt lat="39.2501634" lon="8.4689741"><ele>97.0</ele><time>2026-04-11T14:44:44.139Z</time></trkpt><trkpt lat="39.2500809" lon="8.4689155"><ele>97.0</ele><time>2026-04-11T14:44:46.137Z</time></trkpt><trkpt lat="39.2500161" lon="8.4688187"><ele>97.0</ele><time>2026-04-11T14:44:49.111Z</time></trkpt><trkpt lat="39.2499345" lon="8.4688279"><ele>97.0</ele><time>2026-04-11T14:44:51.126Z</time></trkpt><trkpt lat="39.2498588" lon="8.4689175"><ele>95.39999999999999</ele><time>2026-04-11T14:44:53.119Z</time></trkpt><trkpt lat="39.2497707" lon="8.4689874"><ele>93.8</ele><time>2026-04-11T14:44:55.128Z</time></trkpt><trkpt lat="39.249667" lon="8.4689944"><ele>92.2</ele><time>2026-04-11T14:44:57.11Z</time></trkpt><trkpt lat="39.2495419" lon="8.4689592"><ele>90.6</ele><time>2026-04-11T14:44:59.148Z</time></trkpt><trkpt lat="39.2494776" lon="8.4689506"><ele>89.0</ele><time>2026-04-11T14:45:00.135Z</time></trkpt><trkpt lat="39.2493505" lon="8.4688979"><ele>89.0</ele><time>2026-04-11T14:45:02.121Z</time></trkpt><trkpt lat="39.2492891" lon="8.4688666"><ele>89.0</ele><time>2026-04-11T14:45:03.137Z</time></trkpt><trkpt lat="39.2491921" lon="8.4688589"><ele>89.0</ele><time>2026-04-11T14:45:05.145Z</time></trkpt><trkpt lat="39.2491106" lon="8.4688388"><ele>89.0</ele><time>2026-04-11T14:45:07.127Z</time></trkpt><trkpt lat="39.2490336" lon="8.4688297"><ele>89.0</ele><time>2026-04-11T14:45:09.143Z</time></trkpt><trkpt lat="39.248919" lon="8.468914"><ele>89.0</ele><time>2026-04-11T14:45:11.128Z</time></trkpt><trkpt lat="39.2488442" lon="8.4689734"><ele>89.0</ele><time>2026-04-11T14:45:12.147Z</time></trkpt><trkpt lat="39.2487629" lon="8.4690335"><ele>89.0</ele><time>2026-04-11T14:45:13.136Z</time></trkpt><trkpt lat="39.2486856" lon="8.469075"><ele>89.0</ele><time>2026-04-11T14:45:14.123Z</time></trkpt><trkpt lat="39.2486189" lon="8.4691289"><ele>89.0</ele><time>2026-04-11T14:45:15.125Z</time></trkpt><trkpt lat="39.2485554" lon="8.4691882"><ele>89.0</ele><time>2026-04-11T14:45:16.105Z</time></trkpt><trkpt lat="39.2484969" lon="8.4692553"><ele>89.0</ele><time>2026-04-11T14:45:17.152Z</time></trkpt><trkpt lat="39.2484199" lon="8.4693014"><ele>89.0</ele><time>2026-04-11T14:45:18.134Z</time></trkpt><trkpt lat="39.2483396" lon="8.469334"><ele>89.0</ele><time>2026-04-11T14:45:19.133Z</time></trkpt><trkpt lat="39.2482743" lon="8.4693531"><ele>89.0</ele><time>2026-04-11T14:45:20.141Z</time></trkpt><trkpt lat="39.2481713" lon="8.469353"><ele>89.0</ele><time>2026-04-11T14:45:22.138Z</time></trkpt><trkpt lat="39.2481288" lon="8.4694276"><ele>89.0</ele><time>2026-04-11T14:45:25.129Z</time></trkpt><trkpt lat="39.2481125" lon="8.4695641"><ele>89.16666666666667</ele><time>2026-04-11T14:45:27.127Z</time></trkpt><trkpt lat="39.2481128" lon="8.4697244"><ele>89.33333333333334</ele><time>2026-04-11T14:45:29.128Z</time></trkpt><trkpt lat="39.2481158" lon="8.4698184"><ele>89.5</ele><time>2026-04-11T14:45:30.153Z</time></trkpt><trkpt lat="39.2481204" lon="8.4699178"><ele>89.66666666666667</ele><time>2026-04-11T14:45:31.128Z</time></trkpt><trkpt lat="39.2481192" lon="8.4700137"><ele>89.83333333333333</ele><time>2026-04-11T14:45:32.121Z</time></trkpt><trkpt lat="39.2481256" lon="8.4701129"><ele>90.0</ele><time>2026-04-11T14:45:33.133Z</time></trkpt><trkpt lat="39.2481427" lon="8.4702191"><ele>91.66666666666667</ele><time>2026-04-11T14:45:34.147Z</time></trkpt><trkpt lat="39.2481637" lon="8.4703291"><ele>93.33333333333334</ele><time>2026-04-11T14:45:35.127Z</time></trkpt><trkpt lat="39.2481818" lon="8.4704285"><ele>95.0</ele><time>2026-04-11T14:45:36.143Z</time></trkpt><trkpt lat="39.2481823" lon="8.4705268"><ele>96.66666666666667</ele><time>2026-04-11T14:45:37.122Z</time></trkpt><trkpt lat="39.2481799" lon="8.4706401"><ele>98.33333333333334</ele><time>2026-04-11T14:45:38.147Z</time></trkpt><trkpt lat="39.2481722" lon="8.4707457"><ele>100.0</ele><time>2026-04-11T14:45:39.147Z</time></trkpt><trkpt lat="39.2481716" lon="8.4708468"><ele>102.00000000000001</ele><time>2026-04-11T14:45:40.129Z</time></trkpt><trkpt lat="39.2481916" lon="8.4709295"><ele>104.0</ele><time>2026-04-11T14:45:41.122Z</time></trkpt><trkpt lat="39.2482173" lon="8.4710519"><ele>106.0</ele><time>2026-04-11T14:45:43.146Z</time></trkpt><trkpt lat="39.2482249" lon="8.4711379"><ele>108.0</ele><time>2026-04-11T14:45:44.135Z</time></trkpt><trkpt lat="39.248224" lon="8.4712507"><ele>110.00000000000001</ele><time>2026-04-11T14:45:45.137Z</time></trkpt><trkpt lat="39.2482159" lon="8.4713565"><ele>112.0</ele><time>2026-04-11T14:45:46.128Z</time></trkpt><trkpt lat="39.2482022" lon="8.4714727"><ele>111.39999999999999</ele><time>2026-04-11T14:45:47.134Z</time></trkpt><trkpt lat="39.2481853" lon="8.4715916"><ele>110.79999999999998</ele><time>2026-04-11T14:45:48.14Z</time></trkpt><trkpt lat="39.2481621" lon="8.4717261"><ele>110.2</ele><time>2026-04-11T14:45:49.155Z</time></trkpt><trkpt lat="39.2481448" lon="8.4718581"><ele>109.6</ele><time>2026-04-11T14:45:50.138Z</time></trkpt><trkpt lat="39.2481226" lon="8.4719903"><ele>109.0</ele><time>2026-04-11T14:45:51.129Z</time></trkpt><trkpt lat="39.2481079" lon="8.4721087"><ele>111.14285714285714</ele><time>2026-04-11T14:45:52.12Z</time></trkpt><trkpt lat="39.2480971" lon="8.4722218"><ele>113.28571428571429</ele><time>2026-04-11T14:45:53.119Z</time></trkpt><trkpt lat="39.2480825" lon="8.4723245"><ele>115.42857142857143</ele><time>2026-04-11T14:45:54.131Z</time></trkpt><trkpt lat="39.2480735" lon="8.4724152"><ele>117.57142857142858</ele><time>2026-04-11T14:45:55.139Z</time></trkpt><trkpt lat="39.2480719" lon="8.472512"><ele>119.71428571428572</ele><time>2026-04-11T14:45:56.174Z</time></trkpt><trkpt lat="39.2480703" lon="8.4725984"><ele>121.85714285714286</ele><time>2026-04-11T14:45:57.105Z</time></trkpt><trkpt lat="39.2480551" lon="8.4726798"><ele>124.0</ele><time>2026-04-11T14:45:58.136Z</time></trkpt><trkpt lat="39.248035" lon="8.472818"><ele>126.0</ele><time>2026-04-11T14:46:00.12Z</time></trkpt><trkpt lat="39.2479623" lon="8.4729536"><ele>128.0</ele><time>2026-04-11T14:46:02.131Z</time></trkpt><trkpt lat="39.2479147" lon="8.4730307"><ele>130.0</ele><time>2026-04-11T14:46:03.101Z</time></trkpt><trkpt lat="39.2478511" lon="8.4731051"><ele>132.0</ele><time>2026-04-11T14:46:04.114Z</time></trkpt><trkpt lat="39.2477914" lon="8.4731836"><ele>134.0</ele><time>2026-04-11T14:46:05.133Z</time></trkpt><trkpt lat="39.2477363" lon="8.473262"><ele>134.0</ele><time>2026-04-11T14:46:06.132Z</time></trkpt><trkpt lat="39.2476866" lon="8.4733383"><ele>134.0</ele><time>2026-04-11T14:46:07.155Z</time></trkpt><trkpt lat="39.2476472" lon="8.4734035"><ele>134.0</ele><time>2026-04-11T14:46:08.144Z</time></trkpt><trkpt lat="39.2475666" lon="8.4735166"><ele>134.0</ele><time>2026-04-11T14:46:10.162Z</time></trkpt><trkpt lat="39.2475354" lon="8.473604"><ele>134.0</ele><time>2026-04-11T14:46:12.135Z</time></trkpt><trkpt lat="39.2475164" lon="8.4737107"><ele>134.0</ele><time>2026-04-11T14:46:14.137Z</time></trkpt><trkpt lat="39.2475167" lon="8.4738026"><ele>134.5</ele><time>2026-04-11T14:46:16.151Z</time></trkpt><trkpt lat="39.2475488" lon="8.4739075"><ele>135.0</ele><time>2026-04-11T14:46:19.13Z</time></trkpt><trkpt lat="39.2475574" lon="8.4740098"><ele>135.5</ele><time>2026-04-11T14:46:23.148Z</time></trkpt><trkpt lat="39.2475633" lon="8.474094"><ele>136.0</ele><time>2026-04-11T14:46:25.143Z</time></trkpt><trkpt lat="39.2475435" lon="8.4742022"><ele>136.5</ele><time>2026-04-11T14:46:27.133Z</time></trkpt><trkpt lat="39.2474861" lon="8.4743264"><ele>137.0</ele><time>2026-04-11T14:46:29.128Z</time></trkpt><trkpt lat="39.247428" lon="8.4744499"><ele>137.0</ele><time>2026-04-11T14:46:31.146Z</time></trkpt><trkpt lat="39.2473972" lon="8.4745768"><ele>137.0</ele><time>2026-04-11T14:46:33.129Z</time></trkpt><trkpt lat="39.2473749" lon="8.4746911"><ele>137.0</ele><time>2026-04-11T14:46:35.143Z</time></trkpt><trkpt lat="39.2473243" lon="8.4748088"><ele>137.0</ele><time>2026-04-11T14:46:37.143Z</time></trkpt><trkpt lat="39.2472604" lon="8.4749213"><ele>137.0</ele><time>2026-04-11T14:46:39.133Z</time></trkpt><trkpt lat="39.2471705" lon="8.4750395"><ele>137.33333333333331</ele><time>2026-04-11T14:46:41.133Z</time></trkpt><trkpt lat="39.2471185" lon="8.4751016"><ele>137.66666666666666</ele><time>2026-04-11T14:46:42.139Z</time></trkpt><trkpt lat="39.2470632" lon="8.4751701"><ele>138.0</ele><time>2026-04-11T14:46:43.13Z</time></trkpt><trkpt lat="39.247008" lon="8.4752496"><ele>138.33333333333334</ele><time>2026-04-11T14:46:44.133Z</time></trkpt><trkpt lat="39.2469588" lon="8.4753297"><ele>138.66666666666669</ele><time>2026-04-11T14:46:45.12Z</time></trkpt><trkpt lat="39.2469169" lon="8.4754242"><ele>139.0</ele><time>2026-04-11T14:46:46.151Z</time></trkpt><trkpt lat="39.24688" lon="8.4755431"><ele>139.0</ele><time>2026-04-11T14:46:47.097Z</time></trkpt><trkpt lat="39.2468317" lon="8.4756739"><ele>139.0</ele><time>2026-04-11T14:46:48.142Z</time></trkpt><trkpt lat="39.2467738" lon="8.4757975"><ele>139.0</ele><time>2026-04-11T14:46:49.141Z</time></trkpt><trkpt lat="39.2467119" lon="8.4758985"><ele>139.0</ele><time>2026-04-11T14:46:50.128Z</time></trkpt><trkpt lat="39.2466443" lon="8.4759903"><ele>139.0</ele><time>2026-04-11T14:46:51.103Z</time></trkpt><trkpt lat="39.2465845" lon="8.4760702"><ele>139.0</ele><time>2026-04-11T14:46:52.151Z</time></trkpt><trkpt lat="39.2465372" lon="8.4761395"><ele>139.0</ele><time>2026-04-11T14:46:53.121Z</time></trkpt><trkpt lat="39.2464522" lon="8.4762192"><ele>139.0</ele><time>2026-04-11T14:46:55.145Z</time></trkpt><trkpt lat="39.2463745" lon="8.4762246"><ele>139.0</ele><time>2026-04-11T14:46:58.13Z</time></trkpt><trkpt lat="39.2463505" lon="8.476327"><ele>139.0</ele><time>2026-04-11T14:47:01.14Z</time></trkpt><trkpt lat="39.2462914" lon="8.4763747"><ele>139.0</ele><time>2026-04-11T14:47:47.135Z</time></trkpt><trkpt lat="39.2462249" lon="8.4763624"><ele>138.8</ele><time>2026-04-11T14:48:00.148Z</time></trkpt><trkpt lat="39.246152" lon="8.4763137"><ele>138.60000000000002</ele><time>2026-04-11T14:48:03.096Z</time></trkpt><trkpt lat="39.2460954" lon="8.476269"><ele>138.4</ele><time>2026-04-11T14:48:04.122Z</time></trkpt><trkpt lat="39.246022" lon="8.4762054"><ele>138.20000000000002</ele><time>2026-04-11T14:48:05.148Z</time></trkpt><trkpt lat="39.2459189" lon="8.4761403"><ele>138.0</ele><time>2026-04-11T14:48:06.111Z</time></trkpt><trkpt lat="39.2458019" lon="8.4760814"><ele>136.75</ele><time>2026-04-11T14:48:07.117Z</time></trkpt><trkpt lat="39.2456772" lon="8.4760197"><ele>135.5</ele><time>2026-04-11T14:48:08.177Z</time></trkpt><trkpt lat="39.2455628" lon="8.4759575"><ele>134.25</ele><time>2026-04-11T14:48:09.145Z</time></trkpt><trkpt lat="39.2454524" lon="8.4758958"><ele>133.0</ele><time>2026-04-11T14:48:10.145Z</time></trkpt><trkpt lat="39.2453623" lon="8.4758382"><ele>133.0</ele><time>2026-04-11T14:48:11.139Z</time></trkpt><trkpt lat="39.2452996" lon="8.4757857"><ele>133.0</ele><time>2026-04-11T14:48:12.129Z</time></trkpt><trkpt lat="39.2452042" lon="8.4757171"><ele>133.0</ele><time>2026-04-11T14:48:14.14Z</time></trkpt><trkpt lat="39.245119" lon="8.4756685"><ele>133.0</ele><time>2026-04-11T14:48:16.147Z</time></trkpt><trkpt lat="39.2450502" lon="8.4756407"><ele>133.0</ele><time>2026-04-11T14:48:18.147Z</time></trkpt><trkpt lat="39.2449751" lon="8.4756297"><ele>133.0</ele><time>2026-04-11T14:48:20.159Z</time></trkpt><trkpt lat="39.2449116" lon="8.4756008"><ele>133.0</ele><time>2026-04-11T14:48:22.134Z</time></trkpt><trkpt lat="39.244833" lon="8.4755455"><ele>133.0</ele><time>2026-04-11T14:48:24.154Z</time></trkpt><trkpt lat="39.2447266" lon="8.47546"><ele>133.0</ele><time>2026-04-11T14:48:26.143Z</time></trkpt><trkpt lat="39.2446486" lon="8.4754044"><ele>133.0</ele><time>2026-04-11T14:48:27.13Z</time></trkpt><trkpt lat="39.2445598" lon="8.4753342"><ele>133.0</ele><time>2026-04-11T14:48:28.141Z</time></trkpt><trkpt lat="39.244461" lon="8.4752633"><ele>130.0</ele><time>2026-04-11T14:48:29.134Z</time></trkpt><trkpt lat="39.2443483" lon="8.4751783"><ele>127.0</ele><time>2026-04-11T14:48:30.159Z</time></trkpt><trkpt lat="39.244234" lon="8.4750972"><ele>124.0</ele><time>2026-04-11T14:48:31.141Z</time></trkpt><trkpt lat="39.2441406" lon="8.4750343"><ele>121.0</ele><time>2026-04-11T14:48:32.147Z</time></trkpt><trkpt lat="39.2440644" lon="8.4749806"><ele>121.00000000000001</ele><time>2026-04-11T14:48:33.14Z</time></trkpt><trkpt lat="39.2439932" lon="8.4749317"><ele>121.0</ele><time>2026-04-11T14:48:34.147Z</time></trkpt><trkpt lat="39.2439297" lon="8.4748887"><ele>121.0</ele><time>2026-04-11T14:48:35.141Z</time></trkpt><trkpt lat="39.2438312" lon="8.4748268"><ele>121.0</ele><time>2026-04-11T14:48:37.143Z</time></trkpt><trkpt lat="39.2437656" lon="8.4748394"><ele>121.00000000000001</ele><time>2026-04-11T14:48:41.083Z</time></trkpt><trkpt lat="39.2436668" lon="8.4749085"><ele>121.0</ele><time>2026-04-11T14:48:58.129Z</time></trkpt><trkpt lat="39.2435938" lon="8.4749699"><ele>122.19999999999999</ele><time>2026-04-11T14:48:59.129Z</time></trkpt><trkpt lat="39.2435157" lon="8.4750282"><ele>123.39999999999999</ele><time>2026-04-11T14:49:00.137Z</time></trkpt><trkpt lat="39.24344" lon="8.4751036"><ele>124.6</ele><time>2026-04-11T14:49:01.1Z</time></trkpt><trkpt lat="39.243361" lon="8.4751749"><ele>125.8</ele><time>2026-04-11T14:49:02.1Z</time></trkpt><trkpt lat="39.2432912" lon="8.4752456"><ele>127.0</ele><time>2026-04-11T14:49:03.152Z</time></trkpt><trkpt lat="39.2432189" lon="8.4753202"><ele>127.0</ele><time>2026-04-11T14:49:04.141Z</time></trkpt><trkpt lat="39.2431519" lon="8.4753987"><ele>126.99999999999999</ele><time>2026-04-11T14:49:05.131Z</time></trkpt><trkpt lat="39.2430814" lon="8.4754901"><ele>126.99999999999999</ele><time>2026-04-11T14:49:06.164Z</time></trkpt><trkpt lat="39.2430023" lon="8.475581"><ele>127.0</ele><time>2026-04-11T14:49:07.131Z</time></trkpt><trkpt lat="39.2429235" lon="8.4756688"><ele>127.0</ele><time>2026-04-11T14:49:08.098Z</time></trkpt><trkpt lat="39.2428454" lon="8.4757507"><ele>126.83333333333334</ele><time>2026-04-11T14:49:09.127Z</time></trkpt><trkpt lat="39.2427734" lon="8.4758336"><ele>126.66666666666667</ele><time>2026-04-11T14:49:10.118Z</time></trkpt><trkpt lat="39.2427106" lon="8.4759134"><ele>126.5</ele><time>2026-04-11T14:49:11.14Z</time></trkpt><trkpt lat="39.242655" lon="8.4759905"><ele>126.33333333333334</ele><time>2026-04-11T14:49:12.168Z</time></trkpt><trkpt lat="39.2426008" lon="8.4760718"><ele>126.16666666666667</ele><time>2026-04-11T14:49:13.141Z</time></trkpt><trkpt lat="39.2425383" lon="8.4761421"><ele>126.0</ele><time>2026-04-11T14:49:14.138Z</time></trkpt><trkpt lat="39.2424749" lon="8.4762051"><ele>126.0</ele><time>2026-04-11T14:49:15.166Z</time></trkpt><trkpt lat="39.2424138" lon="8.4762669"><ele>126.0</ele><time>2026-04-11T14:49:16.136Z</time></trkpt><trkpt lat="39.2423471" lon="8.4763402"><ele>126.0</ele><time>2026-04-11T14:49:17.142Z</time></trkpt><trkpt lat="39.2422822" lon="8.4764082"><ele>126.0</ele><time>2026-04-11T14:49:18.139Z</time></trkpt><trkpt lat="39.242224" lon="8.47647"><ele>126.0</ele><time>2026-04-11T14:49:19.156Z</time></trkpt><trkpt lat="39.242169" lon="8.4765326"><ele>126.0</ele><time>2026-04-11T14:49:20.104Z</time></trkpt><trkpt lat="39.2421223" lon="8.4765878"><ele>123.8</ele><time>2026-04-11T14:49:21.1Z</time></trkpt><trkpt lat="39.242024" lon="8.4766929"><ele>121.6</ele><time>2026-04-11T14:49:23.123Z</time></trkpt><trkpt lat="39.2419417" lon="8.4767929"><ele>119.4</ele><time>2026-04-11T14:49:25.084Z</time></trkpt><trkpt lat="39.2418971" lon="8.4768573"><ele>117.2</ele><time>2026-04-11T14:49:27.14Z</time></trkpt><trkpt lat="39.2418403" lon="8.4769263"><ele>115.0</ele><time>2026-04-11T14:49:30.1Z</time></trkpt><trkpt lat="39.2417792" lon="8.4769908"><ele>115.00000000000001</ele><time>2026-04-11T14:49:33.127Z</time></trkpt><trkpt lat="39.2417102" lon="8.4770602"><ele>115.0</ele><time>2026-04-11T14:49:36.136Z</time></trkpt><trkpt lat="39.2416528" lon="8.4771222"><ele>115.0</ele><time>2026-04-11T14:49:38.136Z</time></trkpt><trkpt lat="39.2415971" lon="8.4771788"><ele>115.0</ele><time>2026-04-11T14:49:40.11Z</time></trkpt><trkpt lat="39.2415231" lon="8.4772483"><ele>115.00000000000001</ele><time>2026-04-11T14:49:42.126Z</time></trkpt><trkpt lat="39.2414482" lon="8.4773247"><ele>115.0</ele><time>2026-04-11T14:49:44.121Z</time></trkpt><trkpt lat="39.2413865" lon="8.4773641"><ele>114.28571428571426</ele><time>2026-04-11T14:49:46.135Z</time></trkpt><trkpt lat="39.2413223" lon="8.4773431"><ele>113.57142857142857</ele><time>2026-04-11T14:49:49.132Z</time></trkpt><trkpt lat="39.2412756" lon="8.4772736"><ele>112.85714285714285</ele><time>2026-04-11T14:49:52.138Z</time></trkpt><trkpt lat="39.2412048" lon="8.4772522"><ele>112.14285714285714</ele><time>2026-04-11T14:49:58.134Z</time></trkpt><trkpt lat="39.2411429" lon="8.4772368"><ele>111.42857142857142</ele><time>2026-04-11T14:50:49.122Z</time></trkpt><trkpt lat="39.2411118" lon="8.4773114"><ele>110.71428571428571</ele><time>2026-04-11T14:51:02.137Z</time></trkpt><trkpt lat="39.2410992" lon="8.4774088"><ele>110.0</ele><time>2026-04-11T14:51:04.132Z</time></trkpt><trkpt lat="39.2410721" lon="8.4775616"><ele>110.0</ele><time>2026-04-11T14:51:06.142Z</time></trkpt><trkpt lat="39.2410537" lon="8.4777113"><ele>110.0</ele><time>2026-04-11T14:51:08.127Z</time></trkpt><trkpt lat="39.2410279" lon="8.4778664"><ele>110.0</ele><time>2026-04-11T14:51:10.131Z</time></trkpt><trkpt lat="39.2410072" lon="8.4779628"><ele>110.0</ele><time>2026-04-11T14:51:11.137Z</time></trkpt><trkpt lat="39.2409896" lon="8.4780672"><ele>110.0</ele><time>2026-04-11T14:51:12.132Z</time></trkpt><trkpt lat="39.2409697" lon="8.4781697"><ele>110.16666666666666</ele><time>2026-04-11T14:51:13.152Z</time></trkpt><trkpt lat="39.2409598" lon="8.4782688"><ele>110.33333333333333</ele><time>2026-04-11T14:51:14.14Z</time></trkpt><trkpt lat="39.24094" lon="8.4783716"><ele>110.5</ele><time>2026-04-11T14:51:15.133Z</time></trkpt><trkpt lat="39.2409169" lon="8.4784773"><ele>110.66666666666666</ele><time>2026-04-11T14:51:16.135Z</time></trkpt><trkpt lat="39.2408877" lon="8.4785907"><ele>110.83333333333333</ele><time>2026-04-11T14:51:17.144Z</time></trkpt><trkpt lat="39.240856" lon="8.4787111"><ele>111.0</ele><time>2026-04-11T14:51:18.135Z</time></trkpt><trkpt lat="39.2408312" lon="8.478834"><ele>111.4</ele><time>2026-04-11T14:51:19.137Z</time></trkpt><trkpt lat="39.2408038" lon="8.4789609"><ele>111.8</ele><time>2026-04-11T14:51:20.152Z</time></trkpt><trkpt lat="39.2407727" lon="8.4790993"><ele>112.20000000000002</ele><time>2026-04-11T14:51:21.123Z</time></trkpt><trkpt lat="39.2407445" lon="8.4792413"><ele>112.60000000000001</ele><time>2026-04-11T14:51:22.14Z</time></trkpt><trkpt lat="39.2407142" lon="8.47937"><ele>113.0</ele><time>2026-04-11T14:51:23.14Z</time></trkpt><trkpt lat="39.2406877" lon="8.4794948"><ele>113.4</ele><time>2026-04-11T14:51:24.118Z</time></trkpt><trkpt lat="39.2406583" lon="8.4796259"><ele>113.80000000000001</ele><time>2026-04-11T14:51:25.136Z</time></trkpt><trkpt lat="39.2406294" lon="8.4797553"><ele>114.2</ele><time>2026-04-11T14:51:26.125Z</time></trkpt><trkpt lat="39.2406023" lon="8.4798953"><ele>114.6</ele><time>2026-04-11T14:51:27.133Z</time></trkpt><trkpt lat="39.2405787" lon="8.4800415"><ele>115.0</ele><time>2026-04-11T14:51:28.146Z</time></trkpt><trkpt lat="39.2405502" lon="8.4801786"><ele>115.25</ele><time>2026-04-11T14:51:29.137Z</time></trkpt><trkpt lat="39.2405231" lon="8.4803104"><ele>115.5</ele><time>2026-04-11T14:51:30.14Z</time></trkpt><trkpt lat="39.2404987" lon="8.4804334"><ele>115.75</ele><time>2026-04-11T14:51:31.148Z</time></trkpt><trkpt lat="39.2404723" lon="8.4805838"><ele>116.0</ele><time>2026-04-11T14:51:32.113Z</time></trkpt><trkpt lat="39.240443" lon="8.4807468"><ele>116.6</ele><time>2026-04-11T14:51:33.128Z</time></trkpt><trkpt lat="39.2404164" lon="8.4809032"><ele>117.19999999999999</ele><time>2026-04-11T14:51:34.174Z</time></trkpt><trkpt lat="39.240382" lon="8.4810449"><ele>117.80000000000001</ele><time>2026-04-11T14:51:35.147Z</time></trkpt><trkpt lat="39.2403484" lon="8.4811659"><ele>118.4</ele><time>2026-04-11T14:51:36.149Z</time></trkpt><trkpt lat="39.2403196" lon="8.4812822"><ele>119.0</ele><time>2026-04-11T14:51:37.139Z</time></trkpt><trkpt lat="39.2403042" lon="8.4813906"><ele>119.2</ele><time>2026-04-11T14:51:38.152Z</time></trkpt><trkpt lat="39.2402797" lon="8.4814835"><ele>119.4</ele><time>2026-04-11T14:51:39.166Z</time></trkpt><trkpt lat="39.2402382" lon="8.4815775"><ele>119.6</ele><time>2026-04-11T14:51:40.154Z</time></trkpt><trkpt lat="39.2401729" lon="8.4816673"><ele>119.8</ele><time>2026-04-11T14:51:41.162Z</time></trkpt><trkpt lat="39.240082" lon="8.4817504"><ele>120.0</ele><time>2026-04-11T14:51:42.137Z</time></trkpt><trkpt lat="39.2399784" lon="8.4818181"><ele>120.0</ele><time>2026-04-11T14:51:43.137Z</time></trkpt><trkpt lat="39.239874" lon="8.481867"><ele>120.0</ele><time>2026-04-11T14:51:44.139Z</time></trkpt><trkpt lat="39.2397909" lon="8.4819161"><ele>120.0</ele><time>2026-04-11T14:51:45.122Z</time></trkpt><trkpt lat="39.2397109" lon="8.4819595"><ele>120.0</ele><time>2026-04-11T14:51:46.129Z</time></trkpt><trkpt lat="39.2396284" lon="8.4820046"><ele>120.0</ele><time>2026-04-11T14:51:47.086Z</time></trkpt><trkpt lat="39.2395307" lon="8.4820539"><ele>119.25</ele><time>2026-04-11T14:51:48.114Z</time></trkpt><trkpt lat="39.2394198" lon="8.4821119"><ele>118.5</ele><time>2026-04-11T14:51:49.139Z</time></trkpt><trkpt lat="39.2392975" lon="8.4821745"><ele>117.75</ele><time>2026-04-11T14:51:50.131Z</time></trkpt><trkpt lat="39.2391706" lon="8.4822489"><ele>117.0</ele><time>2026-04-11T14:51:51.129Z</time></trkpt><trkpt lat="39.2390426" lon="8.4823234"><ele>118.25</ele><time>2026-04-11T14:51:52.133Z</time></trkpt><trkpt lat="39.2389275" lon="8.4824"><ele>119.5</ele><time>2026-04-11T14:51:53.093Z</time></trkpt><trkpt lat="39.2388185" lon="8.4824837"><ele>120.75</ele><time>2026-04-11T14:51:54.119Z</time></trkpt><trkpt lat="39.2387251" lon="8.4825834"><ele>122.0</ele><time>2026-04-11T14:51:55.119Z</time></trkpt><trkpt lat="39.238643" lon="8.4826954"><ele>122.0</ele><time>2026-04-11T14:51:56.119Z</time></trkpt><trkpt lat="39.2385643" lon="8.4828051"><ele>122.0</ele><time>2026-04-11T14:51:57.139Z</time></trkpt><trkpt lat="39.2384772" lon="8.4829189"><ele>122.0</ele><time>2026-04-11T14:51:58.147Z</time></trkpt><trkpt lat="39.2383899" lon="8.4830379"><ele>122.0</ele><time>2026-04-11T14:51:59.139Z</time></trkpt><trkpt lat="39.2383051" lon="8.4831622"><ele>121.5</ele><time>2026-04-11T14:52:00.145Z</time></trkpt><trkpt lat="39.2382145" lon="8.4832817"><ele>121.0</ele><time>2026-04-11T14:52:01.103Z</time></trkpt><trkpt lat="39.2381182" lon="8.4834068"><ele>120.5</ele><time>2026-04-11T14:52:02.146Z</time></trkpt><trkpt lat="39.238019" lon="8.4835312"><ele>120.0</ele><time>2026-04-11T14:52:03.126Z</time></trkpt><trkpt lat="39.2379204" lon="8.4836507"><ele>120.0</ele><time>2026-04-11T14:52:04.131Z</time></trkpt><trkpt lat="39.2378291" lon="8.4837608"><ele>120.0</ele><time>2026-04-11T14:52:05.128Z</time></trkpt><trkpt lat="39.2377478" lon="8.4838698"><ele>120.0</ele><time>2026-04-11T14:52:06.149Z</time></trkpt><trkpt lat="39.2376655" lon="8.4839801"><ele>120.0</ele><time>2026-04-11T14:52:07.129Z</time></trkpt><trkpt lat="39.23757" lon="8.4841056"><ele>119.33333333333334</ele><time>2026-04-11T14:52:08.145Z</time></trkpt><trkpt lat="39.237471" lon="8.4842431"><ele>118.66666666666667</ele><time>2026-04-11T14:52:09.145Z</time></trkpt><trkpt lat="39.237362" lon="8.4843853"><ele>118.0</ele><time>2026-04-11T14:52:10.139Z</time></trkpt><trkpt lat="39.2372513" lon="8.4845343"><ele>117.0</ele><time>2026-04-11T14:52:11.111Z</time></trkpt><trkpt lat="39.2371326" lon="8.4846909"><ele>116.0</ele><time>2026-04-11T14:52:12.135Z</time></trkpt><trkpt lat="39.2370125" lon="8.4848598"><ele>115.0</ele><time>2026-04-11T14:52:13.135Z</time></trkpt><trkpt lat="39.2368934" lon="8.4850178"><ele>115.0</ele><time>2026-04-11T14:52:14.144Z</time></trkpt><trkpt lat="39.2367831" lon="8.4851745"><ele>115.0</ele><time>2026-04-11T14:52:15.153Z</time></trkpt><trkpt lat="39.2366703" lon="8.4853337"><ele>115.0</ele><time>2026-04-11T14:52:16.146Z</time></trkpt><trkpt lat="39.2365512" lon="8.4854927"><ele>116.0</ele><time>2026-04-11T14:52:17.086Z</time></trkpt><trkpt lat="39.2364378" lon="8.485641"><ele>117.0</ele><time>2026-04-11T14:52:18.119Z</time></trkpt><trkpt lat="39.2363255" lon="8.4857823"><ele>118.0</ele><time>2026-04-11T14:52:19.145Z</time></trkpt><trkpt lat="39.2362197" lon="8.4859215"><ele>118.0</ele><time>2026-04-11T14:52:20.156Z</time></trkpt><trkpt lat="39.2361186" lon="8.4860552"><ele>118.0</ele><time>2026-04-11T14:52:21.143Z</time></trkpt><trkpt lat="39.2360225" lon="8.4861771"><ele>118.0</ele><time>2026-04-11T14:52:22.138Z</time></trkpt><trkpt lat="39.2359152" lon="8.4863007"><ele>118.0</ele><time>2026-04-11T14:52:23.15Z</time></trkpt><trkpt lat="39.2358135" lon="8.4864203"><ele>117.25</ele><time>2026-04-11T14:52:24.145Z</time></trkpt><trkpt lat="39.2357205" lon="8.4865436"><ele>116.5</ele><time>2026-04-11T14:52:25.14Z</time></trkpt><trkpt lat="39.2356234" lon="8.486675"><ele>115.75</ele><time>2026-04-11T14:52:26.131Z</time></trkpt><trkpt lat="39.235527" lon="8.486803"><ele>115.0</ele><time>2026-04-11T14:52:27.131Z</time></trkpt><trkpt lat="39.2354369" lon="8.4869169"><ele>115.5</ele><time>2026-04-11T14:52:28.13Z</time></trkpt><trkpt lat="39.2353513" lon="8.4870348"><ele>116.0</ele><time>2026-04-11T14:52:29.142Z</time></trkpt><trkpt lat="39.2352707" lon="8.4871324"><ele>116.5</ele><time>2026-04-11T14:52:30.138Z</time></trkpt><trkpt lat="39.2351813" lon="8.4872579"><ele>117.0</ele><time>2026-04-11T14:52:31.108Z</time></trkpt><trkpt lat="39.2350912" lon="8.4873876"><ele>117.0</ele><time>2026-04-11T14:52:32.106Z</time></trkpt><trkpt lat="39.2349975" lon="8.487522"><ele>117.0</ele><time>2026-04-11T14:52:33.123Z</time></trkpt><trkpt lat="39.2348995" lon="8.4876526"><ele>117.0</ele><time>2026-04-11T14:52:34.143Z</time></trkpt><trkpt lat="39.2347947" lon="8.4877785"><ele>117.0</ele><time>2026-04-11T14:52:35.141Z</time></trkpt><trkpt lat="39.2346996" lon="8.4878995"><ele>118.5</ele><time>2026-04-11T14:52:36.098Z</time></trkpt><trkpt lat="39.2346065" lon="8.4880015"><ele>120.0</ele><time>2026-04-11T14:52:37.128Z</time></trkpt><trkpt lat="39.2345273" lon="8.4881156"><ele>121.5</ele><time>2026-04-11T14:52:38.085Z</time></trkpt><trkpt lat="39.234453" lon="8.4882154"><ele>123.0</ele><time>2026-04-11T14:52:39.135Z</time></trkpt><trkpt lat="39.234359" lon="8.4883231"><ele>123.0</ele><time>2026-04-11T14:52:40.136Z</time></trkpt><trkpt lat="39.2342686" lon="8.4884333"><ele>123.0</ele><time>2026-04-11T14:52:41.135Z</time></trkpt><trkpt lat="39.2341846" lon="8.488547"><ele>123.0</ele><time>2026-04-11T14:52:42.134Z</time></trkpt><trkpt lat="39.2341022" lon="8.4886504"><ele>123.0</ele><time>2026-04-11T14:52:43.117Z</time></trkpt><trkpt lat="39.2340284" lon="8.4887355"><ele>123.0</ele><time>2026-04-11T14:52:44.12Z</time></trkpt><trkpt lat="39.2339738" lon="8.4888107"><ele>123.00000000000001</ele><time>2026-04-11T14:52:45.139Z</time></trkpt><trkpt lat="39.2339021" lon="8.4889313"><ele>123.00000000000001</ele><time>2026-04-11T14:52:47.11Z</time></trkpt><trkpt lat="39.2339533" lon="8.4890311"><ele>123.0</ele><time>2026-04-11T14:52:49.119Z</time></trkpt><trkpt lat="39.2340136" lon="8.4891006"><ele>123.0</ele><time>2026-04-11T14:52:50.136Z</time></trkpt><trkpt lat="39.2340971" lon="8.4891829"><ele>122.0</ele><time>2026-04-11T14:52:51.113Z</time></trkpt><trkpt lat="39.2341892" lon="8.4892785"><ele>121.0</ele><time>2026-04-11T14:52:52.134Z</time></trkpt><trkpt lat="39.2342873" lon="8.4893714"><ele>120.0</ele><time>2026-04-11T14:52:53.143Z</time></trkpt><trkpt lat="39.2343845" lon="8.4894563"><ele>119.0</ele><time>2026-04-11T14:52:54.134Z</time></trkpt><trkpt lat="39.2344734" lon="8.4895395"><ele>118.75</ele><time>2026-04-11T14:52:55.141Z</time></trkpt><trkpt lat="39.2345644" lon="8.4896323"><ele>118.5</ele><time>2026-04-11T14:52:56.143Z</time></trkpt><trkpt lat="39.2346556" lon="8.4897224"><ele>118.25</ele><time>2026-04-11T14:52:57.11Z</time></trkpt><trkpt lat="39.2347514" lon="8.4897984"><ele>118.0</ele><time>2026-04-11T14:52:58.13Z</time></trkpt><trkpt lat="39.2348552" lon="8.4898863"><ele>117.0</ele><time>2026-04-11T14:52:59.146Z</time></trkpt><trkpt lat="39.2349515" lon="8.489976"><ele>116.0</ele><time>2026-04-11T14:53:00.11Z</time></trkpt><trkpt lat="39.2350454" lon="8.49007"><ele>115.0</ele><time>2026-04-11T14:53:01.135Z</time></trkpt><trkpt lat="39.2351426" lon="8.4901513"><ele>114.0</ele><time>2026-04-11T14:53:02.137Z</time></trkpt><trkpt lat="39.2352376" lon="8.4902308"><ele>114.0</ele><time>2026-04-11T14:53:03.14Z</time></trkpt><trkpt lat="39.2353281" lon="8.4903196"><ele>114.0</ele><time>2026-04-11T14:53:04.151Z</time></trkpt><trkpt lat="39.2354177" lon="8.4904082"><ele>114.0</ele><time>2026-04-11T14:53:05.129Z</time></trkpt><trkpt lat="39.2355104" lon="8.4904958"><ele>114.0</ele><time>2026-04-11T14:53:06.13Z</time></trkpt><trkpt lat="39.235603" lon="8.4905864"><ele>113.0</ele><time>2026-04-11T14:53:07.129Z</time></trkpt><trkpt lat="39.2356898" lon="8.4906635"><ele>112.0</ele><time>2026-04-11T14:53:08.135Z</time></trkpt><trkpt lat="39.2357787" lon="8.490743"><ele>111.0</ele><time>2026-04-11T14:53:09.143Z</time></trkpt><trkpt lat="39.235867" lon="8.4908199"><ele>110.0</ele><time>2026-04-11T14:53:10.133Z</time></trkpt><trkpt lat="39.2359501" lon="8.4908965"><ele>109.0</ele><time>2026-04-11T14:53:11.14Z</time></trkpt><trkpt lat="39.2360317" lon="8.4909682"><ele>109.0</ele><time>2026-04-11T14:53:12.134Z</time></trkpt><trkpt lat="39.2361164" lon="8.4910438"><ele>109.0</ele><time>2026-04-11T14:53:13.144Z</time></trkpt><trkpt lat="39.236204" lon="8.4911298"><ele>109.0</ele><time>2026-04-11T14:53:14.112Z</time></trkpt><trkpt lat="39.2362917" lon="8.4912138"><ele>109.0</ele><time>2026-04-11T14:53:15.13Z</time></trkpt><trkpt lat="39.2363877" lon="8.4913022"><ele>109.0</ele><time>2026-04-11T14:53:16.125Z</time></trkpt><trkpt lat="39.2365054" lon="8.4914036"><ele>107.25</ele><time>2026-04-11T14:53:17.126Z</time></trkpt><trkpt lat="39.2366183" lon="8.4915037"><ele>105.5</ele><time>2026-04-11T14:53:18.137Z</time></trkpt><trkpt lat="39.2367219" lon="8.4916044"><ele>103.75</ele><time>2026-04-11T14:53:19.117Z</time></trkpt><trkpt lat="39.2368178" lon="8.4917015"><ele>102.0</ele><time>2026-04-11T14:53:20.129Z</time></trkpt><trkpt lat="39.2369141" lon="8.4917785"><ele>102.0</ele><time>2026-04-11T14:53:21.12Z</time></trkpt><trkpt lat="39.2370064" lon="8.4918465"><ele>102.0</ele><time>2026-04-11T14:53:22.137Z</time></trkpt><trkpt lat="39.2370947" lon="8.4919011"><ele>102.0</ele><time>2026-04-11T14:53:23.133Z</time></trkpt><trkpt lat="39.2371801" lon="8.4919417"><ele>102.0</ele><time>2026-04-11T14:53:24.158Z</time></trkpt><trkpt lat="39.237255" lon="8.491988"><ele>102.0</ele><time>2026-04-11T14:53:25.133Z</time></trkpt><trkpt lat="39.2373336" lon="8.4920562"><ele>101.8</ele><time>2026-04-11T14:53:26.148Z</time></trkpt><trkpt lat="39.2374197" lon="8.4921348"><ele>101.6</ele><time>2026-04-11T14:53:27.139Z</time></trkpt><trkpt lat="39.2374874" lon="8.4922159"><ele>101.39999999999999</ele><time>2026-04-11T14:53:28.148Z</time></trkpt><trkpt lat="39.2375274" lon="8.4922985"><ele>101.19999999999999</ele><time>2026-04-11T14:53:29.142Z</time></trkpt><trkpt lat="39.2375247" lon="8.4923798"><ele>101.0</ele><time>2026-04-11T14:53:30.134Z</time></trkpt><trkpt lat="39.2374327" lon="8.4925144"><ele>100.99999999999999</ele><time>2026-04-11T14:53:32.135Z</time></trkpt><trkpt lat="39.2373524" lon="8.4925936"><ele>101.0</ele><time>2026-04-11T14:53:33.136Z</time></trkpt><trkpt lat="39.237284" lon="8.4926658"><ele>101.0</ele><time>2026-04-11T14:53:34.142Z</time></trkpt><trkpt lat="39.2372347" lon="8.4927261"><ele>101.0</ele><time>2026-04-11T14:53:35.123Z</time></trkpt><trkpt lat="39.2371944" lon="8.4927898"><ele>100.99999999999999</ele><time>2026-04-11T14:53:36.088Z</time></trkpt><trkpt lat="39.2371623" lon="8.4928727"><ele>101.0</ele><time>2026-04-11T14:53:37.118Z</time></trkpt><trkpt lat="39.2371426" lon="8.4929767"><ele>100.66666666666666</ele><time>2026-04-11T14:53:38.113Z</time></trkpt><trkpt lat="39.2371267" lon="8.4931009"><ele>100.33333333333333</ele><time>2026-04-11T14:53:39.129Z</time></trkpt><trkpt lat="39.2371052" lon="8.4932182"><ele>100.0</ele><time>2026-04-11T14:53:40.134Z</time></trkpt><trkpt lat="39.2370893" lon="8.4933236"><ele>99.66666666666666</ele><time>2026-04-11T14:53:41.132Z</time></trkpt><trkpt lat="39.2370767" lon="8.4934166"><ele>99.33333333333333</ele><time>2026-04-11T14:53:42.15Z</time></trkpt><trkpt lat="39.2370394" lon="8.4935049"><ele>99.0</ele><time>2026-04-11T14:53:43.146Z</time></trkpt><trkpt lat="39.2369838" lon="8.4935876"><ele>99.0</ele><time>2026-04-11T14:53:44.153Z</time></trkpt><trkpt lat="39.236924" lon="8.4936663"><ele>99.0</ele><time>2026-04-11T14:53:45.132Z</time></trkpt><trkpt lat="39.2368569" lon="8.4937323"><ele>99.0</ele><time>2026-04-11T14:53:46.155Z</time></trkpt><trkpt lat="39.236774" lon="8.4937856"><ele>99.0</ele><time>2026-04-11T14:53:47.128Z</time></trkpt><trkpt lat="39.2366978" lon="8.4938229"><ele>99.0</ele><time>2026-04-11T14:53:48.148Z</time></trkpt><trkpt lat="39.2366387" lon="8.4938612"><ele>99.0</ele><time>2026-04-11T14:53:49.142Z</time></trkpt><trkpt lat="39.236589" lon="8.4939184"><ele>99.16666666666667</ele><time>2026-04-11T14:53:50.136Z</time></trkpt><trkpt lat="39.2365359" lon="8.4939763"><ele>99.33333333333334</ele><time>2026-04-11T14:53:51.126Z</time></trkpt><trkpt lat="39.2364613" lon="8.4940369"><ele>99.5</ele><time>2026-04-11T14:53:52.124Z</time></trkpt><trkpt lat="39.236374" lon="8.4940845"><ele>99.66666666666667</ele><time>2026-04-11T14:53:53.136Z</time></trkpt><trkpt lat="39.2362971" lon="8.4941097"><ele>99.83333333333334</ele><time>2026-04-11T14:53:54.094Z</time></trkpt><trkpt lat="39.2362322" lon="8.4941256"><ele>100.0</ele><time>2026-04-11T14:53:55.117Z</time></trkpt><trkpt lat="39.2361642" lon="8.4941296"><ele>99.50000000000001</ele><time>2026-04-11T14:53:56.14Z</time></trkpt><trkpt lat="39.2360569" lon="8.4941765"><ele>99.0</ele><time>2026-04-11T14:53:58.145Z</time></trkpt><trkpt lat="39.235999" lon="8.4942271"><ele>98.5</ele><time>2026-04-11T14:53:59.131Z</time></trkpt><trkpt lat="39.2359278" lon="8.4942913"><ele>98.0</ele><time>2026-04-11T14:54:00.118Z</time></trkpt><trkpt lat="39.2358544" lon="8.4943565"><ele>97.50000000000001</ele><time>2026-04-11T14:54:01.118Z</time></trkpt><trkpt lat="39.2357929" lon="8.4944337"><ele>97.0</ele><time>2026-04-11T14:54:02.12Z</time></trkpt><trkpt lat="39.2357432" lon="8.4945176"><ele>97.00000000000001</ele><time>2026-04-11T14:54:03.126Z</time></trkpt><trkpt lat="39.2357061" lon="8.4946119"><ele>97.0</ele><time>2026-04-11T14:54:04.124Z</time></trkpt><trkpt lat="39.2356848" lon="8.4947163"><ele>97.0</ele><time>2026-04-11T14:54:05.124Z</time></trkpt><trkpt lat="39.2356667" lon="8.4948289"><ele>97.0</ele><time>2026-04-11T14:54:06.129Z</time></trkpt><trkpt lat="39.2356297" lon="8.4949332"><ele>97.00000000000001</ele><time>2026-04-11T14:54:07.129Z</time></trkpt><trkpt lat="39.2355863" lon="8.4950221"><ele>97.0</ele><time>2026-04-11T14:54:08.134Z</time></trkpt><trkpt lat="39.235555" lon="8.4951044"><ele>97.0</ele><time>2026-04-11T14:54:09.108Z</time></trkpt><trkpt lat="39.2355643" lon="8.4952347"><ele>97.0</ele><time>2026-04-11T14:54:11.12Z</time></trkpt><trkpt lat="39.2355892" lon="8.4953544"><ele>97.0</ele><time>2026-04-11T14:54:13.11Z</time></trkpt><trkpt lat="39.2355882" lon="8.4954366"><ele>97.0</ele><time>2026-04-11T14:54:14.099Z</time></trkpt><trkpt lat="39.235571" lon="8.4955979"><ele>97.0</ele><time>2026-04-11T14:54:16.114Z</time></trkpt><trkpt lat="39.2355579" lon="8.4956879"><ele>97.0</ele><time>2026-04-11T14:54:17.112Z</time></trkpt><trkpt lat="39.2355372" lon="8.4957779"><ele>97.0</ele><time>2026-04-11T14:54:18.143Z</time></trkpt><trkpt lat="39.2355116" lon="8.4958606"><ele>97.0</ele><time>2026-04-11T14:54:19.134Z</time></trkpt><trkpt lat="39.2354896" lon="8.4959374"><ele>97.0</ele><time>2026-04-11T14:54:20.128Z</time></trkpt><trkpt lat="39.2354688" lon="8.4960353"><ele>97.0</ele><time>2026-04-11T14:54:22.136Z</time></trkpt><trkpt lat="39.2354035" lon="8.4959954"><ele>97.0</ele><time>2026-04-11T14:54:26.125Z</time></trkpt><trkpt lat="39.235374" lon="8.4959205"><ele>97.0</ele><time>2026-04-11T14:54:28.123Z</time></trkpt><trkpt lat="39.2352963" lon="8.4958916"><ele>97.0</ele><time>2026-04-11T14:54:31.082Z</time></trkpt><trkpt lat="39.2352243" lon="8.4959841"><ele>97.0</ele><time>2026-04-11T14:54:34.131Z</time></trkpt><trkpt lat="39.2351679" lon="8.4960628"><ele>97.0</ele><time>2026-04-11T14:54:35.129Z</time></trkpt><trkpt lat="39.2350997" lon="8.496142"><ele>97.0</ele><time>2026-04-11T14:54:36.158Z</time></trkpt><trkpt lat="39.2350396" lon="8.4962315"><ele>97.0</ele><time>2026-04-11T14:54:37.109Z</time></trkpt><trkpt lat="39.2349915" lon="8.496321"><ele>97.0</ele><time>2026-04-11T14:54:38.131Z</time></trkpt><trkpt lat="39.2349479" lon="8.4963829"><ele>97.0</ele><time>2026-04-11T14:54:39.13Z</time></trkpt><trkpt lat="39.2348718" lon="8.4965069"><ele>97.0</ele><time>2026-04-11T14:54:41.144Z</time></trkpt><trkpt lat="39.2347808" lon="8.496642"><ele>97.0</ele><time>2026-04-11T14:54:43.143Z</time></trkpt><trkpt lat="39.2347256" lon="8.4967199"><ele>97.0</ele><time>2026-04-11T14:54:44.13Z</time></trkpt><trkpt lat="39.2346723" lon="8.4967979"><ele>97.00000000000001</ele><time>2026-04-11T14:54:45.107Z</time></trkpt><trkpt lat="39.2346177" lon="8.4968858"><ele>97.0</ele><time>2026-04-11T14:54:46.13Z</time></trkpt><trkpt lat="39.2345624" lon="8.496984"><ele>97.0</ele><time>2026-04-11T14:54:47.142Z</time></trkpt><trkpt lat="39.2345118" lon="8.4970745"><ele>97.0</ele><time>2026-04-11T14:54:48.132Z</time></trkpt><trkpt lat="39.2344452" lon="8.4971397"><ele>97.00000000000001</ele><time>2026-04-11T14:54:49.134Z</time></trkpt><trkpt lat="39.2343626" lon="8.4971927"><ele>97.0</ele><time>2026-04-11T14:54:50.131Z</time></trkpt><trkpt lat="39.2342665" lon="8.4972448"><ele>96.83333333333334</ele><time>2026-04-11T14:54:51.139Z</time></trkpt><trkpt lat="39.2341767" lon="8.497306"><ele>96.66666666666667</ele><time>2026-04-11T14:54:52.098Z</time></trkpt><trkpt lat="39.2341023" lon="8.4973656"><ele>96.5</ele><time>2026-04-11T14:54:53.125Z</time></trkpt><trkpt lat="39.2340381" lon="8.4974341"><ele>96.33333333333334</ele><time>2026-04-11T14:54:54.127Z</time></trkpt><trkpt lat="39.233973" lon="8.497497"><ele>96.16666666666667</ele><time>2026-04-11T14:54:55.093Z</time></trkpt><trkpt lat="39.2339096" lon="8.4975753"><ele>96.0</ele><time>2026-04-11T14:54:56.143Z</time></trkpt><trkpt lat="39.2338447" lon="8.4976486"><ele>96.0</ele><time>2026-04-11T14:54:57.13Z</time></trkpt><trkpt lat="39.2337942" lon="8.4977276"><ele>96.0</ele><time>2026-04-11T14:54:58.125Z</time></trkpt><trkpt lat="39.2337457" lon="8.497798"><ele>96.0</ele><time>2026-04-11T14:54:59.154Z</time></trkpt><trkpt lat="39.2337" lon="8.4978572"><ele>96.0</ele><time>2026-04-11T14:55:00.127Z</time></trkpt><trkpt lat="39.2336349" lon="8.4979404"><ele>96.0</ele><time>2026-04-11T14:55:02.105Z</time></trkpt><trkpt lat="39.2335941" lon="8.4980032"><ele>96.0</ele><time>2026-04-11T14:55:04.142Z</time></trkpt><trkpt lat="39.2335436" lon="8.4980814"><ele>95.83333333333333</ele><time>2026-04-11T14:55:07.132Z</time></trkpt><trkpt lat="39.2334938" lon="8.4981375"><ele>95.66666666666667</ele><time>2026-04-11T14:55:09.14Z</time></trkpt><trkpt lat="39.2334214" lon="8.4982225"><ele>95.5</ele><time>2026-04-11T14:55:11.126Z</time></trkpt><trkpt lat="39.233367" lon="8.4982655"><ele>95.33333333333334</ele><time>2026-04-11T14:55:12.135Z</time></trkpt><trkpt lat="39.2332716" lon="8.4983762"><ele>95.16666666666667</ele><time>2026-04-11T14:55:14.126Z</time></trkpt><trkpt lat="39.233231" lon="8.4984469"><ele>95.0</ele><time>2026-04-11T14:55:15.13Z</time></trkpt><trkpt lat="39.2331871" lon="8.4985161"><ele>94.83333333333334</ele><time>2026-04-11T14:55:16.128Z</time></trkpt><trkpt lat="39.2331371" lon="8.4985942"><ele>94.66666666666667</ele><time>2026-04-11T14:55:17.12Z</time></trkpt><trkpt lat="39.2330935" lon="8.4986684"><ele>94.5</ele><time>2026-04-11T14:55:18.115Z</time></trkpt><trkpt lat="39.2330226" lon="8.4987796"><ele>94.33333333333333</ele><time>2026-04-11T14:55:20.136Z</time></trkpt><trkpt lat="39.2329567" lon="8.4988826"><ele>94.16666666666666</ele><time>2026-04-11T14:55:22.128Z</time></trkpt><trkpt lat="39.2329181" lon="8.4989488"><ele>94.0</ele><time>2026-04-11T14:55:23.123Z</time></trkpt><trkpt lat="39.2328332" lon="8.4990581"><ele>94.0</ele><time>2026-04-11T14:55:25.129Z</time></trkpt><trkpt lat="39.2327485" lon="8.4991652"><ele>94.0</ele><time>2026-04-11T14:55:27.142Z</time></trkpt><trkpt lat="39.2326585" lon="8.4992706"><ele>94.0</ele><time>2026-04-11T14:55:29.123Z</time></trkpt><trkpt lat="39.2325747" lon="8.4993558"><ele>94.0</ele><time>2026-04-11T14:55:31.134Z</time></trkpt><trkpt lat="39.2325212" lon="8.4994214"><ele>94.0</ele><time>2026-04-11T14:55:33.125Z</time></trkpt><trkpt lat="39.2324721" lon="8.4995075"><ele>94.0</ele><time>2026-04-11T14:55:36.137Z</time></trkpt><trkpt lat="39.2325426" lon="8.4996041"><ele>94.0</ele><time>2026-04-11T14:55:38.134Z</time></trkpt><trkpt lat="39.2326181" lon="8.4996671"><ele>94.0</ele><time>2026-04-11T14:55:39.127Z</time></trkpt><trkpt lat="39.2327117" lon="8.4997333"><ele>94.0</ele><time>2026-04-11T14:55:40.155Z</time></trkpt><trkpt lat="39.2327947" lon="8.4997936"><ele>94.0</ele><time>2026-04-11T14:55:41.139Z</time></trkpt><trkpt lat="39.2328651" lon="8.4998468"><ele>94.0</ele><time>2026-04-11T14:55:42.142Z</time></trkpt><trkpt lat="39.2329443" lon="8.4999103"><ele>94.0</ele><time>2026-04-11T14:55:43.138Z</time></trkpt><trkpt lat="39.2330307" lon="8.4999871"><ele>94.0</ele><time>2026-04-11T14:55:44.078Z</time></trkpt><trkpt lat="39.2331189" lon="8.5000696"><ele>94.0</ele><time>2026-04-11T14:55:45.099Z</time></trkpt><trkpt lat="39.2332099" lon="8.5001429"><ele>94.0</ele><time>2026-04-11T14:55:46.119Z</time></trkpt><trkpt lat="39.2333052" lon="8.5001909"><ele>94.0</ele><time>2026-04-11T14:55:47.127Z</time></trkpt><trkpt lat="39.2333922" lon="8.5002165"><ele>94.0</ele><time>2026-04-11T14:55:48.133Z</time></trkpt><trkpt lat="39.2334784" lon="8.5002236"><ele>94.0</ele><time>2026-04-11T14:55:49.114Z</time></trkpt><trkpt lat="39.2335606" lon="8.500211"><ele>94.0</ele><time>2026-04-11T14:55:50.128Z</time></trkpt><trkpt lat="39.2336397" lon="8.5001988"><ele>94.0</ele><time>2026-04-11T14:55:51.129Z</time></trkpt><trkpt lat="39.2337081" lon="8.5001861"><ele>94.0</ele><time>2026-04-11T14:55:52.139Z</time></trkpt><trkpt lat="39.2338025" lon="8.5001623"><ele>94.0</ele><time>2026-04-11T14:55:53.129Z</time></trkpt><trkpt lat="39.2339161" lon="8.5001479"><ele>94.0</ele><time>2026-04-11T14:55:54.118Z</time></trkpt><trkpt lat="39.2340357" lon="8.5001375"><ele>94.0</ele><time>2026-04-11T14:55:55.132Z</time></trkpt><trkpt lat="39.2341273" lon="8.500136"><ele>94.0</ele><time>2026-04-11T14:55:56.148Z</time></trkpt><trkpt lat="39.2342206" lon="8.500159"><ele>94.0</ele><time>2026-04-11T14:55:57.14Z</time></trkpt><trkpt lat="39.234312" lon="8.5001776"><ele>94.4</ele><time>2026-04-11T14:55:58.108Z</time></trkpt><trkpt lat="39.2343953" lon="8.5002033"><ele>94.80000000000001</ele><time>2026-04-11T14:55:59.089Z</time></trkpt><trkpt lat="39.2344939" lon="8.5002329"><ele>95.19999999999999</ele><time>2026-04-11T14:56:00.134Z</time></trkpt><trkpt lat="39.2345823" lon="8.5002371"><ele>95.6</ele><time>2026-04-11T14:56:01.145Z</time></trkpt><trkpt lat="39.2346911" lon="8.5002153"><ele>96.0</ele><time>2026-04-11T14:56:02.134Z</time></trkpt><trkpt lat="39.2348043" lon="8.5001582"><ele>96.25</ele><time>2026-04-11T14:56:03.131Z</time></trkpt><trkpt lat="39.2349243" lon="8.5000959"><ele>96.5</ele><time>2026-04-11T14:56:04.137Z</time></trkpt><trkpt lat="39.2350371" lon="8.5000258"><ele>96.75</ele><time>2026-04-11T14:56:05.118Z</time></trkpt><trkpt lat="39.235154" lon="8.4999404"><ele>97.0</ele><time>2026-04-11T14:56:06.127Z</time></trkpt><trkpt lat="39.2352668" lon="8.4998497"><ele>97.0</ele><time>2026-04-11T14:56:07.13Z</time></trkpt><trkpt lat="39.2353633" lon="8.4997627"><ele>97.0</ele><time>2026-04-11T14:56:08.137Z</time></trkpt><trkpt lat="39.2354535" lon="8.4996732"><ele>97.0</ele><time>2026-04-11T14:56:09.138Z</time></trkpt><trkpt lat="39.2355419" lon="8.4995941"><ele>97.0</ele><time>2026-04-11T14:56:10.119Z</time></trkpt><trkpt lat="39.235622" lon="8.4995444"><ele>97.0</ele><time>2026-04-11T14:56:11.132Z</time></trkpt><trkpt lat="39.2356864" lon="8.4995038"><ele>97.33333333333334</ele><time>2026-04-11T14:56:12.13Z</time></trkpt><trkpt lat="39.2357561" lon="8.4995064"><ele>97.66666666666667</ele><time>2026-04-11T14:56:14.133Z</time></trkpt><trkpt lat="39.2357731" lon="8.4996337"><ele>98.0</ele><time>2026-04-11T14:56:16.134Z</time></trkpt><trkpt lat="39.2357732" lon="8.4997324"><ele>98.33333333333334</ele><time>2026-04-11T14:56:17.12Z</time></trkpt><trkpt lat="39.2357834" lon="8.4998613"><ele>98.66666666666667</ele><time>2026-04-11T14:56:18.132Z</time></trkpt><trkpt lat="39.2358099" lon="8.4999806"><ele>99.0</ele><time>2026-04-11T14:56:19.135Z</time></trkpt><trkpt lat="39.2358467" lon="8.5000835"><ele>99.16666666666667</ele><time>2026-04-11T14:56:20.129Z</time></trkpt><trkpt lat="39.2358869" lon="8.5001675"><ele>99.33333333333334</ele><time>2026-04-11T14:56:21.124Z</time></trkpt><trkpt lat="39.2359377" lon="8.5002882"><ele>99.5</ele><time>2026-04-11T14:56:23.136Z</time></trkpt><trkpt lat="39.2359775" lon="8.5003763"><ele>99.66666666666667</ele><time>2026-04-11T14:56:25.134Z</time></trkpt><trkpt lat="39.236018" lon="8.5004545"><ele>99.83333333333334</ele><time>2026-04-11T14:56:28.144Z</time></trkpt><trkpt lat="39.2360585" lon="8.5005219"><ele>100.0</ele><time>2026-04-11T14:56:32.123Z</time></trkpt><trkpt lat="39.2360911" lon="8.5006018"><ele>101.00000000000001</ele><time>2026-04-11T14:57:51.135Z</time></trkpt><trkpt lat="39.236058" lon="8.5006873"><ele>102.0</ele><time>2026-04-11T14:57:54.131Z</time></trkpt><trkpt lat="39.2359944" lon="8.5007805"><ele>103.0</ele><time>2026-04-11T14:57:56.124Z</time></trkpt><trkpt lat="39.2359454" lon="8.5008419"><ele>104.0</ele><time>2026-04-11T14:57:57.117Z</time></trkpt><trkpt lat="39.2358809" lon="8.5009177"><ele>105.00000000000001</ele><time>2026-04-11T14:57:58.136Z</time></trkpt><trkpt lat="39.2358154" lon="8.5009957"><ele>106.0</ele><time>2026-04-11T14:57:59.128Z</time></trkpt><trkpt lat="39.235764" lon="8.5010622"><ele>106.00000000000001</ele><time>2026-04-11T14:58:00.081Z</time></trkpt><trkpt lat="39.2357233" lon="8.501194"><ele>106.0</ele><time>2026-04-11T14:58:02.114Z</time></trkpt><trkpt lat="39.2357045" lon="8.5013554"><ele>106.0</ele><time>2026-04-11T14:58:04.104Z</time></trkpt><trkpt lat="39.2356861" lon="8.5014427"><ele>106.0</ele><time>2026-04-11T14:58:05.095Z</time></trkpt><trkpt lat="39.2356743" lon="8.5015299"><ele>106.00000000000001</ele><time>2026-04-11T14:58:06.104Z</time></trkpt><trkpt lat="39.2356611" lon="8.5016203"><ele>106.0</ele><time>2026-04-11T14:58:07.112Z</time></trkpt><trkpt lat="39.2356299" lon="8.5017491"><ele>108.8</ele><time>2026-04-11T14:58:09.127Z</time></trkpt><trkpt lat="39.2355824" lon="8.5018199"><ele>111.6</ele><time>2026-04-11T14:58:11.074Z</time></trkpt><trkpt lat="39.2355605" lon="8.5016722"><ele>114.4</ele><time>2026-04-11T14:58:12.123Z</time></trkpt><trkpt lat="39.2355828" lon="8.5015791"><ele>117.2</ele><time>2026-04-11T14:58:14.123Z</time></trkpt><trkpt lat="39.2355851" lon="8.5017573"><ele>120.0</ele><time>2026-04-11T14:58:17.104Z</time></trkpt><trkpt lat="39.2355951" lon="8.5018444"><ele>120.0</ele><time>2026-04-11T14:58:31.111Z</time></trkpt><trkpt lat="39.2355818" lon="8.5019299"><ele>120.0</ele><time>2026-04-11T14:58:34.128Z</time></trkpt><trkpt lat="39.2355543" lon="8.5020056"><ele>120.0</ele><time>2026-04-11T14:58:36.102Z</time></trkpt><trkpt lat="39.2355342" lon="8.5020952"><ele>120.0</ele><time>2026-04-11T14:58:44.143Z</time></trkpt><trkpt lat="39.2354873" lon="8.5021607"><ele>120.0</ele><time>2026-04-11T14:58:46.131Z</time></trkpt><trkpt lat="39.2353956" lon="8.5021951"><ele>120.0</ele><time>2026-04-11T14:58:48.136Z</time></trkpt><trkpt lat="39.2353121" lon="8.5021826"><ele>120.0</ele><time>2026-04-11T14:58:50.129Z</time></trkpt><trkpt lat="39.235279" lon="8.5021056"><ele>120.0</ele><time>2026-04-11T14:58:54.121Z</time></trkpt><trkpt lat="39.2352089" lon="8.5020609"><ele>120.0</ele><time>2026-04-11T14:58:57.142Z</time></trkpt><trkpt lat="39.2351209" lon="8.5020521"><ele>120.0</ele><time>2026-04-11T14:58:59.121Z</time></trkpt><trkpt lat="39.235053" lon="8.5021259"><ele>120.0</ele><time>2026-04-11T14:59:01.097Z</time></trkpt><trkpt lat="39.2349617" lon="8.5022379"><ele>120.0</ele><time>2026-04-11T14:59:03.102Z</time></trkpt><trkpt lat="39.2348785" lon="8.5023035"><ele>120.5</ele><time>2026-04-11T14:59:05.075Z</time></trkpt><trkpt lat="39.2348073" lon="8.5023133"><ele>121.0</ele><time>2026-04-11T14:59:08.12Z</time></trkpt><trkpt lat="39.2347346" lon="8.5023269"><ele>121.5</ele><time>2026-04-11T14:59:12.131Z</time></trkpt><trkpt lat="39.2346719" lon="8.5023188"><ele>122.0</ele><time>2026-04-11T15:00:13.149Z</time></trkpt><trkpt lat="39.2346041" lon="8.5023499"><ele>122.5</ele><time>2026-04-11T15:00:18.145Z</time></trkpt><trkpt lat="39.2345235" lon="8.5024546"><ele>123.0</ele><time>2026-04-11T15:00:20.119Z</time></trkpt><trkpt lat="39.2344664" lon="8.5025129"><ele>123.0</ele><time>2026-04-11T15:00:21.116Z</time></trkpt><trkpt lat="39.2344085" lon="8.502568"><ele>123.00000000000001</ele><time>2026-04-11T15:00:22.133Z</time></trkpt><trkpt lat="39.2343281" lon="8.502653"><ele>123.00000000000001</ele><time>2026-04-11T15:00:24.163Z</time></trkpt><trkpt lat="39.2342474" lon="8.5027472"><ele>123.0</ele><time>2026-04-11T15:00:26.127Z</time></trkpt><trkpt lat="39.2341842" lon="8.5028248"><ele>123.0</ele><time>2026-04-11T15:00:28.131Z</time></trkpt><trkpt lat="39.2341059" lon="8.502887"><ele>122.0</ele><time>2026-04-11T15:00:30.132Z</time></trkpt><trkpt lat="39.2340259" lon="8.5029455"><ele>121.00000000000001</ele><time>2026-04-11T15:00:32.141Z</time></trkpt><trkpt lat="39.2339402" lon="8.5030118"><ele>120.00000000000001</ele><time>2026-04-11T15:00:34.129Z</time></trkpt><trkpt lat="39.2338594" lon="8.5030829"><ele>119.0</ele><time>2026-04-11T15:00:36.124Z</time></trkpt><trkpt lat="39.233764" lon="8.5031712"><ele>118.0</ele><time>2026-04-11T15:00:38.119Z</time></trkpt><trkpt lat="39.2337097" lon="8.5032165"><ele>117.16666666666667</ele><time>2026-04-11T15:00:39.109Z</time></trkpt><trkpt lat="39.2336453" lon="8.5032794"><ele>116.33333333333334</ele><time>2026-04-11T15:00:41.112Z</time></trkpt><trkpt lat="39.2335921" lon="8.5033308"><ele>115.5</ele><time>2026-04-11T15:00:43.132Z</time></trkpt><trkpt lat="39.2335016" lon="8.5034118"><ele>114.66666666666666</ele><time>2026-04-11T15:00:45.129Z</time></trkpt><trkpt lat="39.2334343" lon="8.503474"><ele>113.83333333333333</ele><time>2026-04-11T15:00:46.122Z</time></trkpt><trkpt lat="39.2333573" lon="8.5035513"><ele>113.0</ele><time>2026-04-11T15:00:47.133Z</time></trkpt><trkpt lat="39.2332736" lon="8.5036248"><ele>113.0</ele><time>2026-04-11T15:00:48.128Z</time></trkpt><trkpt lat="39.2331949" lon="8.5036932"><ele>113.00000000000001</ele><time>2026-04-11T15:00:49.099Z</time></trkpt><trkpt lat="39.2331161" lon="8.5037664"><ele>113.00000000000001</ele><time>2026-04-11T15:00:50.142Z</time></trkpt><trkpt lat="39.2330397" lon="8.5038521"><ele>113.0</ele><time>2026-04-11T15:00:51.127Z</time></trkpt><trkpt lat="39.232963" lon="8.5039224"><ele>113.0</ele><time>2026-04-11T15:00:52.132Z</time></trkpt><trkpt lat="39.2328956" lon="8.5039814"><ele>113.33333333333333</ele><time>2026-04-11T15:00:53.126Z</time></trkpt><trkpt lat="39.2328309" lon="8.5040366"><ele>113.66666666666666</ele><time>2026-04-11T15:00:54.12Z</time></trkpt><trkpt lat="39.2327353" lon="8.5041132"><ele>114.0</ele><time>2026-04-11T15:00:56.083Z</time></trkpt><trkpt lat="39.2327237" lon="8.5041971"><ele>114.33333333333334</ele><time>2026-04-11T15:00:58.086Z</time></trkpt><trkpt lat="39.2326383" lon="8.5042671"><ele>114.66666666666667</ele><time>2026-04-11T15:01:02.101Z</time></trkpt><trkpt lat="39.2325604" lon="8.5043079"><ele>115.0</ele><time>2026-04-11T15:01:04.115Z</time></trkpt><trkpt lat="39.2324551" lon="8.5043708"><ele>115.0</ele><time>2026-04-11T15:01:06.079Z</time></trkpt><trkpt lat="39.2323457" lon="8.504436"><ele>115.0</ele><time>2026-04-11T15:01:08.123Z</time></trkpt><trkpt lat="39.2322423" lon="8.5045453"><ele>115.0</ele><time>2026-04-11T15:01:10.14Z</time></trkpt><trkpt lat="39.2321705" lon="8.5045977"><ele>115.0</ele><time>2026-04-11T15:01:11.125Z</time></trkpt><trkpt lat="39.232106" lon="8.5046323"><ele>115.0</ele><time>2026-04-11T15:01:12.119Z</time></trkpt><trkpt lat="39.2320392" lon="8.5046587"><ele>113.6</ele><time>2026-04-11T15:01:13.123Z</time></trkpt><trkpt lat="39.2319616" lon="8.504677"><ele>112.2</ele><time>2026-04-11T15:01:14.109Z</time></trkpt><trkpt lat="39.2318777" lon="8.5047103"><ele>110.80000000000001</ele><time>2026-04-11T15:01:15.132Z</time></trkpt><trkpt lat="39.2317885" lon="8.5047532"><ele>109.4</ele><time>2026-04-11T15:01:16.117Z</time></trkpt><trkpt lat="39.2316864" lon="8.5047944"><ele>108.0</ele><time>2026-04-11T15:01:17.12Z</time></trkpt><trkpt lat="39.231584" lon="8.5048366"><ele>105.4</ele><time>2026-04-11T15:01:18.137Z</time></trkpt><trkpt lat="39.2314732" lon="8.5048836"><ele>102.80000000000001</ele><time>2026-04-11T15:01:19.135Z</time></trkpt><trkpt lat="39.2313676" lon="8.504922"><ele>100.2</ele><time>2026-04-11T15:01:20.101Z</time></trkpt><trkpt lat="39.2312651" lon="8.5049581"><ele>97.6</ele><time>2026-04-11T15:01:21.11Z</time></trkpt><trkpt lat="39.2311546" lon="8.5050028"><ele>95.0</ele><time>2026-04-11T15:01:22.083Z</time></trkpt><trkpt lat="39.2310407" lon="8.5050503"><ele>95.0</ele><time>2026-04-11T15:01:23.134Z</time></trkpt><trkpt lat="39.2309351" lon="8.5050999"><ele>95.0</ele><time>2026-04-11T15:01:24.108Z</time></trkpt><trkpt lat="39.2308323" lon="8.5051342"><ele>95.0</ele><time>2026-04-11T15:01:25.114Z</time></trkpt><trkpt lat="39.2307341" lon="8.5051652"><ele>95.0</ele><time>2026-04-11T15:01:26.125Z</time></trkpt><trkpt lat="39.2306473" lon="8.5051968"><ele>95.0</ele><time>2026-04-11T15:01:27.101Z</time></trkpt><trkpt lat="39.2305744" lon="8.5052215"><ele>94.14285714285714</ele><time>2026-04-11T15:01:28.126Z</time></trkpt><trkpt lat="39.2305123" lon="8.505242"><ele>93.28571428571429</ele><time>2026-04-11T15:01:29.135Z</time></trkpt><trkpt lat="39.2304265" lon="8.5052805"><ele>92.42857142857142</ele><time>2026-04-11T15:01:31.151Z</time></trkpt><trkpt lat="39.2303685" lon="8.505319"><ele>91.57142857142857</ele><time>2026-04-11T15:01:34.129Z</time></trkpt><trkpt lat="39.2302955" lon="8.5053532"><ele>90.71428571428571</ele><time>2026-04-11T15:01:54.129Z</time></trkpt><trkpt lat="39.2302297" lon="8.5053044"><ele>89.85714285714285</ele><time>2026-04-11T15:01:59.13Z</time></trkpt><trkpt lat="39.2301765" lon="8.5052399"><ele>89.0</ele><time>2026-04-11T15:02:03.133Z</time></trkpt><trkpt lat="39.2301564" lon="8.5053249"><ele>88.99999999999999</ele><time>2026-04-11T15:02:59.104Z</time></trkpt><trkpt lat="39.2301255" lon="8.5052466"><ele>89.0</ele><time>2026-04-11T15:03:03.121Z</time></trkpt><trkpt lat="39.2300608" lon="8.5052017"><ele>89.0</ele><time>2026-04-11T15:03:04.13Z</time></trkpt><trkpt lat="39.2300132" lon="8.5051435"><ele>89.0</ele><time>2026-04-11T15:03:05.135Z</time></trkpt><trkpt lat="39.2299582" lon="8.5050978"><ele>89.0</ele><time>2026-04-11T15:03:06.146Z</time></trkpt><trkpt lat="39.2298975" lon="8.5050612"><ele>88.99999999999999</ele><time>2026-04-11T15:03:07.145Z</time></trkpt><trkpt lat="39.2298261" lon="8.5050249"><ele>89.0</ele><time>2026-04-11T15:03:08.125Z</time></trkpt><trkpt lat="39.2297495" lon="8.5049747"><ele>88.66666666666667</ele><time>2026-04-11T15:03:09.121Z</time></trkpt><trkpt lat="39.2296757" lon="8.5049327"><ele>88.33333333333334</ele><time>2026-04-11T15:03:10.124Z</time></trkpt><trkpt lat="39.2296012" lon="8.5048911"><ele>88.0</ele><time>2026-04-11T15:03:11.151Z</time></trkpt><trkpt lat="39.2295201" lon="8.5048468"><ele>87.66666666666667</ele><time>2026-04-11T15:03:12.132Z</time></trkpt><trkpt lat="39.2294342" lon="8.5047928"><ele>87.33333333333333</ele><time>2026-04-11T15:03:13.148Z</time></trkpt><trkpt lat="39.2293443" lon="8.5047423"><ele>87.0</ele><time>2026-04-11T15:03:14.115Z</time></trkpt><trkpt lat="39.2292561" lon="8.5046794"><ele>87.0</ele><time>2026-04-11T15:03:15.117Z</time></trkpt><trkpt lat="39.2291674" lon="8.5046244"><ele>87.0</ele><time>2026-04-11T15:03:16.128Z</time></trkpt><trkpt lat="39.2290781" lon="8.5045706"><ele>87.0</ele><time>2026-04-11T15:03:17.128Z</time></trkpt><trkpt lat="39.2289821" lon="8.5045139"><ele>87.0</ele><time>2026-04-11T15:03:18.121Z</time></trkpt><trkpt lat="39.2288877" lon="8.5044571"><ele>87.0</ele><time>2026-04-11T15:03:19.131Z</time></trkpt><trkpt lat="39.2287809" lon="8.5044132"><ele>87.5</ele><time>2026-04-11T15:03:20.111Z</time></trkpt><trkpt lat="39.2286635" lon="8.5043829"><ele>88.0</ele><time>2026-04-11T15:03:21.138Z</time></trkpt><trkpt lat="39.2285418" lon="8.504362"><ele>88.5</ele><time>2026-04-11T15:03:22.135Z</time></trkpt><trkpt lat="39.2284238" lon="8.504327"><ele>89.0</ele><time>2026-04-11T15:03:23.07Z</time></trkpt><trkpt lat="39.2283075" lon="8.5043063"><ele>89.0</ele><time>2026-04-11T15:03:24.134Z</time></trkpt><trkpt lat="39.2282093" lon="8.5042913"><ele>89.0</ele><time>2026-04-11T15:03:25.123Z</time></trkpt><trkpt lat="39.228133" lon="8.5042736"><ele>89.0</ele><time>2026-04-11T15:03:26.123Z</time></trkpt><trkpt lat="39.2280713" lon="8.5042388"><ele>89.0</ele><time>2026-04-11T15:03:27.144Z</time></trkpt><trkpt lat="39.2280101" lon="8.5041456"><ele>89.0</ele><time>2026-04-11T15:03:29.129Z</time></trkpt><trkpt lat="39.2279985" lon="8.5040419"><ele>89.0</ele><time>2026-04-11T15:03:30.126Z</time></trkpt><trkpt lat="39.2279658" lon="8.5039235"><ele>89.2</ele><time>2026-04-11T15:03:31.114Z</time></trkpt><trkpt lat="39.2279244" lon="8.5037993"><ele>89.4</ele><time>2026-04-11T15:03:32.124Z</time></trkpt><trkpt lat="39.2278696" lon="8.5036712"><ele>89.6</ele><time>2026-04-11T15:03:33.09Z</time></trkpt><trkpt lat="39.2278086" lon="8.503548"><ele>89.8</ele><time>2026-04-11T15:03:34.127Z</time></trkpt><trkpt lat="39.2277475" lon="8.5034229"><ele>90.0</ele><time>2026-04-11T15:03:35.126Z</time></trkpt><trkpt lat="39.2276873" lon="8.5033091"><ele>90.6</ele><time>2026-04-11T15:03:36.125Z</time></trkpt><trkpt lat="39.227633" lon="8.5032006"><ele>91.2</ele><time>2026-04-11T15:03:37.148Z</time></trkpt><trkpt lat="39.2275878" lon="8.5030876"><ele>91.80000000000001</ele><time>2026-04-11T15:03:38.095Z</time></trkpt><trkpt lat="39.2275524" lon="8.5029706"><ele>92.4</ele><time>2026-04-11T15:03:39.139Z</time></trkpt><trkpt lat="39.2275343" lon="8.5028545"><ele>93.0</ele><time>2026-04-11T15:03:40.119Z</time></trkpt><trkpt lat="39.2275139" lon="8.5027556"><ele>93.66666666666667</ele><time>2026-04-11T15:03:41.086Z</time></trkpt><trkpt lat="39.2274912" lon="8.5026729"><ele>94.33333333333334</ele><time>2026-04-11T15:03:42.137Z</time></trkpt><trkpt lat="39.227477" lon="8.5025892"><ele>95.0</ele><time>2026-04-11T15:03:43.091Z</time></trkpt><trkpt lat="39.2274711" lon="8.5024837"><ele>95.66666666666667</ele><time>2026-04-11T15:03:44.088Z</time></trkpt><trkpt lat="39.2274804" lon="8.5023645"><ele>96.33333333333334</ele><time>2026-04-11T15:03:45.08Z</time></trkpt><trkpt lat="39.2275108" lon="8.5022489"><ele>97.0</ele><time>2026-04-11T15:03:46.159Z</time></trkpt><trkpt lat="39.2275675" lon="8.5021478"><ele>97.8</ele><time>2026-04-11T15:03:47.131Z</time></trkpt><trkpt lat="39.2276337" lon="8.5020402"><ele>98.6</ele><time>2026-04-11T15:03:48.161Z</time></trkpt><trkpt lat="39.2276955" lon="8.5019271"><ele>99.39999999999999</ele><time>2026-04-11T15:03:49.123Z</time></trkpt><trkpt lat="39.2277515" lon="8.501826"><ele>100.19999999999999</ele><time>2026-04-11T15:03:50.119Z</time></trkpt><trkpt lat="39.2277892" lon="8.5017143"><ele>101.0</ele><time>2026-04-11T15:03:51.117Z</time></trkpt><trkpt lat="39.2278184" lon="8.5015995"><ele>100.99999999999999</ele><time>2026-04-11T15:03:52.126Z</time></trkpt><trkpt lat="39.2278365" lon="8.5014876"><ele>101.0</ele><time>2026-04-11T15:03:53.162Z</time></trkpt><trkpt lat="39.2278406" lon="8.5013709"><ele>101.0</ele><time>2026-04-11T15:03:54.118Z</time></trkpt><trkpt lat="39.227825" lon="8.5012513"><ele>101.0</ele><time>2026-04-11T15:03:55.118Z</time></trkpt><trkpt lat="39.2277993" lon="8.5011472"><ele>100.99999999999999</ele><time>2026-04-11T15:03:56.102Z</time></trkpt><trkpt lat="39.2277722" lon="8.5010652"><ele>101.0</ele><time>2026-04-11T15:03:57.089Z</time></trkpt><trkpt lat="39.2277309" lon="8.5009938"><ele>102.4</ele><time>2026-04-11T15:03:58.123Z</time></trkpt><trkpt lat="39.2276732" lon="8.5009604"><ele>103.8</ele><time>2026-04-11T15:03:59.107Z</time></trkpt><trkpt lat="39.227587" lon="8.5009347"><ele>105.20000000000002</ele><time>2026-04-11T15:04:00.121Z</time></trkpt><trkpt lat="39.2274889" lon="8.5009043"><ele>106.60000000000001</ele><time>2026-04-11T15:04:01.127Z</time></trkpt><trkpt lat="39.2273833" lon="8.5008642"><ele>108.0</ele><time>2026-04-11T15:04:02.112Z</time></trkpt><trkpt lat="39.2272942" lon="8.5008202"><ele>108.0</ele><time>2026-04-11T15:04:03.139Z</time></trkpt><trkpt lat="39.2271996" lon="8.5007446"><ele>108.00000000000001</ele><time>2026-04-11T15:04:04.137Z</time></trkpt><trkpt lat="39.2271153" lon="8.5006794"><ele>108.00000000000001</ele><time>2026-04-11T15:04:05.121Z</time></trkpt><trkpt lat="39.2270354" lon="8.5006056"><ele>108.0</ele><time>2026-04-11T15:04:06.111Z</time></trkpt><trkpt lat="39.2269543" lon="8.5005225"><ele>108.0</ele><time>2026-04-11T15:04:07.127Z</time></trkpt><trkpt lat="39.2268822" lon="8.5004271"><ele>108.33333333333333</ele><time>2026-04-11T15:04:08.117Z</time></trkpt><trkpt lat="39.2268347" lon="8.5003249"><ele>108.66666666666666</ele><time>2026-04-11T15:04:09.133Z</time></trkpt><trkpt lat="39.2268028" lon="8.5002038"><ele>109.0</ele><time>2026-04-11T15:04:10.107Z</time></trkpt><trkpt lat="39.2267777" lon="8.5000991"><ele>109.33333333333333</ele><time>2026-04-11T15:04:11.12Z</time></trkpt><trkpt lat="39.2267567" lon="8.499991"><ele>109.66666666666666</ele><time>2026-04-11T15:04:12.122Z</time></trkpt><trkpt lat="39.226735" lon="8.4998858"><ele>110.0</ele><time>2026-04-11T15:04:13.114Z</time></trkpt><trkpt lat="39.2266924" lon="8.4997766"><ele>109.99999999999999</ele><time>2026-04-11T15:04:14.139Z</time></trkpt><trkpt lat="39.2266427" lon="8.4996635"><ele>110.0</ele><time>2026-04-11T15:04:15.135Z</time></trkpt><trkpt lat="39.226602" lon="8.4995446"><ele>110.0</ele><time>2026-04-11T15:04:16.13Z</time></trkpt><trkpt lat="39.2265641" lon="8.4994437"><ele>110.0</ele><time>2026-04-11T15:04:17.131Z</time></trkpt><trkpt lat="39.2265415" lon="8.499362"><ele>109.99999999999999</ele><time>2026-04-11T15:04:18.12Z</time></trkpt><trkpt lat="39.2265324" lon="8.4992805"><ele>110.0</ele><time>2026-04-11T15:04:19.141Z</time></trkpt><trkpt lat="39.2265073" lon="8.4991809"><ele>109.5</ele><time>2026-04-11T15:04:20.13Z</time></trkpt><trkpt lat="39.2264918" lon="8.4990484"><ele>109.0</ele><time>2026-04-11T15:04:21.175Z</time></trkpt><trkpt lat="39.2264287" lon="8.4989228"><ele>108.5</ele><time>2026-04-11T15:04:22.15Z</time></trkpt><trkpt lat="39.2263443" lon="8.4987527"><ele>108.0</ele><time>2026-04-11T15:04:23.123Z</time></trkpt><trkpt lat="39.2262733" lon="8.4986016"><ele>108.0</ele><time>2026-04-11T15:04:24.105Z</time></trkpt><trkpt lat="39.2262231" lon="8.498469"><ele>108.0</ele><time>2026-04-11T15:04:25.128Z</time></trkpt><trkpt lat="39.226169" lon="8.4983685"><ele>108.0</ele><time>2026-04-11T15:04:26.116Z</time></trkpt><trkpt lat="39.2261288" lon="8.4983037"><ele>108.0</ele><time>2026-04-11T15:04:27.132Z</time></trkpt><trkpt lat="39.2260755" lon="8.4982354"><ele>108.0</ele><time>2026-04-11T15:04:29.147Z</time></trkpt><trkpt lat="39.2260027" lon="8.4982012"><ele>108.0</ele><time>2026-04-11T15:04:52.115Z</time></trkpt><trkpt lat="39.2259096" lon="8.4982031"><ele>108.0</ele><time>2026-04-11T15:04:54.135Z</time></trkpt><trkpt lat="39.2258384" lon="8.4982349"><ele>108.00000000000001</ele><time>2026-04-11T15:04:55.113Z</time></trkpt><trkpt lat="39.2257605" lon="8.4982654"><ele>108.00000000000001</ele><time>2026-04-11T15:04:56.108Z</time></trkpt><trkpt lat="39.2256616" lon="8.4982985"><ele>108.0</ele><time>2026-04-11T15:04:57.143Z</time></trkpt><trkpt lat="39.2255564" lon="8.4983419"><ele>108.0</ele><time>2026-04-11T15:04:58.126Z</time></trkpt><trkpt lat="39.2254532" lon="8.4983769"><ele>108.4</ele><time>2026-04-11T15:04:59.136Z</time></trkpt><trkpt lat="39.2253568" lon="8.4984121"><ele>108.80000000000001</ele><time>2026-04-11T15:05:00.13Z</time></trkpt><trkpt lat="39.2252566" lon="8.498442"><ele>109.2</ele><time>2026-04-11T15:05:01.128Z</time></trkpt><trkpt lat="39.2251622" lon="8.498489"><ele>109.6</ele><time>2026-04-11T15:05:02.152Z</time></trkpt><trkpt lat="39.2250815" lon="8.4985509"><ele>110.0</ele><time>2026-04-11T15:05:03.13Z</time></trkpt><trkpt lat="39.2249977" lon="8.4985988"><ele>110.0</ele><time>2026-04-11T15:05:04.069Z</time></trkpt><trkpt lat="39.2249159" lon="8.4986465"><ele>110.0</ele><time>2026-04-11T15:05:05.11Z</time></trkpt><trkpt lat="39.2248323" lon="8.4986952"><ele>110.0</ele><time>2026-04-11T15:05:06.148Z</time></trkpt><trkpt lat="39.2247429" lon="8.4987394"><ele>110.0</ele><time>2026-04-11T15:05:07.136Z</time></trkpt><trkpt lat="39.2246417" lon="8.4987774"><ele>110.0</ele><time>2026-04-11T15:05:08.143Z</time></trkpt><trkpt lat="39.2245466" lon="8.4988239"><ele>110.0</ele><time>2026-04-11T15:05:09.117Z</time></trkpt><trkpt lat="39.2244557" lon="8.4988744"><ele>110.0</ele><time>2026-04-11T15:05:10.137Z</time></trkpt><trkpt lat="39.2243693" lon="8.4989423"><ele>110.0</ele><time>2026-04-11T15:05:11.125Z</time></trkpt><trkpt lat="39.2242946" lon="8.4990134"><ele>110.0</ele><time>2026-04-11T15:05:12.13Z</time></trkpt><trkpt lat="39.2242345" lon="8.499102"><ele>110.0</ele><time>2026-04-11T15:05:13.141Z</time></trkpt><trkpt lat="39.224176" lon="8.4992057"><ele>109.99999999999999</ele><time>2026-04-11T15:05:14.126Z</time></trkpt><trkpt lat="39.2241217" lon="8.4993092"><ele>110.0</ele><time>2026-04-11T15:05:15.138Z</time></trkpt><trkpt lat="39.2240765" lon="8.4994052"><ele>110.0</ele><time>2026-04-11T15:05:16.123Z</time></trkpt><trkpt lat="39.2240353" lon="8.4994986"><ele>110.0</ele><time>2026-04-11T15:05:17.102Z</time></trkpt><trkpt lat="39.223996" lon="8.4995869"><ele>109.99999999999999</ele><time>2026-04-11T15:05:18.12Z</time></trkpt><trkpt lat="39.2239452" lon="8.4996675"><ele>110.0</ele><time>2026-04-11T15:05:19.11Z</time></trkpt><trkpt lat="39.2238858" lon="8.4997493"><ele>109.33333333333333</ele><time>2026-04-11T15:05:20.148Z</time></trkpt><trkpt lat="39.2238277" lon="8.499805"><ele>108.66666666666666</ele><time>2026-04-11T15:05:21.073Z</time></trkpt><trkpt lat="39.2237672" lon="8.4998601"><ele>108.0</ele><time>2026-04-11T15:05:22.083Z</time></trkpt><trkpt lat="39.2237164" lon="8.4999221"><ele>107.33333333333334</ele><time>2026-04-11T15:05:23.082Z</time></trkpt><trkpt lat="39.2236657" lon="8.5000652"><ele>106.66666666666667</ele><time>2026-04-11T15:05:25.073Z</time></trkpt><trkpt lat="39.2236489" lon="8.5002049"><ele>106.0</ele><time>2026-04-11T15:05:27.074Z</time></trkpt><trkpt lat="39.2236264" lon="8.5003044"><ele>106.0</ele><time>2026-04-11T15:05:29.073Z</time></trkpt><trkpt lat="39.2236087" lon="8.5003898"><ele>106.0</ele><time>2026-04-11T15:05:31.122Z</time></trkpt></trkseg></trk></gpx>